[[{"header":{"parameterUnit":"m.s-1","parameterCategory":1,"la1":30.6,"la2":28.766,"lo1":-90.7593,"lo2":-88.6598,"dy":0.0162,"dx":0.0183,"nx":116,"ny":114,"refTime":"2023-02-27T06:00:00:Z","depth":0,"parameterNumber":2,"parameterNumberName":"U-component_of_WINDS"},"data":[0.0,0.0,0.0,0.0,0.0,0.0,0.0,0.0,0.0,0.0,0.0,0.0,0.0,0.0,0.0,0.0,0.0,0.0,0.0,0.0,0.0,0.0,0.0,0.0,0.0,0.0,0.0,0.0,0.0,0.0,0.0,0.0,0.0,0.0,0.0,0.0,0.0,0.0,0.0,0.0,0.0,0.0,0.0,0.0,0.0,0.0,0.0,0.0,0.0,0.0,0.0,0.0,0.0,0.0,0.0,0.0,0.0,0.0,0.0,0.0,0.0,0.0,0.0,0.0,0.0,0.0,0.0,0.0,0.0,0.0,0.0,0.0,0.0,0.0,0.0,0.0,0.0,0.0,0.0,0.0,0.0,0.0,0.0,0.0,0.0,0.0,0.0,0.0,0.0,0.0,0.0,0.0,0.0,0.0,0.0,0.0,0.0,0.0,0.0,0.0,0.0,0.0,0.0,0.0,0.0,0.0,0.0,0.0,0.0,0.0,0.0,0.0,0.0,0.0,0.0,0.0,0.0,0.0,0.0,0.0,0.0,0.0,0.0,0.0,0.0,0.0,0.0,0.0,0.0,0.0,0.0,0.0,0.0,0.0,0.0,0.0,0.0,0.0,0.0,0.0,0.0,0.0,0.0,0.0,0.0,0.0,0.0,0.0,0.0,0.0,0.0,0.0,0.0,0.0,0.0,0.0,0.0,0.0,0.0,0.0,0.0,0.0,0.0,0.0,0.0,0.0,0.0,0.0,0.0,0.0,0.0,0.0,0.0,0.0,0.0,0.0,0.0,0.0,0.0,0.0,0.0,0.0,0.0,0.0,0.0,0.0,0.0,0.0,0.0,0.0,0.0,0.0,0.0,0.0,0.0,0.0,0.0,0.0,0.0,0.0,0.0,0.0,0.0,0.0,0.0,0.0,0.0,0.0,0.0,0.0,0.0,0.0,0.0,0.0,0.0,0.0,0.0,0.0,0.0,0.0,0.0,0.0,0.0,0.0,0.0,0.0,0.0,0.0,0.0,0.0,0.0,0.0,0.0,0.0,0.0,0.0,0.0,0.0,0.0,0.0,0.0,0.0,0.0,0.0,0.0,0.0,0.0,0.0,0.0,0.0,0.0,0.0,0.0,0.0,0.0,0.0,0.0,0.0,0.0,0.0,0.0,0.0,0.0,0.0,0.0,0.0,0.0,0.0,0.0,0.0,0.0,0.0,0.0,0.0,0.0,0.0,0.0,0.0,0.0,0.0,0.0,0.0,0.0,0.0,0.0,0.0,0.0,0.0,0.0,0.0,0.0,0.0,0.0,0.0,0.0,0.0,0.0,0.0,0.0,0.0,0.0,0.0,0.0,0.0,0.0,0.0,0.0,0.0,0.0,0.0,0.0,0.0,0.0,0.0,0.0,0.0,0.0,0.0,0.0,0.0,0.0,0.0,0.0,0.0,0.0,0.0,0.0,0.0,0.0,0.0,0.0,0.0,0.0,0.0,0.0,0.0,0.0,0.0,0.0,0.0,0.0,0.0,0.0,0.0,0.0,0.0,0.0,0.0,0.0,0.0,0.0,0.0,0.0,0.0,0.0,0.0,0.0,0.0,0.0,0.0,0.0,0.0,0.0,0.0,0.0,0.0,0.0,0.0,0.0,0.0,0.0,0.0,0.0,0.0,0.0,0.0,0.0,0.0,0.0,0.0,0.0,0.0,0.0,0.0,0.0,0.0,0.0,0.0,0.0,0.0,0.0,0.0,0.0,0.0,0.0,0.0,0.0,0.0,0.0,0.0,0.0,0.0,0.0,0.0,0.0,0.0,0.0,0.0,0.0,0.0,0.0,0.0,0.0,0.0,0.0,0.0,0.0,0.0,0.0,0.0,0.0,0.0,0.0,0.0,0.0,0.0,0.0,0.0,0.0,0.0,0.0,0.0,0.0,0.0,0.0,0.0,0.0,0.0,0.0,0.0,0.0,0.0,0.0,0.0,0.0,0.0,0.0,0.0,0.0,0.0,0.0,0.0,0.0,0.0,0.0,0.0,0.0,0.0,0.0,0.0,0.0,0.0,0.0,0.0,0.0,0.0,0.0,0.0,0.0,0.0,0.0,0.0,0.0,0.0,0.0,0.0,0.0,0.0,0.0,0.0,0.0,0.0,0.0,0.0,0.0,0.0,0.0,0.0,0.0,0.0,0.0,0.0,0.0,0.0,0.0,0.0,0.0,0.0,0.0,0.0,0.0,0.0,0.0,0.0,0.0,0.0,0.0,0.0,0.0,0.0,0.0,0.0,0.0,0.0,0.0,0.0,0.0,0.0,0.0,0.0,0.0,0.0,0.0,0.0,0.0,0.0,0.0,0.0,0.0,0.0,0.0,0.0,0.0,0.0,0.0,0.0,0.0,0.0,0.0,0.0,0.0,0.0,0.0,0.0,0.0,0.0,0.0,0.0,0.0,0.0,0.0,0.0,0.0,0.0,0.0,0.0,0.0,0.0,0.0,0.0,0.0,0.0,0.0,0.0,0.0,0.0,0.0,0.0,0.0,0.0,0.0,0.0,0.0,0.0,0.0,0.0,0.0,0.0,0.0,0.0,0.0,0.0,0.0,0.0,0.0,0.0,0.0,0.0,0.0,0.0,0.0,0.0,0.0,0.0,0.0,0.0,0.0,0.0,0.0,0.0,0.0,0.0,0.0,0.0,0.0,0.0,0.0,0.0,0.0,0.0,0.0,0.0,0.0,0.0,0.0,0.0,0.0,0.0,0.0,0.0,0.0,0.0,0.0,0.0,0.0,0.0,0.0,0.0,0.0,0.0,0.0,0.0,0.0,0.0,0.0,0.0,0.0,0.0,0.0,0.0,0.0,0.0,0.0,0.0,0.0,0.0,0.0,0.0,0.0,0.0,0.0,0.0,0.0,0.0,0.0,0.0,0.0,0.0,0.0,0.0,0.0,0.0,0.0,0.0,0.0,0.0,0.0,0.0,0.0,0.0,0.0,0.0,0.0,0.0,0.0,0.0,0.0,0.0,0.0,0.0,0.0,0.0,0.0,0.0,0.0,0.0,0.0,0.0,0.0,0.0,0.0,0.0,0.0,0.0,0.0,0.0,0.0,0.0,0.0,0.0,0.0,0.0,0.0,0.0,0.0,0.0,0.0,0.0,0.0,0.0,0.0,0.0,0.0,0.0,0.0,0.0,0.0,0.0,0.0,0.0,0.0,0.0,0.0,0.0,0.0,0.0,0.0,0.0,0.0,0.0,0.0,0.0,0.0,0.0,0.0,0.0,0.0,0.0,0.0,0.0,0.0,0.0,0.0,0.0,0.0,0.0,0.0,0.0,0.0,0.0,0.0,0.0,0.0,0.0,0.0,0.0,0.0,0.0,0.0,0.0,0.0,0.0,0.0,0.0,0.0,0.0,0.0,0.0,0.0,0.0,0.0,0.0,0.0,0.0,0.0,0.0,0.0,0.0,0.0,0.0,0.0,0.0,0.0,0.0,0.0,0.0,0.0,0.0,0.0,0.0,0.0,0.0,0.0,0.0,0.0,0.0,0.0,0.0,0.0,0.0,0.0,0.0,0.0,0.0,0.0,0.0,0.0,0.0,0.0,0.0,0.0,0.0,0.0,0.0,0.0,0.0,0.0,0.0,0.0,0.0,0.0,0.0,0.0,0.0,0.0,0.0,0.0,0.0,0.0,0.0,0.0,0.0,0.0,0.0,0.0,0.0,0.0,0.0,0.0,0.0,0.0,0.0,0.0,0.0,0.0,0.0,0.0,0.0,0.0,0.0,0.0,0.0,0.0,0.0,0.0,0.0,0.0,0.0,0.0,0.0,0.0,0.0,0.0,0.0,0.0,0.0,0.0,0.0,0.0,0.0,0.0,0.0,0.0,0.0,0.0,0.0,0.0,0.0,0.0,0.0,0.0,0.0,0.0,0.0,0.0,0.0,0.0,0.0,0.0,0.0,0.0,0.0,0.0,0.0,0.0,0.0,0.0,0.0,0.0,0.0,0.0,0.0,0.0,0.0,0.0,0.0,0.0,0.0,0.0,0.0,0.0,0.0,0.0,0.0,0.0,0.0,0.0,0.0,0.0,0.0,0.0,0.0,0.0,0.0,0.0,0.0,0.0,0.0,0.0,0.0,0.0,0.0,0.0,0.0,0.0,0.0,0.0,0.0,0.0,0.0,0.0,0.0,0.0,0.0,0.0,0.0,0.0,0.0,0.0,0.0,0.0,0.0,0.0,0.0,0.0,0.0,0.0,0.0,0.0,0.0,0.0,0.0,0.0,0.0,0.0,0.0,0.0,0.0,0.0,0.0,0.0,0.0,0.0,0.0,0.0,0.0,0.0,0.0,0.0,0.0,0.0,0.0,0.0,0.0,0.0,0.0,0.0,0.0,0.0,0.0,0.0,0.0,0.0,0.0,0.0,0.0,0.0,0.0,0.0,0.0,0.0,0.0,0.0,0.0,0.0,0.0,0.0,0.0,0.0,0.0,0.0,0.0,0.0,0.0,0.0,0.0,0.0,0.0,0.0,0.0,0.0,0.0,0.0,0.0,0.0,0.0,0.0,0.0,0.0,0.0,0.0,0.0,0.0,0.0,0.0,0.0,0.0,0.0,0.0,0.0,0.0,0.0,0.0,0.0,0.0,0.0,0.0,0.0,0.0,0.0,0.0,0.0,0.0,0.0,0.0,0.0,0.0,0.0,0.0,0.0,0.0,0.0,0.0,0.0,0.0,0.0,0.0,0.0,0.0,0.0,0.0,0.0,0.0,0.0,0.0,0.0,0.0,0.0,0.0,0.0,0.0,0.0,0.0,0.0,0.0,0.0,0.0,0.0,0.0,0.0,0.0,0.0,0.0,0.0,0.0,0.0,0.0,0.0,0.0,0.0,0.0,0.0,0.0,0.0,0.0,0.0,0.0,0.0,0.0,0.0,0.0,0.0,0.0,0.0,0.0,0.0,0.0,0.0,0.0,0.0,0.0,0.0,0.0,0.0,0.0,0.0,0.0,0.0,0.0,0.0,0.0,0.0,0.0,0.0,0.0,0.0,0.0,0.0,0.0,0.0,0.0,0.0,0.0,0.0,0.0,0.0,0.0,0.0,0.0,0.0,0.0,0.0,0.0,0.0,0.0,0.0,0.0,0.0,0.0,0.0,0.0,0.0,0.0,0.0,0.0,0.0,0.0,0.0,0.0,0.0,0.0,0.0,0.0,0.0,0.0,0.0,0.0,0.0,0.0,0.0,0.0,0.0,0.0,0.0,0.0,0.0,0.0,0.0,0.0,0.0,0.0,0.0,0.0,0.0,0.0,0.0,0.0,0.0,0.0,0.0,0.0,0.0,0.0,0.0,0.0,0.0,0.0,0.0,0.0,0.0,0.0,0.0,0.0,0.0,0.0,0.0,0.0,0.0,0.0,0.0,0.0,0.0,0.0,0.0,0.0,0.0,0.0,0.0,0.0,0.0,0.0,0.0,0.0,0.0,0.0,0.0,0.0,0.0,0.0,0.0,0.0,0.0,0.0,0.0,0.0,0.0,0.0,0.0,0.0,0.0,0.0,0.0,0.0,0.0,0.0,0.0,0.0,0.0,0.0,0.0,0.0,0.0,0.0,0.0,0.0,0.0,0.0,0.0,0.0,0.0,0.0,0.0,0.0,0.0,0.0,0.0,0.0,0.0,0.0,0.0,0.0,0.0,0.0,0.0,0.0,0.0,0.0,0.0,0.0,0.0,0.0,0.0,0.0,0.0,0.0,0.0,0.0,0.0,0.0,0.0,0.0,0.0,0.0,0.0,0.0,0.0,0.0,0.0,0.0,0.0,0.0,0.0,0.0,0.0,0.0,0.0,0.0,0.0,0.0,0.0,0.0,0.0,0.0,0.0,0.0,0.0,0.0,0.0,0.0,0.0,0.0,0.0,0.0,0.0,0.0,0.0,0.0,0.0,0.0,0.0,0.0,0.0,0.0,0.0,0.0,0.0,0.0,0.0,0.0,0.0,0.0,0.0,0.0,0.0,0.0,0.0,0.0,0.0,0.0,0.0,0.0,0.0,0.0,0.0,0.0,0.0,0.0,0.0,0.0,0.0,0.0,0.0,0.0,0.0,0.0,0.0,0.0,0.0,0.0,0.0,3.5282,3.4832,0.0,0.0,0.0,0.0,0.0,0.0,0.0,0.0,0.0,0.0,0.0,0.0,0.0,0.0,0.0,0.0,0.0,0.0,0.0,0.0,0.0,0.0,0.0,0.0,0.0,0.0,0.0,0.0,0.0,0.0,0.0,0.0,0.0,0.0,0.0,0.0,0.0,0.0,0.0,0.0,0.0,0.0,0.0,0.0,0.0,0.0,0.0,0.0,0.0,0.0,0.0,0.0,0.0,0.0,0.0,0.0,0.0,0.0,0.0,0.0,0.0,0.0,0.0,0.0,0.0,0.0,0.0,0.0,0.0,0.0,0.0,0.0,0.0,0.0,0.0,0.0,0.0,0.0,0.0,0.0,0.0,0.0,0.0,0.0,0.0,0.0,0.0,0.0,0.0,0.0,0.0,0.0,0.0,0.0,0.0,0.0,0.0,0.0,0.0,0.0,0.0,0.0,0.0,0.0,0.0,0.0,0.0,0.0,0.0,0.0,0.0,0.0,0.0,0.0,3.4742,3.4636,0.0,0.0,0.0,0.0,0.0,0.0,0.0,0.0,0.0,0.0,0.0,0.0,0.0,0.0,0.0,0.0,0.0,0.0,0.0,0.0,0.0,0.0,0.0,0.0,0.0,0.0,0.0,0.0,0.0,0.0,0.0,0.0,0.0,0.0,0.0,0.0,0.0,0.0,0.0,0.0,0.0,0.0,0.0,0.0,0.0,0.0,0.0,0.0,0.0,0.0,0.0,0.0,0.0,0.0,0.0,0.0,0.0,0.0,0.0,0.0,0.0,0.0,0.0,0.0,0.0,0.0,0.0,0.0,0.0,0.0,0.0,0.0,0.0,0.0,0.0,0.0,0.0,0.0,0.0,0.0,0.0,0.0,0.0,0.0,0.0,0.0,0.0,0.0,0.0,0.0,0.0,0.0,0.0,0.0,0.0,0.0,0.0,0.0,0.0,0.0,0.0,0.0,0.0,0.0,0.0,0.0,0.0,0.0,3.5272,3.504,3.4889,3.4414,3.4238,3.43,3.43,3.4616,3.4889,3.4497,0.0,0.0,0.0,0.0,0.0,0.0,0.0,0.0,0.0,0.0,0.0,0.0,0.0,0.0,0.0,0.0,0.0,0.0,0.0,0.0,0.0,0.0,0.0,0.0,0.0,0.0,0.0,0.0,0.0,0.0,0.0,0.0,0.0,0.0,0.0,0.0,0.0,0.0,0.0,0.0,0.0,0.0,0.0,0.0,0.0,0.0,0.0,0.0,0.0,0.0,0.0,0.0,0.0,0.0,0.0,0.0,0.0,0.0,0.0,0.0,0.0,0.0,0.0,0.0,0.0,0.0,0.0,0.0,0.0,0.0,0.0,0.0,0.0,0.0,0.0,0.0,0.0,0.0,0.0,0.0,0.0,0.0,0.0,0.0,0.0,0.0,3.6991,3.6287,0.0,0.0,0.0,0.0,0.0,0.0,0.0,0.0,0.0,0.0,0.0,0.0,0.0,3.6769,3.6679,3.67,3.6192,3.5146,3.5093,3.4994,3.4793,3.4793,3.4879,3.5252,3.5252,0.0,3.4814,3.5086,0.0,0.0,0.0,0.0,0.0,0.0,0.0,0.0,0.0,0.0,0.0,0.0,0.0,0.0,0.0,0.0,0.0,0.0,0.0,0.0,0.0,0.0,0.0,0.0,0.0,0.0,0.0,0.0,0.0,0.0,0.0,0.0,0.0,0.0,0.0,0.0,0.0,0.0,0.0,0.0,0.0,0.0,0.0,0.0,0.0,0.0,0.0,0.0,0.0,0.0,0.0,0.0,0.0,0.0,0.0,0.0,0.0,0.0,0.0,0.0,0.0,0.0,0.0,0.0,0.0,0.0,0.0,0.0,0.0,0.0,0.0,0.0,0.0,0.0,0.0,0.0,0.0,0.0,0.0,0.0,0.0,0.0,0.0,0.0,0.0,3.6871,3.6688,3.6386,3.6277,3.6277,0.0,0.0,0.0,0.0,0.0,0.0,0.0,0.0,0.0,3.6884,3.6884,3.6655,3.628,3.5932,3.5617,3.5401,3.5044,3.4935,3.5128,3.5128,3.5231,3.5418,3.5418,3.5314,3.5148,3.5335,3.5418,3.5418,0.0,0.0,0.0,0.0,3.5976,3.6183,0.0,0.0,0.0,0.0,0.0,0.0,0.0,0.0,0.0,0.0,0.0,0.0,0.0,0.0,0.0,3.7625,0.0,0.0,0.0,0.0,0.0,0.0,0.0,0.0,0.0,0.0,0.0,0.0,0.0,0.0,0.0,0.0,0.0,0.0,0.0,0.0,0.0,0.0,4.4425,0.0,0.0,0.0,0.0,0.0,0.0,0.0,0.0,0.0,0.0,0.0,0.0,0.0,0.0,0.0,0.0,0.0,0.0,0.0,0.0,0.0,0.0,0.0,0.0,0.0,0.0,0.0,0.0,0.0,0.0,0.0,0.0,0.0,0.0,0.0,0.0,0.0,0.0,3.6277,3.6277,3.6277,3.6392,3.6461,0.0,0.0,0.0,0.0,0.0,0.0,3.7543,3.7565,3.7268,3.6827,3.6578,3.6346,3.5895,3.5425,3.524,3.548,3.5123,3.5107,3.5418,3.5418,3.548,3.5604,3.5604,3.5666,3.5769,3.5645,3.5604,3.5604,3.5728,3.5976,3.6266,3.6163,3.6328,3.6597,0.0,0.0,0.0,0.0,0.0,0.0,0.0,0.0,0.0,0.0,0.0,0.0,0.0,0.0,3.7007,3.7035,3.7035,3.7035,0.0,0.0,0.0,0.0,0.0,0.0,0.0,0.0,0.0,0.0,0.0,0.0,0.0,0.0,0.0,0.0,0.0,0.0,0.0,0.0,4.4425,4.4425,0.0,0.0,0.0,0.0,0.0,0.0,0.0,0.0,0.0,0.0,0.0,0.0,0.0,0.0,0.0,0.0,0.0,0.0,0.0,0.0,0.0,0.0,0.0,0.0,0.0,0.0,0.0,0.0,0.0,0.0,0.0,0.0,0.0,0.0,0.0,0.0,0.0,0.0,0.0,3.6277,3.6691,0.0,0.0,0.0,0.0,3.7747,3.7747,3.752,3.6857,3.6857,3.6733,3.661,3.6173,3.5917,3.5678,3.5678,3.5339,3.4876,3.519,3.5397,3.5418,3.5418,3.5666,3.608,3.608,3.6328,3.6701,3.6266,3.608,3.6121,3.6556,3.6742,3.6722,3.6266,3.6121,3.6204,0.0,0.0,0.0,0.0,0.0,0.0,0.0,0.0,0.0,0.0,0.0,0.0,0.0,3.6978,3.6978,3.6978,3.6978,3.6978,3.6978,0.0,0.0,0.0,0.0,0.0,0.0,0.0,0.0,0.0,0.0,0.0,0.0,0.0,0.0,0.0,0.0,0.0,0.0,0.0,4.4425,4.4425,4.4425,4.4303,0.0,0.0,0.0,0.0,0.0,0.0,0.0,0.0,0.0,0.0,0.0,0.0,0.0,0.0,0.0,0.0,0.0,0.0,0.0,0.0,0.0,0.0,0.0,0.0,0.0,0.0,0.0,0.0,0.0,0.0,0.0,0.0,0.0,0.0,0.0,0.0,0.0,3.7242,3.7402,0.0,3.7517,3.7678,3.793,3.8275,3.8298,3.8204,3.7798,3.7529,3.6971,3.6058,3.5607,3.5231,3.5118,3.4826,3.4852,3.519,3.5335,3.5583,3.5873,3.6183,3.639,3.6556,3.6556,3.6473,3.637,3.6494,3.639,3.6121,3.6287,3.6535,3.6784,3.6618,3.6929,3.7425,0.0,0.0,0.0,0.0,0.0,0.0,0.0,0.0,0.0,0.0,0.0,3.6978,3.6978,3.6978,3.6978,3.6978,3.6978,3.6978,3.6978,0.0,0.0,0.0,0.0,0.0,0.0,0.0,0.0,0.0,0.0,0.0,0.0,0.0,0.0,0.0,0.0,0.0,0.0,0.0,4.4425,4.4425,4.4425,4.4209,4.3804,0.0,0.0,0.0,0.0,0.0,0.0,0.0,0.0,0.0,0.0,0.0,0.0,0.0,0.0,0.0,0.0,0.0,0.0,0.0,0.0,0.0,0.0,0.0,0.0,0.0,0.0,0.0,0.0,0.0,0.0,0.0,0.0,0.0,0.0,0.0,3.7793,3.7793,3.7953,3.8045,3.8045,3.7976,3.8088,3.8453,3.8199,3.7753,3.7471,3.7052,3.6382,3.548,3.5044,3.5008,3.4983,3.4838,3.5066,3.5645,3.5811,3.6059,3.6349,3.666,3.6887,3.7032,3.6867,3.6722,3.6597,3.6908,3.6763,3.637,3.6515,3.6763,3.7032,3.7032,3.7164,3.735,0.0,0.0,0.0,0.0,0.0,0.0,0.0,0.0,0.0,0.0,3.6978,3.6978,3.6978,3.6978,3.6978,3.6978,3.6978,3.6978,3.6978,3.754,0.0,0.0,0.0,0.0,0.0,0.0,0.0,0.0,0.0,0.0,0.0,0.0,0.0,0.0,0.0,0.0,0.0,0.0,4.4425,4.4425,4.4425,4.3832,4.29,0.0,0.0,0.0,0.0,0.0,0.0,0.0,0.0,0.0,0.0,0.0,0.0,0.0,0.0,0.0,0.0,0.0,0.0,0.0,0.0,0.0,0.0,0.0,0.0,0.0,0.0,0.0,0.0,0.0,0.0,0.0,0.0,0.0,3.7885,3.7816,3.7839,3.7839,3.8298,3.8596,3.8596,3.8422,3.8335,3.8313,3.7251,3.6394,3.5721,3.5274,3.5015,3.4755,3.4776,3.4983,3.5438,3.5894,3.6121,3.6142,3.6597,3.6825,3.6825,3.6825,3.7074,3.7467,3.7011,3.7053,3.7467,3.7467,3.7198,3.6846,3.7322,3.7488,3.7488,3.7488,3.6679,3.5599,0.0,0.0,0.0,0.0,0.0,0.0,0.0,0.0,0.0,0.0,3.6978,3.6978,3.6978,3.6978,3.6978,3.6978,3.6978,3.6978,3.6978,0.0,0.0,0.0,0.0,0.0,0.0,0.0,0.0,0.0,0.0,0.0,0.0,0.0,0.0,0.0,0.0,0.0,0.0,4.4425,4.4425,4.4425,4.4425,4.4021,4.3328,0.0,0.0,0.0,0.0,0.0,0.0,0.0,0.0,0.0,0.0,0.0,0.0,0.0,0.0,0.0,0.0,0.0,0.0,0.0,0.0,0.0,0.0,0.0,0.0,0.0,0.0,0.0,0.0,0.0,0.0,0.0,0.0,3.8941,3.8436,3.8665,3.8895,3.8895,3.901,3.9101,3.9101,3.8801,3.8313,3.7938,3.7233,3.6516,3.5699,3.5593,3.536,3.5231,3.5252,3.5459,3.5914,3.6059,3.6287,3.6618,3.7094,3.7301,3.7301,3.7301,3.7384,3.7467,3.7011,3.6887,3.6991,3.6991,3.6908,3.6846,3.7322,3.7488,3.7357,3.6547,3.5795,3.5103,0.0,0.0,0.0,0.0,0.0,0.0,0.0,0.0,0.0,0.0,3.6978,3.6978,3.6978,3.6978,3.6978,3.6978,3.6978,3.7091,3.7344,0.0,0.0,0.0,0.0,0.0,0.0,0.0,0.0,0.0,0.0,0.0,0.0,0.0,0.0,0.0,0.0,0.0,0.0,4.3919,4.4031,4.4059,4.4312,4.3926,4.3232,4.297,4.2387,4.1696,4.1398,4.1324,4.1324,4.1324,0.0,0.0,0.0,0.0,0.0,0.0,0.0,0.0,0.0,0.0,0.0,0.0,0.0,0.0,0.0,0.0,0.0,0.0,0.0,0.0,0.0,0.0,0.0,0.0,3.9308,3.9193,3.8918,3.9124,3.9308,3.9308,3.9124,3.901,3.901,3.8501,3.7969,3.7266,3.6743,3.6199,3.5613,3.5465,3.5411,3.5687,3.5894,3.6225,3.668,3.6701,3.6825,3.7094,3.7177,3.7198,3.7198,3.7198,3.7198,3.7198,3.6929,3.6804,3.6825,3.7011,3.6814,3.6445,0.0,0.0,0.0,0.0,3.452,3.4176,0.0,0.0,0.0,0.0,0.0,0.0,0.0,0.0,0.0,0.0,0.0,3.6978,3.6978,3.6978,3.6978,3.6978,3.6978,3.7316,0.0,0.0,0.0,0.0,0.0,0.0,0.0,0.0,0.0,0.0,0.0,0.0,0.0,0.0,0.0,0.0,0.0,0.0,4.2626,4.316,4.3385,4.3441,4.3975,4.3721,4.297,4.297,4.2262,4.1319,4.1319,4.1167,4.1115,4.1115,0.0,0.0,0.0,0.0,0.0,0.0,0.0,0.0,0.0,0.0,0.0,0.0,0.0,0.0,0.0,0.0,0.0,0.0,0.0,0.0,0.0,0.0,0.0,0.0,3.9262,3.9216,3.9216,3.917,3.9147,3.9216,3.8849,3.8596,3.8596,3.7969,3.7361,3.6653,3.608,3.5549,3.5397,0.0,0.0,0.0,0.0,3.7053,3.7405,3.7425,3.7425,3.7405,3.6991,3.6804,3.6804,3.6742,3.6722,3.6722,3.6593,3.6614,3.6697,3.704,3.6567,3.5791,3.676,3.6475,3.5296,3.3771,3.3067,3.2945,0.0,0.0,0.0,0.0,0.0,0.0,0.0,0.0,0.0,3.6978,3.6978,3.6978,3.6978,3.6978,3.6978,3.6978,3.6978,3.7681,0.0,0.0,0.0,0.0,0.0,0.0,0.0,0.0,0.0,0.0,0.0,0.0,0.0,0.0,0.0,0.0,0.0,0.0,4.2598,4.2711,4.2767,4.2767,4.2879,4.3129,4.3423,4.3423,4.2548,4.1179,4.1179,4.0694,3.9939,3.9939,3.9939,3.9842,3.9107,0.0,0.0,0.0,0.0,0.0,0.0,0.0,0.0,0.0,0.0,0.0,0.0,0.0,0.0,0.0,0.0,0.0,0.0,0.0,0.0,3.9308,3.8987,3.8734,3.8734,3.8344,3.8252,3.8665,3.8642,3.8596,3.8596,3.7969,3.7361,3.6772,3.6058,3.5549,3.5397,3.6039,3.6494,3.666,3.7115,3.7218,3.6949,3.6929,3.6929,3.6929,3.6846,0.0,3.6784,3.6411,3.6246,3.6246,3.5335,3.5151,3.5511,3.5023,3.4989,3.516,3.5297,3.4751,3.3651,3.3309,3.2666,3.1841,0.0,0.0,0.0,0.0,0.0,0.0,0.0,0.0,0.0,0.0,3.6978,3.6978,3.6978,3.6978,3.6978,3.6978,3.785,0.0,0.0,0.0,0.0,0.0,0.0,0.0,0.0,0.0,0.0,0.0,0.0,0.0,0.0,0.0,0.0,0.0,0.0,4.1643,4.1671,4.1952,4.2093,4.2121,4.2458,4.2845,4.3009,4.2516,4.1504,4.0403,4.0403,4.0027,3.9599,3.9599,3.9599,3.9555,3.9401,3.929,3.9121,0.0,0.0,0.0,0.0,0.0,0.0,0.0,0.0,0.0,0.0,0.0,0.0,0.0,0.0,3.9308,0.0,0.0,3.8941,3.8941,3.8527,3.8183,3.8183,3.7953,3.7976,3.8527,3.8344,3.8298,3.855,3.7969,3.7473,3.7003,3.666,3.6244,3.608,3.6556,3.6804,3.6804,3.7032,3.7032,3.6804,3.6577,3.6453,3.6453,3.6225,3.6121,3.6101,3.5371,3.5118,3.5214,3.4407,3.4347,3.4641,3.3984,3.3853,3.4038,3.3502,3.3224,3.3067,3.2666,3.2123,3.1559,0.0,0.0,0.0,0.0,0.0,0.0,0.0,0.0,0.0,0.0,0.0,3.6978,3.6978,3.7091,3.7259,0.0,0.0,0.0,0.0,0.0,0.0,0.0,0.0,0.0,0.0,0.0,0.0,0.0,0.0,0.0,0.0,0.0,0.0,0.0,4.0688,4.0688,4.0716,4.1221,4.1446,4.1474,4.2008,4.2205,4.2027,4.1187,4.0441,3.9728,3.9728,3.9554,3.9285,3.9285,3.9285,3.9364,3.9913,3.9659,3.9271,3.9371,3.9091,0.0,0.0,0.0,0.0,0.0,0.0,0.0,0.0,0.0,3.9308,3.9308,3.9239,3.917,3.917,3.8757,3.8436,3.8436,3.7976,3.7678,3.777,3.7701,3.7885,3.8504,3.8206,3.8114,3.855,3.8033,3.7546,3.7374,3.7181,3.6876,3.666,3.6763,3.6763,3.668,3.666,3.6618,3.6535,3.6163,3.5976,3.5976,3.5604,3.5294,3.5046,3.4378,3.4112,3.4191,3.3671,3.3438,3.3712,3.308,3.2927,3.2788,3.1982,3.2105,3.2788,3.1982,3.1559,3.1559,0.0,0.0,0.0,0.0,0.0,0.0,0.0,0.0,0.0,0.0,0.0,0.0,0.0,0.0,0.0,0.0,0.0,0.0,0.0,0.0,0.0,0.0,0.0,0.0,0.0,0.0,0.0,0.0,0.0,0.0,0.0,0.0,0.0,4.0688,4.0688,4.0688,4.0688,4.0772,4.08,4.08,4.0884,4.0653,4.0304,4.0217,4.0103,4.0113,4.0113,3.9241,3.8083,3.8083,3.8083,3.8187,3.8736,3.9164,3.9427,3.8985,0.0,3.9806,3.8803,3.8849,0.0,3.9285,3.9308,3.9308,0.0,0.0,3.9308,3.9308,3.8964,3.8665,3.8665,3.8229,3.7885,3.7885,3.7448,3.7288,3.7724,3.7402,3.7494,3.8459,3.8527,3.8527,3.8573,3.8305,3.7911,3.7418,3.6981,3.6704,3.6204,3.6577,3.6618,3.6204,3.6183,3.5997,3.5583,3.5521,3.55,3.55,3.5438,3.4922,3.4067,3.4318,3.3984,3.3047,3.2753,3.2361,3.1913,3.1824,3.1841,3.17,3.17,3.17,3.17,3.17,3.1559,3.1559,0.0,0.0,0.0,0.0,0.0,0.0,0.0,0.0,0.0,0.0,0.0,0.0,0.0,0.0,0.0,0.0,0.0,0.0,0.0,0.0,0.0,0.0,0.0,0.0,0.0,0.0,0.0,0.0,0.0,0.0,0.0,0.0,4.1053,4.0688,4.0688,4.0688,4.0688,4.0688,4.0688,4.0688,4.0688,4.0602,4.043,4.043,4.0249,4.0028,3.9761,3.9087,0.0,0.0,3.8175,3.8057,3.8945,3.9239,3.9369,3.9544,3.9831,0.0,3.9198,0.0,0.0,0.0,3.9308,3.9308,3.9308,3.9308,3.9216,3.8941,3.8734,3.8481,3.8183,3.7701,3.7356,0.0,3.7173,3.7104,3.7311,3.7678,3.8091,3.8527,3.8826,3.901,3.901,3.8545,3.8188,3.8376,3.7438,3.6834,3.6624,3.6561,3.6183,3.5728,3.5707,3.5625,3.5418,3.5418,3.5046,3.4548,3.4548,3.4047,3.3038,3.28,3.2353,3.1773,3.1911,3.1826,3.1559,3.1559,3.1559,3.1559,3.1559,3.1559,3.1559,3.1559,3.1559,3.1559,0.0,0.0,0.0,0.0,0.0,0.0,0.0,0.0,0.0,0.0,0.0,0.0,0.0,0.0,0.0,0.0,0.0,0.0,0.0,0.0,0.0,0.0,0.0,0.0,0.0,0.0,0.0,0.0,0.0,0.0,0.0,0.0,4.1643,4.1221,4.1221,4.1221,4.1221,4.1221,4.1109,4.094,4.094,4.0856,4.0688,4.0688,4.0516,4.0083,3.9645,3.9203,0.0,0.0,3.8436,3.8411,3.918,3.9415,3.9448,4.0035,3.989,3.9614,3.9311,0.0,0.0,3.9308,3.9308,3.9262,3.9147,3.9101,3.8964,3.8459,3.8252,3.8045,3.7655,3.7173,3.6874,3.7012,3.7035,3.7127,3.7425,3.8114,3.8642,3.8757,3.9078,3.9308,3.9308,3.8829,3.8627,3.8828,3.7906,3.7185,3.6933,3.6436,3.5894,3.5438,3.517,3.517,3.5418,3.4797,3.4278,3.3922,3.367,3.295,3.2059,3.1529,3.1213,3.1183,3.1456,3.1559,3.1559,3.1559,3.1559,3.1559,3.1559,3.1559,3.1559,3.1559,3.1559,3.1559,0.0,0.0,0.0,0.0,0.0,0.0,0.0,0.0,0.0,0.0,0.0,0.0,0.0,0.0,0.0,0.0,0.0,0.0,0.0,0.0,0.0,0.0,0.0,0.0,0.0,0.0,0.0,0.0,0.0,0.0,0.0,4.2851,4.2542,4.2514,4.2514,4.2514,4.2514,4.2514,4.2177,4.1587,4.1587,4.1221,4.0688,4.0688,4.0688,4.0602,4.017,0.0,0.0,0.0,3.8948,3.9336,3.9137,3.9474,0.0,3.9826,3.9545,0.0,0.0,0.0,3.9308,3.9308,3.9308,3.917,3.8711,3.8596,3.8459,3.793,3.7425,3.7081,3.7058,3.6645,3.6461,3.6943,3.7035,3.7379,3.839,3.8573,3.8757,3.9216,3.9285,3.9308,0.0,3.9123,3.8851,3.8403,3.8199,3.753,3.6465,3.6444,3.6055,3.5418,3.4423,3.4423,3.5418,3.3524,3.3019,3.3922,3.2892,3.2078,3.1439,3.1181,3.1183,3.1542,3.1559,3.1559,3.1559,3.1559,3.1559,3.1559,3.1559,3.1559,3.1559,3.1559,3.1559,3.1559,0.0,0.0,0.0,0.0,0.0,0.0,0.0,0.0,0.0,0.0,0.0,0.0,0.0,0.0,0.0,0.0,0.0,0.0,0.0,0.0,0.0,0.0,0.0,0.0,0.0,0.0,0.0,0.0,0.0,0.0,4.3497,4.3273,4.2964,4.257,4.257,4.257,4.257,4.257,4.2458,4.2205,4.1783,4.1502,4.125,4.0856,4.0688,4.0688,0.0,0.0,0.0,0.0,0.0,0.0,3.8166,0.0,0.0,3.938,0.0,0.0,0.0,0.0,3.9308,3.9308,3.9308,3.917,3.8688,3.8596,3.8344,3.7471,3.715,3.7035,3.7035,3.6622,3.6553,3.7402,3.754,3.777,3.8481,3.8872,3.9124,3.9285,3.9308,0.0,0.0,0.0,0.0,3.8953,3.8492,3.8033,3.7637,3.7253,3.6524,3.5397,3.5025,3.4652,3.4047,3.3418,3.2919,3.2561,3.1511,3.105,3.1181,3.1029,3.1217,3.1559,3.1559,3.1559,3.1559,3.1559,3.1559,3.1559,3.1559,3.1559,3.1559,3.1559,3.1559,3.1559,0.0,0.0,0.0,0.0,0.0,0.0,0.0,0.0,0.0,0.0,0.0,0.0,0.0,0.0,0.0,0.0,0.0,0.0,0.0,0.0,0.0,0.0,0.0,0.0,0.0,0.0,0.0,0.0,0.0,4.42,4.3835,4.3835,4.361,4.3245,4.3245,4.3245,4.3245,4.3245,4.3245,4.316,4.2289,4.1952,4.1868,4.1025,4.0688,0.0,0.0,0.0,0.0,0.0,0.0,0.0,0.0,0.0,0.0,0.0,0.0,0.0,0.0,3.9308,3.9308,3.9308,3.917,3.8918,3.8413,3.816,3.7793,3.6943,3.6759,3.6759,3.6759,3.6484,3.6599,3.7632,3.7793,3.8045,3.8734,3.9101,3.9308,3.9308,3.9308,3.9308,0.0,0.0,0.0,3.9308,3.8455,3.8096,3.8358,3.6989,3.5992,3.5376,3.4632,3.3902,3.3418,3.281,3.232,3.1824,3.1261,3.1047,3.115,3.1288,3.1477,3.1559,3.1559,3.1559,3.1559,3.1559,3.1559,3.1559,3.1559,3.1559,3.1559,3.1559,3.1559,3.1559,0.0,0.0,0.0,0.0,0.0,0.0,0.0,0.0,0.0,0.0,0.0,0.0,0.0,0.0,0.0,0.0,0.0,0.0,0.0,0.0,0.0,0.0,0.0,0.0,0.0,0.0,0.0,0.0,0.0,4.4425,4.4425,4.4425,4.4425,4.4425,4.4425,4.4425,4.4425,4.4425,4.4425,4.4312,4.3104,4.2598,4.2458,4.125,0.0,0.0,0.0,0.0,0.0,0.0,0.0,0.0,0.0,0.0,0.0,0.0,0.0,3.9308,3.9308,3.9308,3.9308,3.9308,3.8941,3.8459,3.7907,3.7402,3.6897,3.6369,3.6277,3.6277,0.0,0.0,3.6622,3.7655,3.7793,3.8137,3.917,3.9308,3.9308,0.0,0.0,0.0,0.0,0.0,0.0,3.9049,0.0,3.7572,3.8096,3.5746,3.4757,3.5253,3.3126,3.2403,3.333,3.1836,3.1328,3.1719,3.1957,3.1996,3.1617,3.1948,3.1982,3.17,3.1559,3.1559,3.1559,3.1559,3.1559,3.1559,3.1559,3.1559,3.1559,3.1559,3.1559,3.1559,0.0,0.0,0.0,0.0,0.0,0.0,0.0,0.0,0.0,0.0,0.0,0.0,0.0,0.0,0.0,0.0,0.0,0.0,0.0,0.0,0.0,0.0,0.0,0.0,0.0,0.0,0.0,0.0,0.0,4.4425,4.4425,4.4425,4.4425,4.4425,4.4425,4.4425,4.4425,4.4425,4.4425,4.434,0.0,4.2992,4.2542,0.0,0.0,0.0,0.0,0.0,0.0,0.0,0.0,0.0,0.0,0.0,3.9452,0.0,0.0,3.9684,3.9426,3.9308,3.9308,3.9308,3.8941,3.8459,3.7907,3.7402,3.6897,3.6369,3.6277,3.6392,0.0,0.0,0.0,3.816,3.8045,0.0,3.917,3.9308,0.0,0.0,0.0,3.893,3.7932,3.779,0.0,0.0,3.6946,3.6946,3.6237,3.55,3.4757,3.3882,3.3379,3.2791,3.2357,3.2266,3.2259,3.2366,3.2503,3.256,3.242,3.2526,3.2561,3.2421,3.2123,3.1965,3.1965,3.17,3.1559,3.1559,3.1559,3.1559,3.1559,3.1559,3.1559,3.1559,0.0,0.0,0.0,0.0,0.0,0.0,0.0,0.0,0.0,0.0,0.0,0.0,0.0,0.0,0.0,0.0,0.0,0.0,0.0,0.0,0.0,0.0,0.0,0.0,0.0,0.0,0.0,0.0,0.0,0.0,0.0,4.4425,4.4425,4.4425,4.4425,4.4425,4.4425,4.4425,0.0,0.0,0.0,0.0,0.0,0.0,0.0,0.0,0.0,0.0,0.0,0.0,0.0,3.821,3.831,3.8823,3.9302,3.9286,0.0,3.9616,3.9709,3.9638,3.9592,3.9267,3.8828,3.8343,3.7586,3.7058,3.6622,3.6323,3.6277,0.0,0.0,0.0,0.0,0.0,0.0,0.0,3.917,3.9308,3.9308,0.0,3.9308,0.0,3.8291,3.767,3.6824,0.0,3.5479,3.5479,3.5376,3.4258,3.3631,3.3379,3.2873,3.2429,3.2258,3.2611,3.3011,3.3175,3.3152,3.3121,3.2999,3.2999,3.2859,3.2701,3.2403,3.2403,3.2403,3.2123,3.1982,3.1841,3.1841,3.17,3.1559,3.1559,3.1559,3.1559,0.0,0.0,0.0,0.0,0.0,0.0,0.0,0.0,0.0,0.0,0.0,0.0,0.0,0.0,0.0,0.0,0.0,0.0,0.0,0.0,0.0,0.0,0.0,0.0,0.0,0.0,0.0,0.0,0.0,0.0,0.0,0.0,0.0,0.0,0.0,0.0,0.0,0.0,0.0,0.0,0.0,0.0,0.0,0.0,0.0,0.0,0.0,0.0,0.0,0.0,3.8994,3.9191,3.9059,3.8956,3.9022,3.9231,3.9353,3.9541,4.0011,4.0176,3.9989,3.9313,3.8687,3.8152,3.7353,3.6691,3.6277,3.6277,0.0,3.6277,3.6277,3.6277,3.6576,3.754,0.0,3.8114,3.9078,3.9262,3.9308,3.9308,3.9308,3.919,3.8812,3.7692,3.646,3.5005,3.3757,3.3631,3.4757,3.2619,3.191,3.3223,3.2132,3.1909,3.268,3.3101,3.3468,3.3817,3.3817,3.3678,3.3418,3.3418,3.3139,3.2841,3.2841,3.2841,3.2841,3.2701,3.2561,3.2105,3.2105,3.1982,3.17,3.1559,3.1559,3.1559,0.0,0.0,0.0,0.0,0.0,0.0,0.0,0.0,0.0,0.0,3.897,3.9766,0.0,0.0,0.0,0.0,0.0,0.0,0.0,0.0,0.0,0.0,0.0,0.0,0.0,0.0,0.0,0.0,0.0,0.0,0.0,0.0,0.0,0.0,0.0,0.0,0.0,0.0,0.0,0.0,0.0,0.0,0.0,0.0,0.0,0.0,0.0,0.0,0.0,0.0,3.8758,3.8216,3.8591,3.8466,3.8251,3.8476,3.9125,3.9812,3.9703,3.9917,4.0199,3.9989,3.9171,3.8245,3.8152,3.7165,0.0,0.0,3.6277,3.6277,3.6277,3.6277,0.0,3.7058,0.0,0.0,0.0,0.0,3.9308,0.0,0.0,0.0,0.0,0.0,0.0,0.0,0.0,3.1873,3.2128,3.1635,3.1672,3.2264,3.2335,3.2625,3.3101,3.3505,3.3743,3.3817,3.3817,3.3817,3.3678,3.3678,3.3678,3.3539,3.326,3.3139,3.3121,3.2841,3.2701,3.2561,3.2263,3.2105,3.1965,3.17,3.1559,3.1559,0.0,0.0,0.0,0.0,0.0,0.0,0.0,3.6684,3.7057,3.7057,3.7402,3.8043,3.906,3.9176,3.9414,0.0,0.0,0.0,0.0,0.0,0.0,0.0,0.0,0.0,0.0,0.0,0.0,0.0,0.0,0.0,0.0,0.0,0.0,0.0,0.0,0.0,0.0,0.0,0.0,0.0,0.0,0.0,0.0,0.0,0.0,0.0,0.0,0.0,0.0,0.0,3.8057,3.7588,3.8426,3.8316,3.7976,3.7781,3.8096,3.867,3.9308,3.9712,3.995,4.0121,3.9396,3.8648,3.8032,0.0,0.0,0.0,3.6277,3.6277,3.6277,3.6277,0.0,0.0,0.0,0.0,0.0,0.0,0.0,0.0,0.0,0.0,0.0,0.0,0.0,0.0,3.1744,3.1377,3.1377,3.1377,3.1579,3.2001,3.2386,3.279,3.323,3.3615,3.3817,3.3817,3.3817,3.3817,3.3817,3.3817,3.3817,3.3817,3.3678,3.3539,3.3539,3.34,3.3121,3.2981,3.2841,3.2403,3.2105,3.1982,3.17,3.1593,0.0,0.0,0.0,0.0,0.0,0.0,0.0,3.5475,3.5953,3.5953,3.5953,3.6332,3.7057,3.752,3.8069,0.0,0.0,0.0,0.0,0.0,0.0,0.0,0.0,0.0,0.0,0.0,0.0,4.4425,4.4425,0.0,0.0,0.0,0.0,0.0,4.4425,4.4425,0.0,0.0,0.0,0.0,0.0,4.4425,0.0,0.0,0.0,0.0,0.0,0.0,0.0,0.0,3.7686,3.7207,3.7869,3.782,3.732,3.7073,3.7108,3.7469,3.8743,3.9272,3.9426,3.9722,3.9396,3.8769,3.7903,3.7193,0.0,0.0,3.6386,3.6277,3.6277,3.6277,0.0,0.0,0.0,0.0,0.0,0.0,0.0,0.0,0.0,0.0,0.0,0.0,0.0,0.0,3.2001,3.1377,3.1377,3.1377,3.1616,3.2111,3.2441,3.2845,3.334,3.3651,3.3817,3.3817,3.3817,3.3817,3.3817,3.3817,3.3817,3.3817,3.3817,3.3817,3.3817,3.3817,3.3678,3.34,3.3278,3.2841,3.2263,3.2105,3.1893,3.173,0.0,0.0,0.0,0.0,0.0,0.0,0.0,3.492,3.492,3.492,3.492,3.5017,3.5114,3.6684,3.7795,0.0,0.0,0.0,0.0,0.0,0.0,0.0,0.0,0.0,0.0,0.0,0.0,4.4425,4.4425,0.0,0.0,0.0,0.0,0.0,0.0,4.4425,4.4425,0.0,0.0,0.0,0.0,0.0,0.0,0.0,0.0,0.0,0.0,0.0,0.0,0.0,0.0,3.7061,3.6653,3.6207,3.5885,3.6314,0.0,0.0,3.7372,3.8142,3.8912,3.896,3.8694,3.8452,3.838,0.0,0.0,3.6712,3.6495,3.6277,3.6277,3.6277,3.6277,0.0,0.0,3.6816,0.0,0.0,0.0,0.0,0.0,0.0,0.0,0.0,0.0,0.0,3.1506,3.1377,3.1377,3.1377,3.1744,3.2514,3.257,3.2973,3.3743,3.3798,3.3817,3.3817,3.3817,3.3817,3.3817,3.3817,3.3817,3.3817,3.3817,3.3817,3.3817,3.3817,3.3817,3.3678,3.34,3.2981,3.2561,3.2263,3.2049,3.209,0.0,0.0,0.0,0.0,0.0,0.0,3.4823,3.4823,3.4823,3.4823,3.4823,3.4823,3.4823,3.5475,3.6213,3.6871,0.0,0.0,0.0,0.0,0.0,0.0,0.0,0.0,0.0,0.0,4.3396,4.3396,4.4115,0.0,0.0,0.0,0.0,0.0,0.0,4.3804,4.4425,0.0,0.0,0.0,0.0,0.0,0.0,0.0,0.0,0.0,0.0,0.0,0.0,0.0,0.0,0.0,3.5648,3.526,0.0,0.0,3.5617,3.5905,3.6555,3.7036,3.7589,3.8575,3.8203,3.7785,3.8346,0.0,3.6767,3.675,3.6603,3.6495,3.6386,3.6277,3.6277,3.6277,3.6691,0.0,0.0,0.0,0.0,0.0,0.0,0.0,0.0,0.0,0.0,0.0,3.1377,3.1377,3.1377,3.1377,3.1744,3.257,3.2588,3.2991,3.3798,3.3817,3.3817,3.3817,3.3817,3.3817,3.3817,3.3817,3.3817,3.3817,3.3817,3.3817,3.3817,3.3817,3.3817,3.3817,3.3678,3.326,3.2737,3.2809,3.2576,3.2193,0.0,0.0,0.0,0.0,0.0,3.4823,3.4823,3.4823,3.4823,3.4823,3.4823,3.4823,3.4823,3.4823,3.5114,3.5763,3.5211,0.0,0.0,0.0,0.0,0.0,0.0,0.0,0.0,0.0,4.2306,4.2306,4.3108,4.3108,0.0,0.0,4.2695,4.3423,0.0,0.0,0.0,0.0,0.0,0.0,0.0,0.0,0.0,0.0,0.0,0.0,0.0,0.0,0.0,0.0,0.0,0.0,0.0,0.0,0.0,0.0,3.4823,3.4992,3.5737,3.605,3.6459,3.7589,3.7421,3.7156,0.0,3.7345,3.6801,3.6731,3.6703,3.658,3.6495,3.6386,3.6277,3.6277,3.6576,3.6878,0.0,0.0,0.0,0.0,0.0,0.0,0.0,0.0,0.0,3.1377,3.1377,3.1377,3.1377,3.1506,3.1873,3.257,3.2716,3.312,3.3798,3.3817,3.3817,3.3817,3.3817,3.3817,3.3817,3.3817,3.3817,3.3817,3.3817,3.3817,3.3817,3.3817,3.3817,3.3817,3.3817,3.3472,3.2914,3.318,3.2998,3.2552,0.0,0.0,0.0,0.0,0.0,0.0,3.4823,3.4823,3.4823,3.4823,3.4823,3.4823,3.4823,3.4823,3.4823,3.4823,3.4823,0.0,0.0,0.0,0.0,0.0,0.0,0.0,0.0,0.0,4.1219,4.1219,4.1219,4.1219,4.1219,4.1219,4.1219,4.1219,0.0,0.0,0.0,0.0,0.0,0.0,0.0,0.0,0.0,0.0,0.0,0.0,0.0,0.0,0.0,0.0,0.0,0.0,0.0,0.0,0.0,0.0,3.4823,3.4823,3.4847,3.5232,3.5641,3.5641,3.6026,3.6411,0.0,0.0,3.6811,3.6835,3.6791,3.6712,3.6712,3.6495,3.6277,3.6277,3.6277,3.5999,3.5238,0.0,0.0,0.0,0.0,0.0,0.0,0.0,0.0,3.1377,3.1377,0.0,3.1377,3.1781,3.2184,3.2588,3.2991,3.3413,3.3817,3.3817,3.3817,3.3817,3.3817,3.3817,3.3817,3.3817,3.3817,3.3817,3.3817,3.3817,3.3817,3.3817,3.3817,3.3817,3.3817,3.3635,3.3269,3.3269,3.3331,3.3254,0.0,0.0,0.0,0.0,0.0,0.0,0.0,3.4823,3.4823,3.4823,3.4823,3.4823,3.4823,3.4823,3.4823,3.4823,3.4823,0.0,0.0,0.0,0.0,0.0,0.0,0.0,0.0,4.031,4.0109,4.0109,4.0818,4.0818,4.0109,4.0109,4.0516,4.1119,4.0414,4.0516,0.0,0.0,0.0,0.0,0.0,0.0,0.0,0.0,0.0,0.0,0.0,0.0,0.0,0.0,0.0,0.0,0.0,0.0,0.0,0.0,0.0,0.0,3.4823,3.4944,3.516,3.5521,3.5473,3.5521,3.6242,0.0,0.0,3.6459,3.6532,3.653,3.6426,3.6386,3.6277,3.6277,3.6277,3.6329,3.6386,0.0,0.0,0.0,0.0,0.0,0.0,0.0,3.1377,3.1377,3.1377,3.1377,3.1377,3.2038,3.2459,3.2588,3.301,3.3413,3.3817,3.3817,3.3817,3.3817,3.3817,3.3817,3.3817,3.3817,3.3817,3.3817,3.3817,3.3817,3.3817,3.3817,3.3817,3.3835,3.411,3.4012,3.3767,3.4306,3.408,3.3752,0.0,0.0,0.0,0.0,0.0,0.0,0.0,3.5017,3.4823,3.4823,3.4823,3.4823,3.4823,3.4823,3.4823,3.4823,3.4823,0.0,0.0,0.0,0.0,0.0,0.0,0.0,3.917,3.8814,3.8778,3.9,3.9699,3.9597,3.9,3.9,3.9287,4.0007,3.9287,3.939,0.0,0.0,0.0,0.0,0.0,0.0,3.9,0.0,0.0,0.0,0.0,0.0,0.0,0.0,0.0,0.0,0.0,0.0,0.0,0.0,0.0,0.0,0.0,3.4823,3.4895,3.5232,3.5064,0.0,0.0,0.0,0.0,3.6074,3.6213,3.6379,3.6363,3.6356,3.6277,3.6277,3.6277,3.6392,3.6691,0.0,0.0,0.0,0.0,0.0,0.0,0.0,3.1377,3.1377,3.1377,3.1377,3.1377,3.2148,3.2588,3.2588,3.3156,3.356,3.3817,3.3817,3.3817,3.3817,3.3817,3.3817,3.3817,3.3817,3.3817,3.3817,3.3817,3.3817,0.0,3.3817,3.3908,3.4055,3.4312,3.4303,3.4361,3.4848,3.4546,3.411,0.0,0.0,0.0,0.0,0.0,0.0,0.0,3.5475,3.4823,3.4823,3.4823,3.4823,3.4823,3.4823,3.4823,3.4823,0.0,0.0,0.0,0.0,0.0,0.0,0.0,0.0,3.7108,3.718,3.7445,3.7974,3.7974,3.7974,3.7974,3.7974,3.7974,3.7974,3.7974,3.7974,0.0,0.0,0.0,0.0,0.0,0.0,0.0,0.0,0.0,0.0,0.0,0.0,0.0,0.0,0.0,0.0,0.0,0.0,0.0,0.0,0.0,0.0,0.0,0.0,0.0,0.0,0.0,0.0,0.0,0.0,0.0,0.0,3.5924,3.6344,3.6391,3.6363,3.6277,3.6277,3.6277,3.6277,3.6277,0.0,0.0,0.0,0.0,0.0,0.0,3.1506,3.1377,3.1377,3.1377,3.1377,3.1377,3.2148,3.2588,3.2588,3.3395,3.3817,3.3817,3.3817,3.3817,3.3817,3.3817,3.3817,3.3817,3.3817,3.3817,3.3817,3.3817,3.3817,3.3817,3.3817,3.4037,3.4403,3.444,3.463,3.5028,3.5064,3.4872,3.4441,0.0,0.0,0.0,0.0,0.0,0.0,0.0,0.0,0.0,0.0,3.4823,3.4823,3.4823,3.4823,3.4823,0.0,0.0,0.0,0.0,0.0,0.0,0.0,0.0,0.0,3.6579,3.6988,3.7445,3.7974,3.7974,3.7974,3.7974,3.7974,3.7974,3.7974,3.7974,3.7974,0.0,0.0,0.0,0.0,0.0,0.0,0.0,0.0,0.0,0.0,3.7974,3.7974,0.0,0.0,0.0,0.0,0.0,0.0,0.0,0.0,3.4823,0.0,3.4823,0.0,3.4823,3.4823,3.4823,3.4823,0.0,0.0,0.0,0.0,0.0,3.5817,3.5981,3.6148,3.6277,3.6277,3.6277,3.6277,3.6277,0.0,0.0,0.0,0.0,0.0,0.0,3.2001,3.1377,3.1377,3.1377,3.1377,3.1377,3.2148,3.2588,3.2588,3.3395,3.3817,3.3817,3.3817,3.3817,3.3817,3.3817,3.3817,3.3817,3.3817,3.3817,3.3817,3.3817,3.3817,3.3817,3.3817,3.4037,3.444,3.4752,3.5029,3.5504,3.5815,3.5682,3.5306,0.0,0.0,0.0,0.0,0.0,0.0,0.0,0.0,0.0,0.0,0.0,0.0,0.0,0.0,0.0,0.0,0.0,0.0,0.0,0.0,0.0,0.0,0.0,3.5857,3.6386,3.6916,3.7445,3.7974,3.7974,3.7974,3.7974,3.7974,3.7974,3.7974,3.7974,3.7974,3.7974,3.7974,0.0,0.0,3.7974,0.0,0.0,0.0,0.0,0.0,3.7974,3.7974,0.0,3.7974,3.7637,3.7108,0.0,0.0,0.0,0.0,3.4823,3.4823,3.4823,3.4823,3.4823,3.4823,3.4823,3.4823,0.0,0.0,0.0,0.0,0.0,0.0,3.5864,3.62,3.6495,3.6495,3.6495,3.6656,0.0,0.0,0.0,0.0,0.0,0.0,0.0,3.1873,3.1377,3.1377,3.1377,3.1377,3.1377,3.2148,3.2588,3.2588,3.3395,3.3817,3.3817,3.3817,3.3817,3.3817,3.3817,3.3817,3.3817,3.3817,3.3817,3.3817,3.3817,3.3817,3.3835,3.4018,3.433,3.4733,3.5137,3.554,3.5907,3.6127,3.5903,3.5605,0.0,0.0,0.0,0.0,0.0,0.0,0.0,0.0,0.0,0.0,0.0,0.0,0.0,0.0,0.0,0.0,0.0,0.0,0.0,0.0,0.0,0.0,3.5425,3.5905,3.6507,3.6964,3.7445,3.7974,3.7974,3.7974,3.7974,3.7974,3.7974,3.7974,3.7974,3.7974,3.7974,3.7974,3.7974,3.7974,3.7974,0.0,0.0,0.0,0.0,0.0,0.0,0.0,0.0,3.7974,3.7685,3.7204,3.6603,0.0,0.0,0.0,0.0,0.0,3.4823,3.4823,3.4823,3.4823,3.4823,3.4823,3.4823,0.0,0.0,0.0,0.0,0.0,0.0,0.0,0.0,3.6712,3.6758,3.7043,0.0,0.0,0.0,0.0,0.0,0.0,3.1873,3.1506,3.1377,3.1377,3.1377,3.1377,3.1377,3.2148,3.2588,3.2588,3.3395,3.3817,3.3817,3.3817,3.3817,3.3817,3.3817,3.3817,3.3817,3.3817,3.3817,3.3817,3.3872,3.3908,3.3927,3.433,3.4752,3.5155,3.5485,3.5852,3.6201,3.6201,3.5903,3.5605,0.0,0.0,0.0,0.0,0.0,0.0,0.0,0.0,0.0,0.0,0.0,0.0,0.0,0.0,0.0,0.0,0.0,0.0,0.0,0.0,0.0,3.617,3.5809,3.6074,3.706,3.7156,3.7445,3.7974,3.7974,3.7974,3.7974,3.7974,3.7974,3.7974,3.7974,3.7974,3.7974,3.7974,3.7974,3.7974,3.7974,0.0,0.0,0.0,0.0,0.0,0.0,0.0,0.0,3.7974,3.7926,3.7685,3.6723,0.0,0.0,0.0,0.0,0.0,3.4823,3.4823,3.4823,3.4823,3.4823,3.4823,3.4823,0.0,0.0,0.0,0.0,0.0,0.0,0.0,0.0,0.0,0.0,3.7127,0.0,0.0,0.0,0.0,0.0,3.4632,3.3253,3.2128,3.1377,3.1377,3.1377,3.1377,3.1377,3.2148,3.2588,3.2588,3.3395,3.3817,3.3817,3.3817,3.3817,3.3817,3.3817,3.3817,3.3817,3.3817,3.3817,3.3835,3.4165,3.4312,3.4348,3.477,3.5174,3.554,3.5595,3.5852,3.6201,3.6201,3.6201,3.6052,0.0,0.0,0.0,0.0,0.0,0.0,0.0,0.0,0.0,0.0,0.0,0.0,0.0,0.0,0.0,0.0,0.0,0.0,0.0,0.0,3.6531,3.6819,3.6603,3.6699,3.718,3.7469,3.7733,3.7974,3.7974,3.7974,3.7974,3.7974,3.7974,3.7974,3.7974,3.7974,3.7974,3.7974,3.7974,3.7974,0.0,0.0,0.0,0.0,0.0,0.0,0.0,0.0,0.0,0.0,3.7974,3.7805,3.6747,0.0,0.0,0.0,0.0,0.0,3.4823,3.4823,3.4823,3.4823,3.504,3.5256,3.5256,0.0,0.0,0.0,0.0,0.0,0.0,0.0,0.0,0.0,0.0,0.0,0.0,0.0,0.0,0.0,0.0,3.4632,3.2511,3.1744,3.1377,3.1377,3.1377,3.1469,3.1708,3.2276,3.2698,3.2918,3.3505,3.3817,3.3817,3.3817,3.3817,3.3817,3.3817,3.3817,3.3817,3.3817,3.3927,3.4147,3.433,3.4532,3.477,3.5174,3.5449,3.5632,3.5852,3.6054,3.6201,3.6201,3.6201,3.6052,0.0,0.0,0.0,0.0,0.0,0.0,0.0,0.0,0.0,0.0,0.0,0.0,0.0,0.0,0.0,0.0,0.0,0.0,0.0,3.6771,3.6964,3.7348,3.7372,3.7372,3.7372,3.7781,3.7974,3.7974,3.7974,3.7974,3.7974,3.7974,3.7974,3.7974,3.7974,3.7974,3.7974,3.7974,3.7974,3.7974,0.0,0.0,0.0,0.0,0.0,0.0,0.0,0.0,0.0,0.0,0.0,0.0,0.0,0.0,0.0,3.5136,3.4823,3.4823,3.4823,3.4823,3.4823,3.4823,3.5136,3.5473,3.5593,3.593,0.0,0.0,0.0,0.0,0.0,0.0,0.0,0.0,0.0,0.0,0.0,0.0,0.0,3.5581,3.5129,3.4007,3.1635,3.1377,3.1377,3.1377,3.1377,3.1561,3.1983,3.2386,3.279,3.3211,3.3615,3.3817,3.3817,3.3817,3.3817,3.3817,3.3817,3.3817,3.3817,3.3908,3.411,3.4403,3.4605,3.488,3.5192,3.5595,3.576,3.5779,3.6091,3.6201,3.6201,3.6201,3.6201,3.6052,0.0,0.0,0.0,0.0,0.0,0.0,0.0,0.0,0.0,0.0,0.0,0.0,0.0,0.0,0.0,0.0,0.0,0.0,0.0,3.7878,3.7878,3.7926,3.7926,3.7926,3.7926,3.7974,3.7974,3.7974,3.7974,3.7974,3.7974,3.7974,3.7974,3.7974,3.7974,3.7974,3.7974,3.7974,3.7974,3.7974,3.7974,0.0,0.0,0.0,0.0,0.0,0.0,0.0,0.0,0.0,0.0,0.0,0.0,0.0,3.6194,3.5136,3.4823,3.4823,3.4823,3.4823,3.4823,3.4823,3.4847,3.5016,3.5497,3.5641,0.0,3.6314,0.0,0.0,0.0,0.0,0.0,0.0,0.0,0.0,0.0,0.0,3.6902,3.5623,3.4258,3.3,3.1506,3.1377,3.1377,3.1377,3.1377,3.1561,3.1983,3.2386,3.279,3.3211,3.3615,3.3817,3.3817,3.3817,3.3817,3.3817,3.3817,3.3817,3.3817,3.4202,3.4367,3.444,3.521,3.5559,3.5614,3.5999,3.6164,3.6164,3.6201,3.6201,3.6201,3.6201,3.6201,3.6201,0.0,0.0,0.0,0.0,0.0,0.0,0.0,0.0,0.0,0.0,0.0,0.0,0.0,0.0,0.0,0.0,0.0,0.0,0.0,3.7974,3.7974,3.7974,3.7974,3.7974,3.7974,3.7974,3.7974,3.7974,3.7974,3.7974,3.7974,3.7974,3.7974,3.7974,3.7974,3.7974,3.7974,3.7974,3.7974,3.7974,3.7974,3.7974,0.0,0.0,0.0,0.0,0.0,0.0,0.0,0.0,3.7974,0.0,0.0,0.0,0.0,3.5136,3.4823,3.4823,3.4823,3.5064,3.5232,3.4895,3.5328,0.0,0.0,3.6362,3.6747,3.7276,3.7355,0.0,0.0,0.0,0.0,0.0,0.0,0.0,0.0,3.7881,3.6824,3.55,3.4258,3.2873,3.1506,3.1377,3.1377,3.1377,3.1377,3.1671,3.2331,3.2514,3.29,3.356,3.3725,3.3817,3.3817,3.3817,3.3817,3.3817,3.3817,3.3945,3.4183,3.433,3.4678,3.5174,3.5485,3.576,3.5999,3.6146,3.6201,3.6201,3.6201,3.6201,3.6201,3.6201,3.6201,3.6201,0.0,0.0,0.0,0.0,0.0,0.0,0.0,0.0,0.0,0.0,0.0,0.0,0.0,0.0,0.0,0.0,0.0,0.0,3.7974,3.7974,3.7974,3.7974,3.7974,3.7974,3.7974,3.7974,3.7974,3.7974,3.7974,3.7974,3.7974,3.7974,3.7974,3.7974,3.7974,3.7974,3.7974,3.7974,3.7974,3.7974,3.7974,3.7974,0.0,0.0,0.0,0.0,0.0,0.0,0.0,0.0,0.0,0.0,0.0,0.0,0.0,0.0,3.4846,3.4966,3.5064,3.5473,3.5785,3.5425,3.5881,0.0,3.6627,3.694,3.7348,3.7878,3.7679,0.0,0.0,0.0,0.0,0.0,0.0,0.0,3.8128,3.7374,3.6215,3.4881,3.3631,3.2384,3.1506,3.1377,3.1377,3.1377,3.1506,3.1873,3.2551,3.2716,3.3101,3.3798,3.3817,3.3817,3.3817,3.3817,3.3817,3.3817,3.3945,3.4147,3.4403,3.466,3.5082,3.5632,3.576,3.5962,3.6201,3.6201,3.6201,3.6201,3.6201,3.6201,3.6201,3.6201,3.6201,3.6201,0.0,0.0,0.0,0.0,0.0,0.0,0.0,0.0,0.0,0.0,0.0,0.0,0.0,0.0,0.0,0.0,0.0,0.0,3.7974,3.7974,3.7974,3.7974,3.7974,3.7974,3.7974,3.7974,3.7974,3.7974,3.7974,3.7974,3.7974,3.7974,3.7974,3.7974,3.7974,3.7974,3.7974,3.7974,3.7974,3.7974,3.7974,3.7974,3.7974,0.0,0.0,0.0,0.0,0.0,0.0,0.0,0.0,0.0,0.0,0.0,0.0,3.5038,3.4987,3.5218,3.5517,3.6002,3.6411,3.6411,0.0,0.0,3.7084,3.7204,3.7348,3.7878,0.0,3.7036,3.6712,0.0,0.0,0.0,3.8229,3.8267,3.7363,3.6215,3.4881,3.3505,3.2256,3.1377,3.1377,3.1377,3.1377,3.1377,3.1763,3.2184,3.257,3.2991,3.3413,3.3798,3.3817,3.3817,3.3817,3.3817,3.3817,3.3817,3.422,3.4403,3.444,3.5247,3.5614,3.565,3.6036,3.6201,3.6201,3.6201,3.6201,3.6201,3.6201,3.6201,3.6201,3.6201,3.6201,3.6201,0.0,0.0,0.0,0.0,0.0,0.0,0.0,0.0,0.0,0.0,0.0,0.0,0.0,0.0,0.0,0.0,0.0,0.0,3.7974,3.7974,3.7974,3.7974,3.7974,3.7974,3.7974,3.7974,3.7974,3.7974,3.7974,3.7974,3.7974,3.7974,3.7974,3.7974,3.7974,3.7974,3.7974,3.7974,3.7974,3.7974,3.7974,3.7974,3.7974,0.0,0.0,0.0,0.0,0.0,0.0,0.0,0.0,0.0,0.0,0.0,0.0,3.4623,3.4528,3.4742,3.5222,0.0,0.0,0.0,0.0,0.0,0.0,3.6916,0.0,0.0,0.0,3.7129,3.72,0.0,0.0,3.6983,3.7133,3.6925,3.603,3.486,3.3882,3.3505,3.2256,3.1377,3.1377,3.1377,3.1377,3.1377,3.1763,3.2184,3.257,3.3248,3.3688,3.3817,3.4073,3.4092,3.3817,3.3817,3.3945,3.4238,3.4642,3.4844,3.4862,3.5375,3.576,3.6036,3.6164,3.6201,3.6201,3.6201,3.6201,3.6201,3.6201,3.6201,3.6201,3.6201,3.6201,3.6201,0.0,0.0,0.0,0.0,0.0,0.0,0.0,0.0,0.0,0.0,4.2404,4.169,0.0,0.0,0.0,0.0,0.0,0.0,3.7974,3.7974,3.7974,3.7974,3.7974,3.7974,3.7974,3.7974,3.7974,3.7974,3.7974,3.7974,3.7974,3.7974,3.7974,3.7974,3.7974,3.7974,3.7974,3.7974,3.7974,3.7974,3.7974,3.7974,3.7974,0.0,0.0,0.0,0.0,0.0,0.0,0.0,0.0,0.0,0.0,0.0,0.0,3.4738,3.4786,3.507,0.0,0.0,0.0,0.0,0.0,0.0,0.0,0.0,0.0,0.0,0.0,0.0,3.7321,3.7627,0.0,3.6758,3.6762,3.6381,3.484,3.3882,3.3253,3.2638,3.1873,3.1377,3.1377,3.1377,3.1451,3.1616,3.2001,3.2423,3.2826,3.3615,3.4055,3.4055,3.4275,3.4293,3.4055,3.389,3.4018,3.4403,3.4825,3.5119,3.5284,3.5669,3.5981,3.6201,3.6201,3.6201,3.6201,3.6201,3.6201,3.6201,3.6201,3.6201,3.6201,3.6201,3.6201,3.6237,0.0,0.0,0.0,0.0,0.0,0.0,0.0,0.0,0.0,0.0,4.2889,4.2084,0.0,0.0,0.0,3.808,3.7974,3.7974,3.7974,3.7974,3.7974,3.7974,3.7974,3.7974,3.7974,3.7974,3.7974,3.7974,3.7974,3.7974,3.7974,3.7974,3.7974,3.7974,3.7974,3.7974,3.7974,3.7974,3.7974,3.7974,3.7974,3.7974,3.7974,3.7974,0.0,0.0,0.0,0.0,0.0,0.0,0.0,0.0,0.0,0.0,3.4513,3.5064,3.5419,3.5789,0.0,0.0,0.0,0.0,0.0,0.0,0.0,0.0,0.0,0.0,0.0,0.0,0.0,3.7953,3.8109,3.6675,3.6785,3.6194,3.3631,3.3253,3.2746,3.1506,3.1377,3.1377,3.1377,3.1377,3.1543,3.1983,3.2368,3.279,3.3248,3.4018,3.4458,3.4458,3.4495,3.4477,3.4403,3.4092,3.411,3.4458,3.488,3.5302,3.5687,3.6036,3.6201,3.6201,3.6201,3.6201,3.6201,3.6201,3.6201,3.6201,3.6201,3.6201,3.6201,3.6201,3.6237,3.6311,0.0,0.0,0.0,0.0,0.0,0.0,0.0,0.0,0.0,0.0,0.0,0.0,0.0,4.0313,0.0,3.8185,3.7974,3.7974,3.7974,3.7974,3.7974,3.7974,3.7974,3.7974,3.7974,3.7974,3.7974,3.7974,3.7974,3.7974,3.7974,3.7974,3.7974,3.7974,3.7974,3.7974,3.7974,3.7974,3.7974,3.7974,3.7974,3.7974,3.7974,3.7974,3.7892,0.0,0.0,0.0,0.0,0.0,0.0,0.0,3.5305,3.4704,3.4175,3.5025,3.5418,0.0,0.0,0.0,0.0,0.0,0.0,0.0,0.0,0.0,0.0,0.0,0.0,0.0,0.0,3.8436,3.7988,3.6025,3.5806,3.486,3.2256,3.1873,3.1763,3.1377,3.1377,3.1377,3.1377,3.1377,3.1543,3.1983,3.2368,3.2918,3.3651,3.4458,3.4899,3.4899,3.5192,3.5045,3.4403,3.4642,3.4807,3.4899,3.5302,3.5705,3.6091,3.6164,3.6201,3.6201,3.6201,3.6201,3.6201,3.6201,3.6201,3.6201,3.6201,3.6201,3.6201,3.6201,3.6421,3.6714,0.0,0.0,0.0,0.0,0.0,0.0,0.0,0.0,0.0,0.0,0.0,0.0,0.0,4.0919,0.0,0.0,3.7974,3.7974,3.7974,3.7974,3.7974,3.7974,3.7974,3.7974,3.7974,3.7974,3.7974,3.7974,3.7974,3.7974,3.7974,3.7974,3.7974,3.7974,3.7974,3.7974,3.7974,3.7974,3.7974,3.7974,3.7974,3.7892,3.7785,3.7785,3.7572,3.7358,3.7358,0.0,0.0,0.0,0.0,0.0,0.0,0.0,3.459,3.5329,3.5678,0.0,0.0,0.0,0.0,0.0,0.0,0.0,0.0,0.0,0.0,0.0,0.0,0.0,0.0,3.829,3.7405,3.5704,3.4881,3.3836,3.1912,3.1506,3.1451,3.1653,3.1506,3.1377,3.1377,3.1561,3.1854,3.2258,3.2661,3.3248,3.4055,3.4697,3.5119,3.5302,3.5504,3.5412,3.499,3.5009,3.5119,3.532,3.5522,3.5834,3.6201,3.6201,3.6201,3.6201,3.6201,3.6201,3.6201,3.6201,3.6201,3.6201,3.6201,3.6201,3.6201,3.6201,3.6476,3.6861,0.0,0.0,0.0,0.0,0.0,0.0,0.0,0.0,0.0,0.0,0.0,0.0,0.0,4.1518,4.0617,0.0,0.0,0.0,3.7974,3.7974,3.7974,3.7974,3.7974,3.7974,3.7974,3.7974,3.7974,3.7974,3.7974,3.7974,3.7974,3.7974,3.7974,3.7974,3.7974,3.7974,3.7974,3.7974,3.7974,3.7974,3.7974,3.7892,3.7702,3.7702,3.7465,3.7143,3.7143,3.6671,3.6154,3.6348,0.0,0.0,0.0,0.0,3.5014,3.5839,3.6108,3.6284,0.0,0.0,0.0,0.0,0.0,0.0,0.0,0.0,0.0,0.0,0.0,0.0,3.8688,3.7903,3.6824,3.5623,3.4258,3.3027,3.2077,3.1708,3.1616,3.1964,3.1689,3.1451,3.1377,3.1763,3.2166,3.257,3.2991,3.3596,3.4458,3.4844,3.5247,3.5705,3.5724,3.5687,3.5614,3.5357,3.5357,3.5614,3.5687,3.5889,3.6201,3.6201,3.6201,3.6201,3.6201,3.6201,3.6201,3.6201,3.6201,3.6201,3.6201,3.6201,3.6219,3.6292,3.6586,3.6989,0.0,0.0,0.0,0.0,0.0,0.0,0.0,0.0,0.0,0.0,4.4425,4.3899,0.0,4.2598,4.169,3.9597,3.9415,3.9,3.808,0.0,0.0,3.7974,3.7974,3.7974,3.7974,3.7974,3.7974,3.7974,3.7974,3.7974,3.7974,3.7974,3.7974,3.7974,3.7974,3.7974,3.7974,3.7974,3.7974,3.7974,3.7974,3.7974,3.7998,3.7998,3.7548,3.7143,3.7143,3.6773,3.6225,3.5856,3.552,0.0,0.0,0.0,3.552,3.6133,3.6379,0.0,0.0,0.0,0.0,0.0,0.0,0.0,0.0,0.0,0.0,0.0,0.0,0.0,3.9124,3.8127,3.6824,3.5623,3.4258,3.3027,3.2077,3.1964,3.1946,3.2001,3.1964,3.1781,3.1414,3.1763,3.2166,3.257,3.2991,3.3725,3.488,3.499,3.5375,3.6109,3.6127,3.5962,3.5632,3.5907,3.5907,3.5632,3.5962,3.6164,3.6201,3.6201,3.6201,3.6201,3.6201,3.6201,3.6201,3.6201,3.6201,3.6201,3.6201,3.6201,3.6256,3.6622,3.7007,3.7411,0.0,0.0,0.0,0.0,0.0,0.0,0.0,0.0,0.0,0.0,0.0,4.3993,0.0,4.2792,4.1887,3.9802,3.9597,3.9104,3.808,3.7974,3.7974,3.7974,3.7974,3.7974,3.7974,3.7974,3.7974,3.7974,3.7974,3.7974,3.7974,3.7974,3.7974,3.7974,3.7974,3.7974,3.7974,3.7974,3.7974,3.7974,3.7974,3.7892,3.7785,3.7572,3.7227,3.682,3.6712,3.631,3.5864,3.591,3.5749,3.5566,3.5841,0.0,0.0,0.0,3.5817,0.0,0.0,0.0,0.0,0.0,0.0,0.0,0.0,0.0,0.0,0.0,0.0,3.709,3.8029,3.7067,3.5848,3.4507,3.3339,3.2506,3.2408,3.2331,3.2331,3.2331,3.2148,3.1836,3.1414,3.1964,3.2404,3.2588,3.3395,3.422,3.499,3.5247,3.5614,3.6182,3.6201,3.6127,3.5944,3.6127,3.6127,3.5944,3.6127,3.6201,3.6201,3.6201,3.6201,3.6201,3.6201,3.6201,3.6201,3.6201,3.6201,3.6201,3.6201,3.6201,3.6256,3.6677,3.7081,3.7484,0.0,0.0,0.0,0.0,0.0,0.0,0.0,0.0,0.0,0.0,0.0,0.0,0.0,0.0,0.0,0.0,4.0211,3.939,3.808,3.7974,3.7974,3.7974,3.7974,3.7974,3.7974,3.7974,3.7974,3.7974,3.7974,3.7974,3.7974,3.7974,3.7974,3.7974,3.7974,3.7974,3.7974,3.7974,3.7974,3.7974,3.7974,3.7892,3.7679,3.7465,3.712,3.682,3.6603,3.6133,3.5772,3.614,3.6025,3.5772,3.614,3.6277,0.0,0.0,0.0,3.5135,0.0,0.0,0.0,0.0,0.0,0.0,0.0,0.0,0.0,0.0,0.0,3.5623,3.6194,3.5479,3.4507,3.3505,3.2615,3.2148,3.2533,3.2698,3.2753,3.2753,3.2404,3.2038,3.1708,3.2239,3.2643,3.2753,3.378,3.4587,3.5009,3.5412,3.5797,3.6201,3.6201,3.6201,3.6201,3.6201,3.6201,3.6201,3.6201,3.6201,3.6201,3.6201,3.6201,3.6201,3.6201,3.6201,3.6201,3.6201,3.6201,3.6201,3.6201,3.6201,3.6274,3.6787,3.7173,3.7503,0.0,0.0,0.0,0.0,0.0,0.0,0.0,0.0,0.0,0.0,0.0,4.4425,4.4303,4.4303,4.3899,4.2695,4.1716,4.0211,3.8185,3.7974,3.7974,3.7974,3.7974,0.0,3.7974,3.7974,3.7974,3.7974,3.7974,3.7974,3.7974,3.7974,3.7974,3.7974,3.7974,3.7974,3.7974,3.7974,3.7974,3.7974,3.7974,3.7974,3.7974,3.7974,3.7548,3.7036,3.7036,3.6688,3.6231,3.6254,3.6254,3.6231,3.6254,3.6277,3.6036,0.0,0.0,0.0,0.0,0.0,0.0,0.0,0.0,0.0,0.0,0.0,0.0,0.0,0.0,3.5005,3.3882,3.3505,3.3505,3.3379,3.2615,3.2148,3.2533,3.2936,3.3193,3.3193,3.2826,3.2551,3.2533,3.257,3.2771,3.3156,3.3945,3.4587,3.5009,3.5412,3.5797,3.6201,3.6201,3.6201,3.6201,3.6201,3.6201,3.6201,3.6201,3.6201,3.6201,3.6201,3.6201,3.6201,3.6201,3.6201,3.6201,3.6201,3.6201,3.6201,3.6201,3.6201,3.6311,3.7099,3.7411,3.7539,0.0,0.0,0.0,0.0,0.0,0.0,0.0,0.0,0.0,0.0,0.0,0.0,0.0,4.4425,4.3709,4.1914,4.0211,3.8792,3.808,3.7974,3.7974,3.7974,3.7974,3.7974,3.7974,3.7974,3.7974,3.7974,3.7974,3.7974,3.7974,3.7974,3.7974,3.7974,3.7974,3.7974,3.7974,3.7974,3.7974,3.7974,3.7974,3.7974,3.7974,3.7785,3.7572,3.7358,3.7036,3.6712,3.6495,3.6386,3.6277,3.6277,3.6277,3.6277,3.6036,3.4803,3.3194,3.1799,3.1799,0.0,0.0,0.0,0.0,0.0,0.0,0.0,0.0,0.0,0.0,3.2638,3.2256,3.2873,3.3126,3.2256,3.232,3.2441,3.257,3.3175,3.3505,3.3248,3.3101,3.29,3.2625,3.2845,3.3065,3.3211,3.4202,3.488,3.5027,3.565,3.6054,3.6201,3.6201,3.6201,3.6201,3.6201,3.6201,3.6201,3.6201,3.6201,3.6201,3.6201,3.6201,3.6201,3.6201,3.6201,3.6201,3.6201,3.6201,3.6201,3.6201,3.6201,3.6311,3.7118,3.7429,3.7539,0.0,0.0,0.0,4.4425,0.0,4.4425,4.4425,4.4425,4.4425,4.4425,0.0,0.0,0.0,0.0,4.3519,4.1419,3.9597,3.8396,3.7974,3.7974,3.7974,3.7974,3.7974,3.7974,3.7974,3.7974,3.7974,3.7974,3.7974,3.7974,3.7974,3.7974,3.7974,3.7974,3.7974,3.7974,3.7974,3.7974,3.7974,3.7974,3.7974,3.7974,3.7974,3.7785,3.7702,3.7489,3.7036,3.682,3.6712,3.6386,3.6277,3.6277,3.6277,3.5821,3.5067,3.3976,3.2371,3.0959,3.0959,3.0691,0.0,0.0,0.0,0.0,0.0,0.0,0.0,0.0,0.0,3.1377,3.1377,3.2128,3.2422,3.169,3.2148,3.2643,3.279,3.3395,3.3725,3.345,3.3303,3.3175,3.3028,3.3138,3.3285,3.3413,3.4422,3.5027,3.5027,3.5779,3.6201,3.6201,3.6201,3.6201,3.6201,3.6201,3.6201,3.6201,3.6201,3.6201,3.6201,3.6201,3.6201,3.6201,3.6201,3.6201,3.6201,3.6201,3.6201,3.6201,3.6201,3.6201,3.6311,3.7118,3.7429,3.7539,4.4425,4.4425,4.4425,4.4425,4.4425,4.4425,4.4425,4.4425,4.4425,4.4425,0.0,0.0,0.0,0.0,0.0,4.1419,4.0211,3.9104,3.808,3.7974,3.7974,3.7974,3.7974,3.7974,3.7974,3.7974,3.7974,3.7974,3.7974,3.7974,3.7974,3.7974,3.7974,3.7974,3.7974,3.7974,3.7974,3.7974,3.7974,3.7974,3.7974,3.7974,3.7974,3.7974,3.7892,3.7596,3.7251,3.6928,3.6712,3.6386,3.63,3.63,3.6323,3.4931,3.3197,3.2315,3.1256,3.0346,0.0,0.0,0.0,0.0,0.0,0.0,0.0,0.0,0.0,0.0,3.1377,3.1377,3.1377,3.1377,3.1524,3.1946,3.2349,3.2735,3.3175,3.356,3.3817,3.3817,3.3468,3.3395,3.378,3.3468,3.3395,3.378,3.4568,3.5027,3.5027,3.5779,3.6201,3.6201,3.6201,3.6201,3.6201,3.6201,3.6201,3.6201,3.6201,3.6201,3.6201,3.6201,3.6201,3.6201,3.6201,3.6201,3.6201,3.6201,3.6201,3.6201,3.6201,3.6201,3.6311,3.7118,3.7429,3.7539,4.4209,4.4425,4.4425,4.4425,4.4425,4.4425,4.4425,4.4425,4.4425,0.0,0.0,0.0,4.4425,4.3012,4.1815,4.1219,4.0211,3.9104,3.808,3.8687,3.8792,3.7974,3.7974,3.7974,3.7974,3.7974,3.7974,3.7974,3.7974,3.7974,3.7974,3.7974,3.7974,3.7974,3.7974,3.7974,3.7974,3.7974,3.7974,3.7974,3.7974,3.7974,3.7974,3.7974,3.7998,3.7892,3.7572,3.7251,3.6975,3.7153,3.7049,3.6874,3.7265,3.6997,3.6312,3.5263,3.4238,3.3152,3.2332,0.0,0.0,0.0,0.0,0.0,0.0,0.0,0.0,0.0,3.1377,3.1377,3.1377,3.1377,3.1616,3.2313,3.2533,3.2735,3.3175,3.356,3.3817,3.3817,3.3725,3.3688,3.3798,3.3725,3.3688,3.3798,3.4568,3.5027,3.5027,3.5779,3.6201,3.6201,3.6201,3.6201,3.6201,3.6201,3.6201,3.6201,3.6201,3.6201,3.6201,3.6201,3.6201,3.6201,3.6201,3.6201,3.6201,3.6201,3.6201,3.6201,3.6201,3.6201,3.6311,3.7118,3.7429,3.7539,4.3822,4.4069,4.4152,4.4401,4.4869,4.4993,4.4553,4.4456,4.4677,0.0,0.0,0.0,4.3421,4.165,4.0516,4.0516,3.9494,3.8687,3.808,3.8582,3.8687,3.7974,3.7974,3.7974,3.7974,3.7974,3.7974,3.7974,3.7974,3.8094,3.8334,3.8334,3.8455,3.8671,3.8671,3.8671,3.8671,3.8671,3.8407,3.7974,3.7974,3.7974,3.7998,3.8238,3.8227,3.812,3.8034,3.7887,3.7715,3.7711,3.7469,3.7313,3.7359,3.7264,3.6961,3.5346,3.4512,3.3857,3.2508,3.1832,3.1377,3.1377,0.0,0.0,3.1377,3.1377,3.1377,0.0,3.1377,3.1377,3.1377,3.1377,3.1634,3.2459,3.2588,3.2808,3.3395,3.367,3.3817,3.3817,3.3817,3.3817,3.3817,3.3817,3.389,3.4055,3.466,3.5174,3.5504,3.5962,3.6201,3.6201,3.6201,3.6201,3.6201,3.6201,3.6201,3.6201,3.6201,3.6201,3.6201,3.6201,3.6201,3.6201,3.6201,3.6201,3.6201,3.6201,3.6201,3.6201,3.6201,3.6201,3.6311,3.7118,3.7429,3.7539,0.0,4.3571,4.3733,4.4273,4.5211,4.5536,4.4482,4.4354,4.4683,0.0,4.4077,4.2632,4.2136,4.0695,3.9798,3.9798,3.8883,3.8248,3.8166,3.8273,3.8248,3.8166,3.8166,3.8166,3.8166,3.8166,3.8166,3.8166,3.8166,3.8407,3.8912,3.8912,3.9152,3.9609,3.9609,3.9609,3.9609,3.9609,3.9056,3.8166,3.8166,3.8166,3.8214,3.8719,3.867,3.8499,3.8729,3.8783,3.8559,3.8089,3.7907,3.7794,3.7155,3.6934,3.6546,3.4614,3.3882,3.3379,3.2128,3.1635,3.1377,3.1377,3.1377,0.0,3.1377,3.1377,3.1377,3.1377,3.1377,3.1377,3.1377,3.1377,3.1634,3.2459,3.2588,3.2881,3.3707,3.3817,3.3817,3.3817,3.3817,3.3817,3.3817,3.3817,3.3963,3.4312,3.477,3.5375,3.6164,3.6201,3.6201,3.6201,3.6201,3.6201,3.6201,3.6201,3.6201,3.6201,3.6201,3.6201,3.6201,3.6201,3.6201,3.6201,3.6201,3.6201,3.6201,3.6201,3.6201,3.6201,3.6201,3.6201,3.6311,3.7118,3.7429,3.7539,4.2735,4.2968,4.2995,4.31,4.3359,4.3359,4.3126,4.3126,4.3256,4.3462,4.3048,4.2788,4.2684,4.1613,4.0927,4.0927,4.0714,4.0202,3.9296,4.0094,4.0202,3.9296,3.9296,3.9296,3.9296,3.9296,3.9296,3.9296,3.9296,3.9345,3.9441,3.9441,3.9513,3.9609,3.9609,3.9609,3.9609,3.9609,3.9489,3.9296,3.9296,3.9296,3.9296,3.9417,3.9441,3.9354,3.945,3.9141,3.8629,3.8504,3.8688,3.9033,3.8866,3.8794,3.8676,3.8291,3.6724,3.5005,3.4632,3.3,3.1377,3.1377,3.1377,0.0,3.1377,3.1377,3.1377,0.0,3.1377,3.1377,3.1377,3.1377,3.1634,3.2459,3.2588,3.2881,3.3707,3.3817,3.3817,3.3817,3.3817,3.3817,3.3817,3.3817,3.3853,3.3927,3.4605,3.5375,3.6164,3.6201,3.6201,3.6201,3.6201,3.6201,3.6201,3.6201,3.6201,3.6201,3.6201,3.6201,3.6201,3.6201,3.6201,3.6201,3.6201,3.6201,3.6201,3.6201,3.6201,3.6201,3.6201,3.6201,3.6311,3.7118,3.7429,3.7539,4.2144,4.2409,4.2485,4.2767,4.3355,4.3462,4.2926,4.2818,4.3033,4.3675,4.299,4.2195,4.1681,4.0913,4.0439,4.0439,4.0439,4.022,3.9609,4.0111,4.0111,3.9609,3.9609,3.9609,3.9609,3.9609,3.9609,3.9609,3.9609,3.9753,3.9994,3.9994,4.0138,4.0403,4.0403,4.0403,4.0403,4.0403,4.0403,4.0355,3.9826,3.9609,3.9633,3.9898,3.9882,3.9794,4.0057,3.9812,3.9494,3.943,3.9453,3.9544,3.9308,3.9308,3.919,3.8551,3.6967,3.5253,3.4632,3.2873,3.1377,3.1377,3.1377,0.0,0.0,3.1377,3.1377,3.1377,3.1377,3.1377,3.1377,3.1377,3.1634,3.2459,3.2588,3.2881,3.3707,3.3817,3.3817,3.3817,3.3817,3.3817,3.3817,3.3817,3.3982,3.4385,3.4972,3.5577,3.6182,3.6201,3.6201,3.6201,3.6201,3.6201,3.6201,3.6201,3.6201,3.6201,3.6201,3.6201,3.6201,3.6201,3.6201,3.6201,3.6201,3.6201,3.6201,3.6201,3.6201,3.6201,3.6201,3.6201,3.6274,3.6897,3.7246,3.7503,4.1607,4.1903,4.2052,4.2501,4.333,4.3661,4.2662,4.2575,4.2886,4.3771,4.273,4.1595,4.066,4.0162,3.9922,3.9922,3.9922,3.9922,3.9922,3.9922,3.9922,3.9922,3.9922,3.9922,3.9922,3.9922,3.9922,3.9922,3.9922,4.0138,4.0547,4.0547,4.0787,4.1172,4.1172,4.1172,4.1172,4.1172,4.1172,4.11,4.0258,3.9922,3.9946,4.0379,4.041,4.023,4.0568,4.0479,4.0223,4.0223,4.0013,3.9684,3.9426,3.9308,3.9049,3.8052,3.6824,3.5479,3.4487,3.3126,3.2128,3.1873,3.1763,3.1763,0.0,0.0,0.0,3.1377,0.0,0.0,0.0,0.0,0.0,3.2276,0.0,0.0,3.3505,3.3707,3.3817,3.3817,3.3817,3.3817,3.3817,3.3817,3.4147,3.4972,3.532,3.5705,3.6182,3.6201,3.6349,3.6349,3.6349,3.6349,3.6349,3.6349,3.6201,3.6201,3.6201,3.6201,3.6201,3.6201,3.6201,3.6201,3.6201,3.6201,3.6201,3.6201,3.6201,3.6201,3.6201,3.6201,3.6256,3.6677,3.7081,3.7484,4.1305,4.1305,4.1329,4.1378,4.1516,4.1516,4.1402,4.1402,4.1402,4.1606,4.1468,4.1191,4.11,4.1028,4.1004,4.1004,4.1004,4.1004,4.1004,4.1004,4.1004,4.1004,4.1004,4.1004,4.1004,4.1004,4.1004,4.1004,4.1004,4.1028,4.11,4.11,4.1124,4.1172,4.1172,4.1172,4.1172,4.1172,4.1172,4.1172,4.1052,4.1004,4.1004,4.1076,4.11,4.0985,4.0826,4.0479,4.0223,4.0223,3.9755,3.9426,3.9684,3.9567,3.9308,3.9167,3.8171,3.7067,3.6924,3.5971,3.4632,3.3505,3.3126,3.2873,3.1635,0.0,3.1377,3.1377,0.0,0.0,0.0,0.0,0.0,3.1561,3.2441,3.3065,3.2771,3.3358,3.3817,3.3817,3.3817,3.3817,3.3817,3.4094,3.4585,3.4972,3.5369,3.5721,3.6164,3.6516,3.6664,3.6664,3.7107,3.7107,3.6812,3.6664,3.6516,3.6201,3.6201,3.6201,3.6201,3.6201,3.6201,3.6201,3.6201,3.6201,3.6201,3.6201,3.6201,3.6201,3.6201,3.6201,3.6256,3.6677,3.7081,3.7484,4.1172,4.1172,4.1172,4.1172,4.1172,4.1172,4.1172,4.1172,4.1172,4.1172,4.1172,4.1172,4.1172,4.1834,4.1923,4.1287,4.1834,4.1948,4.1287,4.1172,4.1172,4.1172,4.1172,4.1172,4.1172,4.1172,4.1172,4.1172,4.1172,4.1172,4.1172,4.1172,4.1172,4.1172,4.1172,0.0,4.1172,0.0,4.1172,4.1172,4.1172,4.1172,4.1172,4.1172,4.1172,4.1172,4.1081,4.0942,4.0711,4.0595,4.0434,4.0339,4.022,4.019,4.0181,4.0181,3.9164,3.8139,3.8139,3.6645,3.502,3.5402,3.4121,3.2973,3.3234,3.2712,3.2074,3.2074,0.0,0.0,0.0,0.0,0.0,0.0,3.2881,3.3248,3.3303,3.3596,3.3817,3.3817,3.3817,3.3817,3.3817,3.3955,3.4287,3.4972,3.5171,3.552,3.6164,3.6349,3.6516,3.6812,3.696,3.696,3.6812,3.6812,3.6664,3.6201,3.6201,3.6201,3.6201,3.6201,3.6201,3.6201,3.6201,3.6201,3.6201,3.6201,3.6201,3.6201,3.6201,3.6201,3.6237,3.6402,3.6879,3.7448,4.1057,4.1196,4.1172,4.1172,4.1172,4.1172,4.1172,4.1172,4.1172,4.1172,4.1172,4.1172,4.1172,4.2263,4.2463,4.1287,4.2238,4.2463,4.1287,4.1172,4.1172,4.1172,4.1172,4.1172,4.1172,4.1057,4.1057,4.1172,4.1057,4.1057,4.1057,4.1172,4.1172,4.1081,4.1172,4.1172,4.1172,0.0,4.1172,4.1172,4.1172,4.1172,4.1172,4.1172,4.1172,4.1196,4.1341,4.1389,4.1297,4.1232,4.1259,4.121,4.0971,4.101,4.0946,4.0946,4.0163,3.9397,3.9397,3.7847,3.6465,3.6742,3.5321,3.3766,3.4011,3.3369,3.2588,3.2588,3.2588,0.0,0.0,0.0,3.279,3.2881,0.0,3.3413,3.3468,3.367,3.3817,3.3817,3.3817,3.3817,3.3817,3.3955,3.425,3.4807,3.5115,3.5484,3.6017,3.6294,3.6516,3.696,3.7107,3.7107,3.696,3.696,3.6664,3.6201,3.6201,3.6201,3.6201,3.6201,3.6201,3.6201,3.6201,3.6201,3.6201,3.6201,3.6201,3.6201,3.6201,3.6201,3.6201,3.6201,3.6659,3.7283,4.0619,4.0966,4.1172,4.1172,4.1172,4.1172,4.1172,4.1172,4.1172,4.1172,4.1172,4.1172,4.1172,4.2263,4.2463,4.1287,4.2238,4.2463,4.1287,4.1172,4.1172,4.1172,4.1172,4.1172,4.1172,4.0826,4.085,4.1172,4.085,4.0735,4.0735,4.1081,4.1081,4.0735,4.1081,4.1172,4.1172,4.1172,4.1172,4.1172,4.1172,4.1172,4.1172,4.1172,4.1172,4.1244,4.1774,4.1707,4.1567,4.2424,4.2353,4.1872,4.2136,4.1774,4.1289,4.1289,4.1045,4.0701,4.0701,4.0701,3.9916,3.7361,3.6593,3.582,3.3236,3.2588,3.2588,3.2588,3.2588,3.2588,3.2588,3.2936,3.2955,3.2166,3.3028,0.0,0.0,3.3321,3.3817,3.3817,3.3817,3.3817,3.3817,3.4094,3.4399,3.4385,3.5092,3.5643,3.5614,3.6294,3.696,3.7421,3.7715,3.7715,3.7402,3.7402,3.696,3.6201,3.6201,3.6201,3.6201,3.6201,3.6201,3.6201,3.6201,3.6201,3.6201,3.6201,3.6201,3.6201,3.6201,3.6201,3.6201,3.6201,3.6476,3.6916,4.14,4.1519,4.1543,4.1201,4.1081,4.0942,4.1196,4.1172,4.1172,0.0,4.1172,0.0,0.0,4.2911,4.3551,4.2463,4.333,4.3551,4.2351,4.1606,4.1172,4.1172,4.1172,4.1172,4.1172,4.085,4.085,4.1172,4.085,4.085,4.1057,4.1172,4.1196,4.1081,4.1172,4.1172,0.0,0.0,0.0,0.0,4.1557,4.1701,4.1701,4.1701,4.1701,4.1774,4.2303,4.2495,4.24,4.2687,4.2736,4.2536,4.2414,4.2403,4.2311,4.2061,4.1811,4.1834,4.1834,4.1158,4.0373,4.0396,3.8287,3.6176,3.6157,3.4719,3.3395,3.3395,3.3395,3.3395,3.3395,3.3523,3.3523,3.3248,3.3541,3.3725,0.0,3.3633,3.3817,3.3817,3.3817,3.3817,3.3817,3.3955,3.4121,3.4367,3.4931,3.5355,3.5595,3.6146,3.6664,3.696,3.7402,3.7568,3.7421,3.7421,3.7107,3.6664,3.6367,3.6201,3.6201,3.6201,3.6201,3.6201,3.6201,3.6201,3.6201,3.6201,3.6201,3.6201,3.6201,3.6201,3.6201,3.6201,3.6476,3.6934,4.1555,4.1555,4.1466,4.14,4.1282,4.1164,4.1516,4.1633,4.1633,0.0,4.1749,0.0,4.1749,0.0,4.3857,4.2648,4.3457,4.3738,4.3274,4.1932,4.1474,4.2103,4.1499,4.1172,4.1172,4.085,4.085,4.1172,4.085,4.085,4.1057,4.1172,4.1196,4.1081,4.1172,4.1172,4.1172,0.0,4.1172,0.0,4.1749,4.2086,4.2279,4.2447,4.2399,4.2327,4.2832,4.3024,4.3072,4.3265,4.3431,4.345,4.3203,4.3192,4.3075,4.2696,4.257,4.2466,4.2339,4.1678,4.1013,4.1399,3.9146,3.6884,3.7934,3.6209,3.449,3.449,3.449,3.4352,3.3955,3.3817,3.3817,3.3817,3.3817,3.3817,0.0,3.3817,3.3817,3.3817,3.3817,3.3817,3.3817,3.3817,3.3927,3.4165,3.4568,3.499,3.5394,3.5779,3.622,3.6812,3.7255,3.7421,3.7421,3.7568,3.7402,3.696,3.6812,3.6516,3.6367,3.6516,3.6516,3.6367,3.6516,3.6516,3.6349,3.6349,3.6367,3.6201,3.6201,3.6201,3.6201,3.6201,3.6476,3.6934,4.126,4.1138,4.1015,4.177,4.1845,4.1942,4.228,0.0,4.24,0.0,4.276,4.276,4.276,4.3333,4.3358,4.2248,4.2633,4.3187,4.3828,4.2176,4.2013,4.3689,4.2127,4.122,4.1172,4.085,4.085,4.1196,4.085,4.0735,4.0735,4.1057,4.0966,4.0735,4.1057,4.1172,4.1172,4.122,4.1244,4.1317,4.1846,4.2351,4.2856,4.3361,4.3265,4.2904,4.3385,4.3553,4.3625,4.4178,4.4347,4.4347,4.4223,4.4075,4.3678,4.3451,4.3075,4.2696,4.2466,4.2339,4.1934,4.0603,3.9277,3.82,3.82,3.7018,3.5957,3.5957,3.5957,3.5549,3.4214,3.3817,3.3817,3.3955,3.3817,3.3817,3.3817,3.3817,3.3817,3.3817,3.3817,3.3817,3.3817,3.3817,3.3817,3.3817,3.4183,3.4587,3.5009,3.5412,3.5944,3.6793,3.7107,3.7402,3.7421,3.7715,3.7715,3.7421,3.7421,3.7255,3.6812,3.7255,3.7255,3.6812,3.7255,3.7107,3.6812,3.6812,3.6516,3.6201,3.6201,3.6201,3.6201,3.6201,3.6476,3.6897,4.2074,4.1948,4.1948,4.22,4.1947,4.1942,4.228,0.0,0.0,0.0,4.276,4.276,4.276,4.3653,4.4136,4.3929,4.4011,4.4217,4.4342,4.3105,4.2466,4.2409,4.2055,4.1581,4.1196,4.0595,4.0479,4.085,4.0479,4.0339,4.0363,4.0711,4.0735,4.0735,4.085,4.0966,4.122,4.1605,4.199,4.2399,4.2904,4.3192,4.3385,4.3914,4.4058,4.3962,4.4082,4.413,4.4154,4.4299,4.4347,4.4223,4.395,4.3826,4.3678,4.3451,4.3075,4.2822,4.2696,4.2466,4.2212,4.1806,4.0732,3.967,3.967,3.8597,3.7266,3.6093,3.5957,3.5821,3.5412,3.449,3.4075,3.5158,3.449,3.3817,3.3817,3.3817,3.3817,3.3817,3.3817,3.3817,3.3817,3.3817,3.3817,3.3817,3.4183,3.4587,3.5009,3.5412,3.5797,3.6349,3.6812,3.7107,3.7421,3.7568,3.7715,3.7862,3.7568,3.7421,3.7255,3.7402,3.7402,3.7255,3.7402,3.7402,3.7255,3.696,3.6812,3.6664,3.6349,3.6201,3.6201,3.6201,3.6476,3.6897,4.2339,4.2339,4.2339,4.2339,4.2233,4.2356,4.2725,4.2602,0.0,4.319,4.319,0.0,4.319,4.3673,4.4003,4.4003,4.3924,4.411,4.4803,4.357,4.295,4.3468,4.2777,4.2182,4.187,4.1518,4.1282,4.1068,4.081,4.0575,4.0223,4.0595,4.0735,4.0735,4.085,4.1201,4.1557,4.2086,4.2615,4.312,4.3385,4.3649,0.0,4.4227,4.4347,4.4347,4.4347,4.4347,4.4347,4.4347,4.4347,4.4223,4.4075,4.4075,4.395,4.3451,4.32,4.2949,4.2696,4.2466,4.2339,4.2339,4.1271,4.0344,4.1013,4.0062,3.8729,3.7934,3.7801,3.74,3.6073,3.5821,3.5685,3.5821,3.4746,3.3817,3.3817,3.3817,3.3817,3.3817,3.3817,3.3817,3.3817,3.3817,3.3817,3.3817,3.4018,3.433,3.4733,3.5137,3.554,3.5944,3.6571,3.696,3.7107,3.7255,3.7568,3.7715,3.7568,3.7274,3.7107,3.7255,3.7255,3.7107,3.7255,3.7255,3.7107,3.696,3.6664,3.6516,3.6367,3.6201,3.6201,3.6201,3.6366,3.6622,4.2339,4.2339,4.2339,4.2339,4.2593,4.2949,0.0,4.3075,0.0,4.3826,0.0,4.3826,4.3826,4.3644,4.3625,4.3625,4.3216,4.3625,4.5141,4.3793,4.36,4.5135,4.3671,4.2832,4.276,4.276,4.2305,4.1496,4.1496,4.1141,4.0317,4.0575,4.0808,4.0808,4.1041,0.0,0.0,4.2663,4.3168,4.3625,4.3625,4.3914,4.4347,4.4347,4.4347,4.4347,4.4347,4.4347,4.4347,4.4347,4.4347,4.4347,4.4347,4.4347,4.4223,4.3576,4.3326,4.32,4.2593,4.2339,4.2339,4.2339,4.1399,4.0732,4.2061,4.1399,4.0473,4.0214,4.0062,3.9146,3.6614,3.7153,3.74,3.6093,3.4746,3.3817,3.3817,3.3817,3.3817,3.3817,3.3817,0.0,3.3817,3.3817,3.3817,3.3817,3.3817,3.3982,3.4385,3.4807,3.521,3.5614,3.6312,3.6812,3.6812,3.7107,3.7421,3.7421,3.7421,3.7255,3.696,3.7255,3.7255,3.696,3.7255,3.7255,3.6812,3.6812,3.6516,3.6201,3.6201,3.6201,3.6201,3.6201,3.6201,3.6274,4.2339,4.2339,4.2339,4.2339,4.2593,4.2949,4.32,4.3428,4.3826,4.4223,4.4223,4.4223,4.4223,4.4127,4.4202,4.4202,4.413,4.4229,4.4425,4.4229,4.4012,4.3893,4.3554,4.3192,4.276,4.252,4.2113,4.1801,4.1801,4.1392,4.067,4.1033,4.1154,4.1154,4.1275,0.0,4.2901,4.2973,4.3453,4.4202,4.4202,4.4251,4.4347,4.4347,4.4347,4.4347,4.4347,4.4347,4.4347,4.4347,4.4347,4.4347,4.4347,4.4347,4.4223,4.3826,4.3576,4.32,4.2822,4.2466,4.2339,4.2339,4.2061,4.1934,4.2212,4.2084,4.1527,4.0473,3.9277,3.8333,3.7801,3.6884,3.6209,3.5957,3.4746,3.3817,3.3817,3.3817,3.3817,3.3817,3.3817,3.3817,3.3817,3.3817,3.3817,3.3817,3.3817,3.3982,3.4385,3.4807,3.521,3.5614,3.5999,3.6516,3.6812,3.6812,3.7107,3.7421,3.7421,3.7402,3.7255,3.7421,3.7402,3.7255,3.7421,3.7402,3.7255,3.696,3.6516,3.6201,3.6201,3.6201,3.6201,3.6201,3.6201,3.6274,0.0,0.0,0.0,0.0,0.0,0.0,0.0,4.3826,4.4075,4.4075,4.4075,4.4075,4.4075,4.4223,4.4347,4.4347,4.4347,4.4347,4.4347,4.4347,4.4227,4.3962,4.3938,4.3842,4.3601,4.3455,4.297,4.2221,4.2221,4.1714,4.0823,4.1167,4.1289,4.1312,0.0,4.2437,0.0,4.345,4.3983,4.4347,4.4347,4.4347,4.4347,4.4347,4.4347,4.4347,4.4347,4.4347,4.4347,4.4347,4.4347,4.4347,4.4347,4.4539,4.4631,4.4356,4.4167,4.4021,4.3741,4.3355,4.3096,4.3096,4.3096,4.3028,4.2775,4.2729,4.2381,4.1466,4.0732,4.0062,3.9256,3.8067,3.6749,3.6073,3.5275,3.4609,3.3955,3.3817,3.3817,3.3817,3.3817,3.3817,3.3817,3.3817,3.3817,3.3817,3.3817,3.389,3.4092,3.4697,3.5119,3.5302,3.5889,3.6349,3.6516,3.6516,3.6664,3.6812,3.6812,3.6812,3.6812,3.6812,3.6812,3.6812,3.6812,3.6812,3.6812,3.6516,3.6349,3.6201,3.6201,3.6201,3.6201,3.6201,3.6201,3.6237,0.0,4.3075,0.0,0.0,4.3451,4.3802,4.3802,4.4075,4.4223,4.395,4.395,4.395,4.395,4.4075,4.4347,4.4347,4.4347,4.4347,4.4347,4.4347,4.4347,4.4347,4.4347,4.4347,4.4347,4.4347,4.376,4.2862,4.2738,4.221,4.1107,4.1322,4.1491,4.1637,4.2527,4.3085,4.3231,4.3907,4.4223,4.4347,4.4347,4.4347,4.4347,4.4347,4.4347,4.4371,4.4467,4.4515,4.4539,4.4635,4.4611,4.4539,4.4635,4.4972,4.5158,4.4904,4.4806,4.4901,4.4487,4.4202,4.394,4.3808,4.3808,4.3716,4.3326,4.3234,4.3119,4.2729,4.229,4.1663,4.0495,3.8729,3.74,3.6884,3.6073,3.5158,3.4352,3.3937,3.3817,3.3817,3.3817,3.3817,3.3817,3.3817,3.3817,3.3817,3.3817,3.3817,3.3817,3.4587,3.5027,3.5027,3.5797,3.6201,3.6201,3.6201,3.6201,3.6201,3.6201,3.6201,3.6201,3.6201,3.6201,3.6201,3.6201,3.6201,3.6201,3.6201,3.6201,3.6201,3.6201,3.6201,3.6201,3.6201,3.6201,3.6201,0.0,0.0,0.0,0.0,0.0,4.3802,4.3802,4.4075,4.4347,4.4223,4.4223,4.4223,4.4223,4.4223,4.4347,4.4347,4.4347,4.4347,4.4347,4.4347,4.4347,4.4347,4.4347,4.4347,4.4347,4.4347,4.4075,4.3731,4.338,4.2849,4.1986,4.2097,4.2328,4.2683,4.273,4.313,4.3731,4.3778,4.4075,4.4347,4.4347,4.4347,4.4347,4.4347,4.4347,4.4419,4.49,4.5068,4.514,4.5621,4.5453,4.514,4.5621,4.5814,4.5734,4.5477,4.5372,4.5161,4.4617,4.4356,4.4225,4.394,4.3808,4.3785,4.3739,4.3739,4.3716,4.3671,4.2365,4.0979,4.0279,3.7934,3.6884,3.9408,3.6479,3.4352,3.5549,3.4609,3.3817,3.3817,3.3817,3.3817,3.3817,3.3817,3.3817,3.3817,3.3817,3.3817,3.3817,3.4587,3.5027,3.5027,3.5797,3.6201,3.6201,3.6201,3.6201,3.6201,3.6201,3.6201,3.6201,3.6201,3.6201,3.6201,3.6201,3.6201,3.6201,3.6201,3.6201,3.6201,3.6201,3.6201,3.6201,3.6201,3.6201,3.6201,0.0,0.0,0.0,0.0,0.0,0.0,0.0,4.4487,4.4828,4.4828,4.4828,4.4828,4.4828,4.5116,4.5285,4.5285,4.5285,4.5285,4.5285,4.5285,4.5164,4.4828,4.4828,4.4683,4.4347,4.4347,4.4099,4.3802,4.3451,4.3083,4.252,4.2603,4.2822,4.3075,4.3326,4.3553,4.3802,4.395,4.4223,4.4347,4.4347,4.4347,4.4371,4.4708,4.4828,4.49,4.5429,4.5597,4.5694,4.6223,4.6054,4.5645,4.5862,4.615,4.6391,4.6261,4.624,4.6347,4.6083,4.5685,4.5262,4.5129,4.4861,4.4658,4.4359,4.429,4.4199,4.3877,4.3231,4.2368,4.1242,4.0561,3.9704,3.8347,3.7179,3.5937,3.4746,3.4214,3.3817,3.3817,3.3817,3.3817,3.3817,3.3817,3.3817,3.3817,3.3817,3.3817,3.3817,3.4587,3.5027,3.5027,3.5797,3.6201,3.6201,3.6201,3.6201,3.6201,3.6201,3.6201,3.6201,3.6201,3.6201,3.6201,3.6201,3.6201,3.6201,3.6201,3.6201,3.6201,3.6201,3.6201,3.6201,3.6201,3.6201,3.6201,4.395,0.0,4.4439,0.0,4.4559,4.4804,4.4804,4.5116,4.5357,4.5357,4.5501,4.5549,4.5381,4.5694,4.5934,4.5934,4.5934,4.5934,4.5934,4.5934,4.5766,4.5381,4.5357,4.5116,4.4587,4.4587,4.4367,4.395,4.3576,4.3255,4.2864,4.2739,4.2934,4.3451,4.3678,4.3802,4.395,4.4223,4.4347,4.4371,4.4515,4.4587,4.4635,4.5164,4.5357,4.5429,4.5958,4.615,4.6247,4.6776,4.6704,4.6391,4.6391,4.6631,4.6944,4.6944,4.7077,4.7098,4.6965,4.6563,4.616,4.589,4.5754,4.5391,4.491,4.4819,4.4681,4.4153,4.4038,4.3727,4.2482,4.2458,4.1816,3.9208,3.8159,3.7064,3.5467,3.4426,3.3817,3.3817,3.3817,3.3817,3.3817,3.3817,3.3817,3.3817,3.3927,3.3982,3.3982,3.4642,3.5082,3.5192,3.5852,3.6201,3.6201,3.6201,3.6201,3.6201,3.6201,3.6201,3.6201,3.6201,3.6201,3.6201,3.6201,3.6201,3.6201,3.6201,3.6201,3.6201,3.6201,3.6201,3.6201,3.6201,3.6201,3.6201,4.4347,4.478,4.5116,4.5116,4.5549,4.591,4.591,4.591,4.591,4.591,4.6367,4.6487,4.5982,4.5934,4.5934,4.5934,4.5934,4.5934,4.5934,4.5934,4.5934,4.591,4.591,4.5669,4.514,4.5116,4.4876,4.4347,4.395,4.3564,4.3089,4.272,4.298,4.3802,4.3802,4.395,4.4347,4.4347,4.4347,4.4395,4.4924,4.5116,4.5188,4.5718,4.591,4.5982,4.6511,4.6704,4.6776,4.7305,4.7497,4.7473,4.7473,4.7497,4.7497,4.7497,4.7497,4.7364,4.7098,4.6965,4.6831,4.6025,4.589,4.5754,4.5483,4.5347,4.5209,4.4704,4.4589,4.4428,4.39,4.2594,4.2171,4.3522,3.9855,3.7114,3.8615,3.5956,3.3817,3.3817,3.3817,3.3817,3.3817,3.3817,3.3817,3.3817,3.4165,3.4403,3.4403,3.4807,3.521,3.5595,3.5999,3.6201,3.6201,3.6201,3.6201,3.6201,3.6201,3.6201,3.6201,3.6201,3.6201,3.6201,3.6201,3.6201,3.6201,3.6201,3.6201,3.6201,3.6201,3.6201,3.6201,3.6201,3.6201,3.6201,4.5429,4.5549,4.5669,4.5669,4.5814,4.5934,4.5934,4.6223,4.6463,4.6463,4.692,4.7185,4.7016,4.6992,4.6992,4.6992,4.6992,4.6992,4.6992,4.6992,4.6848,4.6487,4.6463,4.6223,4.5694,4.5669,4.5405,4.4876,4.4475,4.3962,4.3215,4.3091,4.3286,4.3802,4.4075,4.4223,4.4371,4.4732,4.4876,4.4924,4.5453,4.5669,4.5718,4.6271,4.6463,4.6535,4.7064,4.7257,4.7281,4.7449,4.7497,4.7497,4.7497,4.7497,4.7497,4.7497,4.7497,4.7364,4.7098,4.6831,4.654,4.6271,4.589,4.5619,4.5754,4.5619,4.5324,4.5163,4.5117,4.5071,4.4887,4.4164,4.3511,4.295,4.1315,3.9615,3.7966,3.6894,3.5857,3.4784,3.4642,3.4642,3.4642,3.4642,3.4642,3.4642,3.477,3.4697,3.4422,3.5064,3.5485,3.5614,3.5999,3.6201,3.6201,3.6201,3.6201,3.6201,3.6201,3.6201,3.6201,3.6201,3.6201,3.6201,3.6201,3.6201,3.6201,3.6201,3.6201,3.6201,3.6201,3.6201,3.6201,3.6201,3.6201,3.6201,4.5934,4.6078,4.6223,4.6223,4.6391,4.6511,4.6511,4.68,4.7016,4.7016,4.7305,4.7497,4.7497,4.7497,4.7497,4.7497,4.7497,4.7497,4.7497,4.7497,4.7353,4.7016,4.7016,4.6752,4.6223,4.6223,4.5958,4.5429,4.5151,4.4857,4.4294,4.4294,4.442,4.4673,4.4798,4.4948,4.4972,4.5158,4.5302,4.5477,4.562,4.5964,4.6271,4.6669,4.6885,4.704,4.7377,4.7497,4.7497,4.7497,4.7497,4.7497,4.7497,4.7497,4.7497,4.7497,4.7497,4.7497,4.7232,4.6965,4.6697,4.6405,4.616,4.5754,4.5754,4.5483,4.537,4.537,4.537,4.537,4.537,4.5094,4.4595,4.3758,4.2654,4.1352,3.9543,3.8147,3.6945,3.5991,3.5296,3.5027,3.5027,3.5027,3.5027,3.5027,3.5174,3.5137,3.488,3.5339,3.5687,3.5834,3.6072,3.6201,3.6201,3.6201,3.6201,3.6201,3.6201,3.6201,3.6201,3.6201,3.6201,3.6201,3.6201,3.6201,3.6201,3.6201,3.6201,3.6201,3.6201,3.6201,3.6201,3.6201,3.6201,3.6201,4.603,4.6439,4.6776,4.6776,4.7185,4.7497,4.7497,4.7497,4.7497,4.7497,4.7497,4.7497,4.7497,4.7497,4.7497,4.7497,4.7497,4.7497,4.7497,4.7497,4.7497,4.7497,4.7497,4.7281,4.6776,4.6776,4.6511,4.5982,4.5934,4.5934,4.5934,4.5934,4.5934,4.5934,4.5934,4.5934,4.5934,4.5596,4.5725,4.5902,4.5752,4.6096,4.6693,4.6931,4.7098,4.7497,4.7497,4.7497,4.7497,4.7497,4.7497,4.7497,4.7497,4.7497,4.7497,4.7497,4.7497,4.7497,4.7497,4.7497,4.7364,4.654,4.6405,4.6294,4.5619,4.537,4.537,4.537,4.537,4.537,4.537,4.537,4.537,4.537,4.3825,4.2672,4.2535,3.9646,3.7445,3.7445,3.6067,3.5119,3.5119,3.5119,3.5119,3.5119,3.5449,3.5669,3.5669,3.5669,3.5834,3.6201,3.6201,3.6201,3.6201,3.6201,3.6201,3.6201,3.6201,3.6201,3.6201,3.6201,3.6201,3.6201,3.6201,3.6201,3.6201,3.6201,3.6201,3.6201,3.6201,3.6201,3.6201,3.6201,3.6201,3.6201,4.7136,4.7233,4.7305,4.7305,4.7425,4.7497,4.7497,4.7497,4.7497,4.7497,4.7497,4.7497,4.7497,4.7497,4.7497,4.7497,4.7497,4.7497,4.7497,4.7497,4.7497,4.7497,4.7497,4.7449,4.7329,4.7305,4.7064,4.6535,4.5868,4.5548,4.5548,4.5548,4.5548,4.5548,4.5806,4.5934,4.5958,4.6213,4.6405,4.6583,4.6561,4.6775,4.6931,4.665,4.6831,4.7098,4.7098,4.7232,4.7497,4.7497,4.7497,4.7497,4.7497,4.7497,4.7497,4.7497,4.7497,4.7497,4.7232,4.7098,4.7098,4.6831,4.6697,4.6271,4.589,4.5619,4.537,4.537,4.537,4.537,4.537,4.537,4.537,4.537,4.496,4.4323,4.3061,4.1257,3.9475,3.8347,3.6788,3.5925,3.5925,3.5925,3.5925,3.5925,3.6017,3.6072,3.6072,3.6072,3.6109,3.6201,3.6201,3.6201,3.6201,3.6201,3.6201,3.6201,3.6201,3.6201,3.6201,3.6201,3.6201,3.6201,3.6201,3.6201,3.6201,3.6201,3.6201,3.6201,3.6201,3.6201,3.6201,3.6201,3.6201,3.6201,4.7497,4.7497,4.7497,4.7497,4.7497,4.7497,4.7497,4.7497,4.7497,4.7497,4.7497,4.7497,4.7497,4.7497,4.7497,4.7497,4.7497,4.7497,4.7497,4.7497,4.7497,4.7497,4.7497,4.7497,4.7497,4.7497,4.7353,4.7064,4.6538,4.6394,4.6394,4.6394,4.6394,4.6394,4.6525,4.6631,4.6655,4.6813,4.6957,4.7088,4.6846,4.6965,4.7232,4.6831,4.6965,4.7232,4.7098,4.7232,4.7497,4.7364,4.7364,4.7497,4.7497,4.7497,4.7497,4.7497,4.7497,4.7497,4.7232,4.7232,4.7232,4.6965,4.6563,4.6136,4.589,4.5619,4.537,4.537,4.537,4.537,4.537,4.537,4.537,4.537,4.537,4.5074,4.4228,4.2796,4.1226,3.9798,3.8224,3.6922,3.6201,3.6201,3.6201,3.6201,3.6201,3.6201,3.6201,3.6201,3.6201,3.6201,3.6201,3.6201,3.6201,3.6201,3.6201,3.6201,3.6201,3.6201,3.6201,3.6201,3.6201,3.6201,3.6201,3.6201,3.6201,3.6201,3.6201,3.6201,3.6201,3.6201,3.6201,3.6201,3.6201,3.6201,4.7497,4.7497,4.7497,4.7497,4.7497,4.7497,4.7497,4.7497,4.7497,4.7497,4.7497,4.7497,4.7497,4.7497,4.7497,4.7497,4.7497,4.7497,4.7497,4.7497,4.7497,4.7497,4.7497,4.7497,4.7497,4.7497,4.7497,4.7497,4.7497,4.7497,4.7497,4.7497,4.7497,4.7497,4.7497,4.7497,4.7497,4.7232,4.7232,4.7497,4.6831,4.6831,4.7364,4.7098,4.7098,4.7364,4.7098,4.7232,4.7497,4.7098,4.7232,4.7364,4.7497,4.7497,4.7364,4.7497,4.7497,4.7497,4.7497,4.7497,4.7364,4.6965,4.6429,4.589,4.589,4.5619,4.537,4.537,4.537,4.537,4.537,4.537,4.537,4.537,4.537,4.537,4.537,4.3814,4.2236,4.0942,3.9221,3.7639,3.6349,3.6201,3.6201,3.6201,3.6201,3.6201,3.6201,3.6201,3.6201,3.6201,3.6201,3.6201,3.6201,3.6201,3.6201,3.6201,3.6201,3.6201,3.6201,3.6201,3.6201,3.6201,3.6201,3.6201,3.6201,3.6201,3.6201,3.6201,3.6201,3.6201,3.6201,3.6201,3.6201,3.6201,4.7497,4.7497,4.7497,4.7497,4.7497,4.7497,4.7497,4.7497,4.7497,4.7497,4.7497,4.7497,4.7497,4.7497,4.7497,4.7497,4.7497,4.7497,4.7497,4.7497,4.7497,4.7497,4.7497,4.7497,4.7497,4.7497,4.7497,4.7497,4.7497,4.7497,4.7497,4.7497,4.7497,4.7497,4.7497,4.7497,4.7497,4.7497,4.7497,4.7497,4.7098,4.6965,4.6965,4.6697,4.6697,4.7098,4.6989,4.7232,4.7497,4.7497,4.7232,4.7098,4.7364,4.7364,4.7098,4.7364,4.7497,4.7497,4.7497,4.7232,4.6965,4.6563,4.616,4.589,4.589,4.5619,4.537,4.537,4.537,4.537,4.537,4.537,4.537,4.537,4.537,4.537,4.537,4.2936,4.1084,4.08,3.8224,3.6497,3.6201,3.6201,3.6201,3.6201,3.6201,3.6201,3.6201,3.6201,3.6201,3.6201,3.6201,3.6201,3.6201,3.6201,3.6201,3.6201,3.6201,3.6201,3.6201,3.6201,3.6201,3.6201,3.6201,3.6201,3.6201,3.6201,3.6201,3.6201,3.6201,3.6201,3.6201,3.6201,3.6201,3.6201,4.7497,4.7497,4.7497,4.7497,4.7497,4.7497,4.7497,4.7497,4.7497,4.7497,4.7497,4.7497,4.7497,4.7497,4.7497,4.7497,4.7497,4.7497,4.7497,4.7497,4.7497,4.7497,4.7497,4.7497,4.7497,4.7497,4.7497,4.7497,4.7497,4.7497,4.7497,4.7497,4.7497,4.7497,4.7497,4.7497,4.7497,4.7497,4.7497,4.7497,4.7364,4.7232,4.7232,4.7098,4.7098,4.7232,4.7098,4.7232,4.7497,4.7232,4.7232,4.7232,4.7497,4.7364,4.7232,4.7497,4.7497,4.7497,4.7232,4.7098,4.6831,4.654,4.616,4.589,4.589,4.5619,4.537,4.537,4.537,4.537,4.537,4.537,4.537,4.537,4.464,4.4228,4.4228,4.2236,4.0514,3.9654,3.837,3.707,3.6349,3.6201,3.6201,3.6201,3.6201,3.6201,3.6201,3.6201,3.6201,3.6201,3.6201,3.6201,3.6201,3.6201,3.6201,3.6201,3.6201,3.6201,3.6201,3.6201,3.6201,3.6201,3.6201,3.6201,3.6201,3.6201,3.6201,3.6201,3.6201,3.6201,3.6201,3.6201,3.6201,3.6201,4.7497,4.7497,4.7497,4.7497,4.7497,4.7497,4.7497,4.7497,4.7497,4.7497,4.7497,4.7497,4.7497,4.7497,4.7497,4.7497,4.7497,4.7497,4.7497,4.7497,4.7497,4.7497,4.7497,4.7497,4.7497,4.7497,4.7497,4.7497,4.7497,4.7497,4.7497,4.7497,4.7497,4.7497,4.7497,4.7497,4.7497,4.7497,4.7497,4.7497,4.7497,4.7497,4.7497,4.7497,4.7497,4.7497,4.7232,4.7232,4.7497,4.7232,4.7232,4.7364,4.7497,4.7497,4.7364,4.7497,4.7497,4.7364,4.6831,4.6697,4.6697,4.6294,4.6025,4.5754,4.5754,4.5619,4.537,4.537,4.537,4.537,4.537,4.537,4.537,4.537,4.409,4.3097,4.3097,4.153,3.9798,3.8641,3.8224,3.7511,3.6349,3.6201,3.6201,3.6201,3.6201,3.6201,3.6201,3.6201,3.6201,3.6201,3.6201,3.6201,3.6201,3.6201,3.6201,3.6201,3.6201,3.6201,3.6201,3.6201,3.6201,3.6201,3.6201,3.6201,3.6201,3.6201,3.6201,3.6201,3.6201,3.6201,3.6201,3.6201,3.6201,3.6201,4.7497,4.7497,4.7497,4.7497,4.7497,4.7497,4.7497,4.7497,4.7497,4.7497,4.7497,4.7497,4.7497,4.7497,4.7497,4.7497,4.7497,4.7497,4.7497,4.7497,4.7497,4.7497,4.7497,4.7497,4.7497,4.7497,4.7497,4.7497,4.7497,4.7497,4.7497,4.7497,4.7497,4.7497,4.7497,4.7497,4.7497,4.7497,4.7497,4.7497,4.7497,4.7497,4.7497,4.7497,4.7497,4.7497,4.7497,4.7497,4.7497,4.7497,4.7232,4.7098,4.7364,4.7232,4.7098,4.7364,4.7497,4.7232,4.6294,4.6025,4.589,4.5619,4.5506,4.5483,4.5483,4.537,4.537,4.537,4.537,4.537,4.537,4.537,4.537,4.537,4.409,4.3097,4.3097,4.0514,3.8641,3.8496,3.7217,3.6349,3.6201,3.6201,3.6201,3.6201,3.6201,3.6201,3.6201,3.6201,3.6201,3.6201,3.6201,3.6201,3.6201,3.6201,3.6201,3.6201,3.6201,3.6201,3.6201,3.6201,3.6201,3.6201,3.6201,3.6201,3.6201,3.6201,3.6201,3.6201,3.6201,3.6201,3.6201,3.6201,3.6201,3.6201,4.7497,4.7497,4.7497,4.7497,4.7497,4.7497,4.7497,4.7497,4.7497,4.7497,4.7497,4.7497,4.7497,4.7497,4.7497,4.7497,4.7497,4.7497,4.7497,4.7497,4.7497,4.7497,4.7497,4.7497,4.7497,4.7497,4.7497,4.7497,4.7497,4.7497,4.7497,4.7497,4.7497,4.7497,4.7497,4.7497,4.7497,4.7497,4.7497,4.7497,4.7497,4.7497,4.7497,4.7497,4.7497,4.7497,4.7497,4.7497,4.7497,4.7497,4.7364,4.7364,4.7497,4.7364,4.7232,4.7232,4.7232,4.7098,4.6429,4.6429,4.6429,4.589,4.5754,4.5619,4.5483,4.537,4.5074,4.4228,4.3952,4.3653,4.2656,4.2516,4.2516,4.2516,4.1226,4.0228,4.0228,3.837,3.707,3.707,3.6497,3.6201,3.6201,3.6201,3.6201,3.6201,3.6201,3.6201,3.6201,3.6201,3.6201,3.6201,3.6201,3.6201,3.6201,3.6201,3.6201,3.6201,3.6201,3.6201,3.6201,3.6201,3.6201,3.6201,3.6201,3.6201,3.6201,3.6201,3.6201,3.6201,3.6201,3.6201,3.6201,3.6201,3.6201,3.6201,4.7497,4.7497,4.7497,4.7497,4.7497,4.7497,4.7497,4.7497,4.7497,4.7497,4.7497,4.7497,4.7497,4.7497,4.7497,4.7497,4.7497,4.7497,4.7497,4.7497,4.7497,4.7497,4.7497,4.7497,4.7497,4.7497,4.7497,4.7497,4.7497,4.7497,4.7497,4.7497,4.7497,4.7497,4.7497,4.7497,4.7497,4.7497,4.7497,4.7497,4.7497,4.7497,4.7497,4.7497,4.7497,4.7497,4.7497,4.7497,4.7497,4.7497,4.7497,4.7497,4.7497,4.7232,4.6808,4.654,4.6113,4.5708,4.5414,4.5572,4.5708,4.546,4.5324,4.5187,4.4503,4.4228,4.3791,4.2818,4.2538,4.2095,4.0942,4.08,4.08,4.08,3.951,3.8516,3.8516,3.7217,3.6201,3.6201,3.6201,3.6201,3.6201,3.6201,3.6201,3.6201,3.6201,3.6201,3.6201,3.6201,3.6201,3.6201,3.6201,3.6201,3.6201,3.6201,3.6201,3.6201,3.6201,3.6201,3.6201,3.6201,3.6201,3.6201,3.6201,3.6201,3.6201,3.6201,3.6201,3.6201,3.6201,3.6201,3.6201,3.6201,3.6201,3.6201,4.7497,4.7497,4.7497,4.7497,4.7497,4.7497,4.7497,4.7497,4.7497,4.7497,4.7497,4.7497,4.7497,4.7497,4.7497,4.7497,4.7497,4.7497,4.7497,4.7497,4.7497,4.7497,4.7497,4.7497,4.7497,4.7497,4.7497,4.7497,4.7497,4.7497,4.7497,4.7497,4.7497,4.7497,4.7497,4.7497,4.7497,4.7497,4.7497,4.7497,4.7497,4.7497,4.7497,4.7497,4.7497,4.7497,4.7497,4.7497,4.7497,4.7497,4.7497,4.7497,4.7497,4.6516,4.5278,4.5278,4.4161,4.3032,4.3032,4.3032,4.3171,4.4045,4.4183,4.3769,4.2376,4.1693,4.141,4.141,4.1105,4.08,4.08,4.08,4.08,4.08,3.951,3.8516,3.8516,3.7217,3.6201,3.6201,3.6201,3.6201,3.6201,3.6201,3.6201,3.6201,3.6201,3.6201,3.6201,3.6201,3.6201,3.6201,3.6201,3.6201,3.6201,3.6201,3.6201,3.6201,3.6201,3.6201,3.6201,3.6201,3.6201,3.6201,3.6201,3.6201,3.6201,3.6201,3.6201,3.6201,3.6201,3.6201,3.6201,3.6201,3.6201,3.6201,4.7497,4.7497,4.7497,4.7497,4.7497,4.7497,4.7497,4.7497,4.7497,4.7497,4.7497,4.7497,4.7497,4.7497,4.7497,4.7497,4.7497,4.7497,4.7497,4.7497,4.7497,4.7497,4.7497,4.7497,4.7497,4.7497,4.7497,4.7497,4.7497,4.7497,4.7497,4.7497,4.7497,4.7497,4.7497,4.7497,4.7497,4.7497,4.7497,4.7497,4.7497,4.7497,4.7497,4.7497,4.6808,4.5978,4.5978,4.5978,4.5978,4.5978,4.665,4.7364,4.6248,4.4846,4.3725,4.3725,4.3309,4.3032,4.3032,4.3032,4.3032,4.3053,4.3053,4.2774,4.2095,4.1975,4.1551,4.0412,4.0126,3.955,3.8243,3.7951,3.7951,3.7639,3.7217,3.6922,3.6922,3.6497,3.6201,3.6201,3.6201,3.6201,3.6201,3.6201,3.6201,3.6201,3.6201,3.6201,3.6201,3.6201,3.6201,3.6201,3.6201,3.6201,3.6201,3.6201,3.6201,3.6201,3.6201,3.6201,3.6201,3.6201,3.6201,3.6201,3.6201,3.6201,3.6201,3.6201,3.6201,3.6201,3.6201,3.6201,3.6201,3.6201,3.6201,3.6201,4.7497,4.7497,4.7497,4.7497,4.7497,4.7497,4.7497,4.7497,4.7497,4.7497,4.7497,4.7497,4.7497,4.7497,4.7497,4.7497,4.7497,4.7497,4.7497,4.7497,4.7497,4.7497,4.7497,4.7497,4.7497,4.7497,4.7497,4.7497,4.7497,4.7497,4.7497,4.7497,4.7497,4.7497,4.7497,4.7497,4.7497,4.7497,4.7497,4.7497,4.7497,4.7497,4.7497,4.6808,4.6113,4.5278,4.4573,4.4436,4.4436,4.4436,4.4983,4.5549,4.4709,4.3309,4.2193,4.2193,4.1771,4.1226,4.1226,4.1226,4.1226,4.0963,4.1368,4.1651,4.082,4.0555,4.0126,3.9281,3.8846,3.8409,3.7255,3.7107,3.696,3.6664,3.6516,3.6497,3.6664,3.6516,3.6516,3.6664,3.6516,3.6516,3.6516,3.6349,3.6201,3.6201,3.6201,3.6201,3.6201,3.6201,3.6201,3.6201,3.6201,3.6201,3.6201,3.6201,3.6201,3.6201,3.6201,3.6201,3.6201,3.6201,3.6201,3.6201,3.6201,3.6201,3.6201,3.6201,3.6201,3.6201,3.6201,3.6201,3.6201,3.6201,3.6201,3.6201,4.7497,4.7497,4.7497,4.7497,4.7497,4.7497,4.7497,4.7497,4.7497,4.7497,4.7497,4.7497,4.7497,4.7497,4.7497,4.7497,4.7497,4.7497,4.7497,4.7497,4.7497,4.7497,4.7497,4.7497,4.7497,4.7497,4.7497,4.7497,4.7497,4.7497,4.7497,4.7497,4.7497,4.7497,4.7497,4.7497,4.7497,4.7497,4.7497,4.7497,4.7497,4.7497,4.7364,4.5978,4.5278,4.4846,4.3448,4.2892,4.2892,4.3032,4.2892,4.2753,4.2753,4.1771,4.0657,4.0657,3.9694,3.8574,3.8574,3.8574,3.8574,3.8574,3.955,4.0249,3.8846,3.8302,3.8009,3.8009,3.7715,3.7549,3.7421,3.7402,3.7421,3.7421,3.7107,3.696,3.7421,3.7107,3.696,3.7402,3.7107,3.6812,3.6812,3.6516,3.6201,3.6201,3.6201,3.6201,3.6201,3.6201,3.6201,3.6201,3.6201,3.6201,3.6201,3.6201,3.6201,3.6201,3.6201,3.6201,3.6201,3.6201,3.6201,3.6201,3.6201,3.6201,3.6201,3.6201,3.6201,3.6201,3.6201,3.6201,3.6201,3.6201,3.6201,3.6201,4.7894,4.763,4.7497,4.7497,4.7497,4.7497,4.7497,4.7497,4.7497,4.7497,4.7497,4.7497,4.7497,4.7497,4.7497,4.7497,4.7497,4.7497,4.7497,4.7497,4.7497,4.7497,4.7497,4.7497,4.7497,4.7497,4.7497,4.7497,4.7497,4.7497,4.7497,4.7497,4.7497,4.7497,4.7497,4.7497,4.7497,4.7497,4.7497,4.7497,4.7497,4.7497,4.7497,4.7074,4.5549,4.3448,4.3171,4.2193,4.1488,4.2613,4.2193,4.1226,4.1226,4.0249,3.9136,3.9136,3.8865,3.8574,3.8574,3.8574,3.8574,3.8574,3.8865,3.8991,3.872,3.8574,3.8428,3.8428,3.8428,3.8282,3.7862,3.7862,3.7715,3.7402,3.7274,3.7255,3.7421,3.7255,3.7255,3.7421,3.7255,3.7255,3.7255,3.696,3.6516,3.6201,3.6201,3.6201,3.6201,3.6201,3.6201,3.6201,3.6201,3.6201,3.6201,3.6201,3.6201,3.6201,3.6201,3.6201,3.6201,3.6201,3.6201,3.6201,3.6201,3.6201,3.6201,3.6201,3.6201,3.6201,3.6201,3.6201,3.6201,3.6201,3.6201,3.6201,4.8026,4.7894,4.763,4.7497,4.7497,4.7497,4.7497,4.7497,4.7497,4.7497,4.7497,4.7497,4.7497,4.7497,4.7497,4.7497,4.7497,4.7497,4.7497,4.7497,4.7497,4.7497,4.7497,4.7497,4.7497,4.7497,4.7497,4.7497,4.7497,4.7497,4.7497,4.7497,4.7497,4.7497,4.7497,4.7497,4.7497,4.7497,4.7497,4.7497,4.7497,4.7497,4.7364,4.6674,4.5414,4.3863,4.2473,4.0942,3.9838,4.0657,4.0392,3.9694,3.9694,3.9281,3.8574,3.8574,3.8574,3.8574,3.8574,3.8574,3.8574,3.8574,3.8574,3.8574,3.8574,3.8574,3.8574,3.8574,3.8574,3.8574,3.8302,3.8302,3.8302,3.799,3.7843,3.7715,3.799,3.7862,3.7715,3.799,3.7862,3.7568,3.7107,3.696,3.6664,3.6201,3.6201,3.6201,3.6201,3.6201,3.6201,3.6201,3.6201,3.6201,3.6201,3.6201,3.6201,3.6201,3.6201,3.6201,3.6201,3.6201,3.6201,3.6201,3.6201,3.6201,3.6201,3.6201,3.6201,3.6201,3.6201,3.6201,3.6201,3.6201,3.6201,3.6201,4.8313,4.8158,4.8026,4.763,4.763,4.763,4.7497,4.7497,4.7497,4.7497,4.7497,4.7497,4.7497,4.7497,4.7497,4.7497,4.7497,4.7497,4.7497,4.7497,4.7497,4.7497,4.7497,4.7497,4.7497,4.7497,4.7497,4.7497,4.7497,4.7497,4.7497,4.7497,4.7497,4.7497,4.7497,4.7497,4.7497,4.7497,4.7497,4.7497,4.7497,4.7497,4.7364,4.6113,4.5549,4.5005,4.2473,4.0392,3.8991,3.872,3.8574,3.8574,3.8574,3.8574,3.8574,3.8574,3.8574,3.8574,3.8574,3.8574,3.8574,3.8574,3.8574,3.8574,3.8574,3.8574,3.8574,3.8574,3.8574,3.8574,3.8574,3.8574,3.8574,3.8574,3.8302,3.8155,3.8574,3.8302,3.8302,3.8574,3.8302,3.7862,3.7107,3.696,3.6812,3.6516,3.6367,3.6349,3.6367,3.6349,3.6201,3.6201,3.6201,3.6201,3.6201,3.6201,3.6201,3.6201,3.6201,3.6201,3.6201,3.6201,3.6201,3.6201,3.6201,3.6201,3.6201,3.6201,3.6201,3.6201,3.6201,3.6201,3.6201,3.6201,3.6201,3.6201,4.9041,4.8706,4.8445,4.8026,4.7894,4.7894,4.7497,4.7497,4.7497,4.7497,4.7497,4.7497,4.7497,4.7497,4.7497,4.7497,4.7497,4.7497,4.7497,4.7497,4.7497,4.7497,4.7497,4.7497,4.7497,4.7497,4.7497,4.7497,4.7497,4.7497,4.7497,4.7497,4.7497,4.7497,4.7497,4.7497,4.7497,4.7497,4.7497,4.7497,4.7497,4.7497,4.7497,4.7232,4.6382,4.5278,4.4846,4.2892,4.0249,3.8991,3.8574,3.8574,3.8574,3.8574,3.8574,3.8574,3.8574,3.8574,3.8574,3.8574,3.8574,3.8574,3.8574,3.8574,3.8574,3.8574,3.8574,3.8574,3.8574,3.8574,3.8574,3.8574,3.8574,3.8574,3.8574,3.8574,3.8574,3.8574,3.8574,3.8574,3.8574,3.8302,3.7862,3.7862,3.7715,3.7255,3.7255,3.7107,3.6812,3.6664,3.6516,3.6201,3.6201,3.6201,3.6201,3.6201,3.6201,3.6201,3.6201,3.6201,3.6201,3.6201,3.6201,3.6201,3.6201,3.6201,3.6201,3.6201,3.6201,3.6201,3.6201,3.6201,3.6201,3.6201,3.6201,3.6201,4.9569,4.9165,4.8706,4.8445,4.8158,4.7894,4.7762,4.763,4.7497,4.7497,4.7497,4.7497,4.7497,4.7497,4.7497,4.7497,4.7497,4.7497,4.7497,4.7497,4.7497,4.7497,4.7497,4.7497,4.7497,4.7497,4.7497,4.7497,4.7497,4.7497,4.7497,4.7497,4.7497,4.7497,4.7497,4.7497,4.7497,4.7497,4.7497,4.7497,4.7497,4.7497,4.7497,4.7497,4.7098,4.6382,4.5549,4.3309,4.0657,4.0105,3.9281,3.8574,3.8574,3.8574,3.8574,3.8574,3.8574,3.8574,3.8574,3.8574,3.8574,3.8574,3.8574,3.8574,3.8574,3.8574,3.8574,3.8574,3.8574,3.8574,3.8574,3.8574,3.8574,3.8574,3.8574,3.8574,3.8574,3.8574,3.8574,3.8574,3.8574,3.8428,3.8009,3.8009,3.7862,3.7402,3.7421,3.7255,3.7107,3.7107,3.7107,3.6812,3.6812,3.6812,3.6516,3.6516,3.6367,3.6201,3.6201,3.6201,3.6201,3.6201,3.6201,3.6201,3.6201,3.6201,3.6201,3.6201,3.6201,3.6201,3.6201,3.6201,3.6201,3.6201,3.6201,3.6201]},{"header":{"parameterUnit":"m.s-1","parameterCategory":1,"la1":30.6,"la2":28.766,"lo1":-90.7593,"lo2":-88.6598,"dy":0.0162,"dx":0.0183,"nx":116,"ny":114,"refTime":"2023-02-27T06:00:00:Z","depth":0,"parameterNumber":3,"parameterNumberName":"V-component_of_WINDS"},"data":[0.0,0.0,0.0,0.0,0.0,0.0,0.0,0.0,0.0,0.0,0.0,0.0,0.0,0.0,0.0,0.0,0.0,0.0,0.0,0.0,0.0,0.0,0.0,0.0,0.0,0.0,0.0,0.0,0.0,0.0,0.0,0.0,0.0,0.0,0.0,0.0,0.0,0.0,0.0,0.0,0.0,0.0,0.0,0.0,0.0,0.0,0.0,0.0,0.0,0.0,0.0,0.0,0.0,0.0,0.0,0.0,0.0,0.0,0.0,0.0,0.0,0.0,0.0,0.0,0.0,0.0,0.0,0.0,0.0,0.0,0.0,0.0,0.0,0.0,0.0,0.0,0.0,0.0,0.0,0.0,0.0,0.0,0.0,0.0,0.0,0.0,0.0,0.0,0.0,0.0,0.0,0.0,0.0,0.0,0.0,0.0,0.0,0.0,0.0,0.0,0.0,0.0,0.0,0.0,0.0,0.0,0.0,0.0,0.0,0.0,0.0,0.0,0.0,0.0,0.0,0.0,0.0,0.0,0.0,0.0,0.0,0.0,0.0,0.0,0.0,0.0,0.0,0.0,0.0,0.0,0.0,0.0,0.0,0.0,0.0,0.0,0.0,0.0,0.0,0.0,0.0,0.0,0.0,0.0,0.0,0.0,0.0,0.0,0.0,0.0,0.0,0.0,0.0,0.0,0.0,0.0,0.0,0.0,0.0,0.0,0.0,0.0,0.0,0.0,0.0,0.0,0.0,0.0,0.0,0.0,0.0,0.0,0.0,0.0,0.0,0.0,0.0,0.0,0.0,0.0,0.0,0.0,0.0,0.0,0.0,0.0,0.0,0.0,0.0,0.0,0.0,0.0,0.0,0.0,0.0,0.0,0.0,0.0,0.0,0.0,0.0,0.0,0.0,0.0,0.0,0.0,0.0,0.0,0.0,0.0,0.0,0.0,0.0,0.0,0.0,0.0,0.0,0.0,0.0,0.0,0.0,0.0,0.0,0.0,0.0,0.0,0.0,0.0,0.0,0.0,0.0,0.0,0.0,0.0,0.0,0.0,0.0,0.0,0.0,0.0,0.0,0.0,0.0,0.0,0.0,0.0,0.0,0.0,0.0,0.0,0.0,0.0,0.0,0.0,0.0,0.0,0.0,0.0,0.0,0.0,0.0,0.0,0.0,0.0,0.0,0.0,0.0,0.0,0.0,0.0,0.0,0.0,0.0,0.0,0.0,0.0,0.0,0.0,0.0,0.0,0.0,0.0,0.0,0.0,0.0,0.0,0.0,0.0,0.0,0.0,0.0,0.0,0.0,0.0,0.0,0.0,0.0,0.0,0.0,0.0,0.0,0.0,0.0,0.0,0.0,0.0,0.0,0.0,0.0,0.0,0.0,0.0,0.0,0.0,0.0,0.0,0.0,0.0,0.0,0.0,0.0,0.0,0.0,0.0,0.0,0.0,0.0,0.0,0.0,0.0,0.0,0.0,0.0,0.0,0.0,0.0,0.0,0.0,0.0,0.0,0.0,0.0,0.0,0.0,0.0,0.0,0.0,0.0,0.0,0.0,0.0,0.0,0.0,0.0,0.0,0.0,0.0,0.0,0.0,0.0,0.0,0.0,0.0,0.0,0.0,0.0,0.0,0.0,0.0,0.0,0.0,0.0,0.0,0.0,0.0,0.0,0.0,0.0,0.0,0.0,0.0,0.0,0.0,0.0,0.0,0.0,0.0,0.0,0.0,0.0,0.0,0.0,0.0,0.0,0.0,0.0,0.0,0.0,0.0,0.0,0.0,0.0,0.0,0.0,0.0,0.0,0.0,0.0,0.0,0.0,0.0,0.0,0.0,0.0,0.0,0.0,0.0,0.0,0.0,0.0,0.0,0.0,0.0,0.0,0.0,0.0,0.0,0.0,0.0,0.0,0.0,0.0,0.0,0.0,0.0,0.0,0.0,0.0,0.0,0.0,0.0,0.0,0.0,0.0,0.0,0.0,0.0,0.0,0.0,0.0,0.0,0.0,0.0,0.0,0.0,0.0,0.0,0.0,0.0,0.0,0.0,0.0,0.0,0.0,0.0,0.0,0.0,0.0,0.0,0.0,0.0,0.0,0.0,0.0,0.0,0.0,0.0,0.0,0.0,0.0,0.0,0.0,0.0,0.0,0.0,0.0,0.0,0.0,0.0,0.0,0.0,0.0,0.0,0.0,0.0,0.0,0.0,0.0,0.0,0.0,0.0,0.0,0.0,0.0,0.0,0.0,0.0,0.0,0.0,0.0,0.0,0.0,0.0,0.0,0.0,0.0,0.0,0.0,0.0,0.0,0.0,0.0,0.0,0.0,0.0,0.0,0.0,0.0,0.0,0.0,0.0,0.0,0.0,0.0,0.0,0.0,0.0,0.0,0.0,0.0,0.0,0.0,0.0,0.0,0.0,0.0,0.0,0.0,0.0,0.0,0.0,0.0,0.0,0.0,0.0,0.0,0.0,0.0,0.0,0.0,0.0,0.0,0.0,0.0,0.0,0.0,0.0,0.0,0.0,0.0,0.0,0.0,0.0,0.0,0.0,0.0,0.0,0.0,0.0,0.0,0.0,0.0,0.0,0.0,0.0,0.0,0.0,0.0,0.0,0.0,0.0,0.0,0.0,0.0,0.0,0.0,0.0,0.0,0.0,0.0,0.0,0.0,0.0,0.0,0.0,0.0,0.0,0.0,0.0,0.0,0.0,0.0,0.0,0.0,0.0,0.0,0.0,0.0,0.0,0.0,0.0,0.0,0.0,0.0,0.0,0.0,0.0,0.0,0.0,0.0,0.0,0.0,0.0,0.0,0.0,0.0,0.0,0.0,0.0,0.0,0.0,0.0,0.0,0.0,0.0,0.0,0.0,0.0,0.0,0.0,0.0,0.0,0.0,0.0,0.0,0.0,0.0,0.0,0.0,0.0,0.0,0.0,0.0,0.0,0.0,0.0,0.0,0.0,0.0,0.0,0.0,0.0,0.0,0.0,0.0,0.0,0.0,0.0,0.0,0.0,0.0,0.0,0.0,0.0,0.0,0.0,0.0,0.0,0.0,0.0,0.0,0.0,0.0,0.0,0.0,0.0,0.0,0.0,0.0,0.0,0.0,0.0,0.0,0.0,0.0,0.0,0.0,0.0,0.0,0.0,0.0,0.0,0.0,0.0,0.0,0.0,0.0,0.0,0.0,0.0,0.0,0.0,0.0,0.0,0.0,0.0,0.0,0.0,0.0,0.0,0.0,0.0,0.0,0.0,0.0,0.0,0.0,0.0,0.0,0.0,0.0,0.0,0.0,0.0,0.0,0.0,0.0,0.0,0.0,0.0,0.0,0.0,0.0,0.0,0.0,0.0,0.0,0.0,0.0,0.0,0.0,0.0,0.0,0.0,0.0,0.0,0.0,0.0,0.0,0.0,0.0,0.0,0.0,0.0,0.0,0.0,0.0,0.0,0.0,0.0,0.0,0.0,0.0,0.0,0.0,0.0,0.0,0.0,0.0,0.0,0.0,0.0,0.0,0.0,0.0,0.0,0.0,0.0,0.0,0.0,0.0,0.0,0.0,0.0,0.0,0.0,0.0,0.0,0.0,0.0,0.0,0.0,0.0,0.0,0.0,0.0,0.0,0.0,0.0,0.0,0.0,0.0,0.0,0.0,0.0,0.0,0.0,0.0,0.0,0.0,0.0,0.0,0.0,0.0,0.0,0.0,0.0,0.0,0.0,0.0,0.0,0.0,0.0,0.0,0.0,0.0,0.0,0.0,0.0,0.0,0.0,0.0,0.0,0.0,0.0,0.0,0.0,0.0,0.0,0.0,0.0,0.0,0.0,0.0,0.0,0.0,0.0,0.0,0.0,0.0,0.0,0.0,0.0,0.0,0.0,0.0,0.0,0.0,0.0,0.0,0.0,0.0,0.0,0.0,0.0,0.0,0.0,0.0,0.0,0.0,0.0,0.0,0.0,0.0,0.0,0.0,0.0,0.0,0.0,0.0,0.0,0.0,0.0,0.0,0.0,0.0,0.0,0.0,0.0,0.0,0.0,0.0,0.0,0.0,0.0,0.0,0.0,0.0,0.0,0.0,0.0,0.0,0.0,0.0,0.0,0.0,0.0,0.0,0.0,0.0,0.0,0.0,0.0,0.0,0.0,0.0,0.0,0.0,0.0,0.0,0.0,0.0,0.0,0.0,0.0,0.0,0.0,0.0,0.0,0.0,0.0,0.0,0.0,0.0,0.0,0.0,0.0,0.0,0.0,0.0,0.0,0.0,0.0,0.0,0.0,0.0,0.0,0.0,0.0,0.0,0.0,0.0,0.0,0.0,0.0,0.0,0.0,0.0,0.0,0.0,0.0,0.0,0.0,0.0,0.0,0.0,0.0,0.0,0.0,0.0,0.0,0.0,0.0,0.0,0.0,0.0,0.0,0.0,0.0,0.0,0.0,0.0,0.0,0.0,0.0,0.0,0.0,0.0,0.0,0.0,0.0,0.0,0.0,0.0,0.0,0.0,0.0,0.0,0.0,0.0,0.0,0.0,0.0,0.0,0.0,0.0,0.0,0.0,0.0,0.0,0.0,0.0,0.0,0.0,0.0,0.0,0.0,0.0,0.0,0.0,0.0,0.0,0.0,0.0,0.0,0.0,0.0,0.0,0.0,0.0,0.0,0.0,0.0,0.0,0.0,0.0,0.0,0.0,0.0,0.0,0.0,0.0,0.0,0.0,0.0,0.0,0.0,0.0,0.0,0.0,0.0,0.0,0.0,0.0,0.0,0.0,0.0,0.0,0.0,0.0,0.0,0.0,0.0,0.0,0.0,0.0,0.0,0.0,0.0,0.0,0.0,0.0,0.0,0.0,0.0,0.0,0.0,0.0,0.0,0.0,0.0,0.0,0.0,0.0,0.0,0.0,0.0,0.0,0.0,0.0,0.0,0.0,0.0,0.0,0.0,0.0,0.0,0.0,0.0,0.0,0.0,0.0,0.0,0.0,0.0,0.0,0.0,0.0,0.0,0.0,0.0,0.0,0.0,0.0,0.0,0.0,0.0,0.0,0.0,0.0,0.0,0.0,0.0,0.0,0.0,0.0,0.0,0.0,0.0,0.0,0.0,0.0,0.0,0.0,0.0,0.0,0.0,0.0,0.0,0.0,0.0,0.0,0.0,0.0,0.0,0.0,0.0,0.0,0.0,0.0,0.0,0.0,0.0,0.0,0.0,0.0,0.0,0.0,0.0,0.0,0.0,0.0,0.0,0.0,0.0,0.0,0.0,0.0,0.0,0.0,0.0,0.0,0.0,0.0,0.0,0.0,0.0,0.0,0.0,0.0,0.0,0.0,0.0,0.0,0.0,0.0,0.0,0.0,0.0,0.0,0.0,0.0,0.0,0.0,0.0,0.0,0.0,0.0,0.0,0.0,0.0,0.0,0.0,0.0,0.0,0.0,0.0,0.0,0.0,0.0,0.0,0.0,0.0,0.0,0.0,0.0,0.0,0.0,0.0,0.0,0.0,0.0,0.0,0.0,0.0,0.0,0.0,0.0,0.0,0.0,0.0,0.0,0.0,0.0,0.0,0.0,0.0,0.0,0.0,0.0,0.0,0.0,0.0,0.0,0.0,0.0,0.0,0.0,0.0,0.0,0.0,0.0,0.0,0.0,0.0,0.0,0.0,0.0,0.0,0.0,0.0,0.0,0.0,0.0,0.0,0.0,0.0,0.0,0.0,0.0,0.0,0.0,0.0,0.0,0.0,0.0,0.0,0.0,0.0,0.0,0.0,0.0,0.0,0.0,0.0,0.0,0.0,0.0,0.0,0.0,0.0,0.0,0.0,0.0,0.0,0.0,0.0,0.0,0.0,0.0,0.0,0.0,0.0,0.0,0.0,0.0,0.0,0.0,0.0,0.0,0.0,0.0,0.0,0.0,0.0,0.0,0.0,0.0,0.0,0.0,0.0,0.0,0.0,0.0,0.0,0.0,0.0,0.0,0.0,0.0,0.0,0.0,0.0,0.0,0.0,0.0,0.0,0.0,0.0,0.0,0.0,0.0,0.0,0.0,0.0,0.0,0.0,0.0,0.0,0.0,0.0,0.0,0.0,0.0,0.0,0.0,0.0,0.0,0.0,0.0,-5.2062,-5.2129,0.0,0.0,0.0,0.0,0.0,0.0,0.0,0.0,0.0,0.0,0.0,0.0,0.0,0.0,0.0,0.0,0.0,0.0,0.0,0.0,0.0,0.0,0.0,0.0,0.0,0.0,0.0,0.0,0.0,0.0,0.0,0.0,0.0,0.0,0.0,0.0,0.0,0.0,0.0,0.0,0.0,0.0,0.0,0.0,0.0,0.0,0.0,0.0,0.0,0.0,0.0,0.0,0.0,0.0,0.0,0.0,0.0,0.0,0.0,0.0,0.0,0.0,0.0,0.0,0.0,0.0,0.0,0.0,0.0,0.0,0.0,0.0,0.0,0.0,0.0,0.0,0.0,0.0,0.0,0.0,0.0,0.0,0.0,0.0,0.0,0.0,0.0,0.0,0.0,0.0,0.0,0.0,0.0,0.0,0.0,0.0,0.0,0.0,0.0,0.0,0.0,0.0,0.0,0.0,0.0,0.0,0.0,0.0,0.0,0.0,0.0,0.0,0.0,0.0,-5.3498,-5.3334,0.0,0.0,0.0,0.0,0.0,0.0,0.0,0.0,0.0,0.0,0.0,0.0,0.0,0.0,0.0,0.0,0.0,0.0,0.0,0.0,0.0,0.0,0.0,0.0,0.0,0.0,0.0,0.0,0.0,0.0,0.0,0.0,0.0,0.0,0.0,0.0,0.0,0.0,0.0,0.0,0.0,0.0,0.0,0.0,0.0,0.0,0.0,0.0,0.0,0.0,0.0,0.0,0.0,0.0,0.0,0.0,0.0,0.0,0.0,0.0,0.0,0.0,0.0,0.0,0.0,0.0,0.0,0.0,0.0,0.0,0.0,0.0,0.0,0.0,0.0,0.0,0.0,0.0,0.0,0.0,0.0,0.0,0.0,0.0,0.0,0.0,0.0,0.0,0.0,0.0,0.0,0.0,0.0,0.0,0.0,0.0,0.0,0.0,0.0,0.0,0.0,0.0,0.0,0.0,0.0,0.0,0.0,0.0,-5.329,-5.3957,-5.424,-5.4543,-5.4792,-5.4891,-5.4891,-5.4599,-5.424,-5.4675,0.0,0.0,0.0,0.0,0.0,0.0,0.0,0.0,0.0,0.0,0.0,0.0,0.0,0.0,0.0,0.0,0.0,0.0,0.0,0.0,0.0,0.0,0.0,0.0,0.0,0.0,0.0,0.0,0.0,0.0,0.0,0.0,0.0,0.0,0.0,0.0,0.0,0.0,0.0,0.0,0.0,0.0,0.0,0.0,0.0,0.0,0.0,0.0,0.0,0.0,0.0,0.0,0.0,0.0,0.0,0.0,0.0,0.0,0.0,0.0,0.0,0.0,0.0,0.0,0.0,0.0,0.0,0.0,0.0,0.0,0.0,0.0,0.0,0.0,0.0,0.0,0.0,0.0,0.0,0.0,0.0,0.0,0.0,0.0,0.0,0.0,-4.8867,-4.9489,0.0,0.0,0.0,0.0,0.0,0.0,0.0,0.0,0.0,0.0,0.0,0.0,0.0,-5.1311,-5.2141,-5.2413,-5.2907,-5.3607,-5.3782,-5.4405,-5.5412,-5.5412,-5.5819,-5.6415,-5.6415,0.0,-5.5445,-5.615,0.0,0.0,0.0,0.0,0.0,0.0,0.0,0.0,0.0,0.0,0.0,0.0,0.0,0.0,0.0,0.0,0.0,0.0,0.0,0.0,0.0,0.0,0.0,0.0,0.0,0.0,0.0,0.0,0.0,0.0,0.0,0.0,0.0,0.0,0.0,0.0,0.0,0.0,0.0,0.0,0.0,0.0,0.0,0.0,0.0,0.0,0.0,0.0,0.0,0.0,0.0,0.0,0.0,0.0,0.0,0.0,0.0,0.0,0.0,0.0,0.0,0.0,0.0,0.0,0.0,0.0,0.0,0.0,0.0,0.0,0.0,0.0,0.0,0.0,0.0,0.0,0.0,0.0,0.0,0.0,0.0,0.0,0.0,0.0,0.0,-4.9153,-4.9582,-4.9852,-4.9931,-4.9931,0.0,0.0,0.0,0.0,0.0,0.0,0.0,0.0,0.0,-5.1949,-5.1949,-5.2349,-5.3036,-5.3272,-5.3812,-5.4513,-5.4744,-5.5369,-5.6216,-5.6216,-5.6382,-5.668,-5.668,-5.6514,-5.6249,-5.6547,-5.668,-5.668,0.0,0.0,0.0,0.0,-5.7574,-5.7906,0.0,0.0,0.0,0.0,0.0,0.0,0.0,0.0,0.0,0.0,0.0,0.0,0.0,0.0,0.0,-3.6334,0.0,0.0,0.0,0.0,0.0,0.0,0.0,0.0,0.0,0.0,0.0,0.0,0.0,0.0,0.0,0.0,0.0,0.0,0.0,0.0,0.0,0.0,-4.29,0.0,0.0,0.0,0.0,0.0,0.0,0.0,0.0,0.0,0.0,0.0,0.0,0.0,0.0,0.0,0.0,0.0,0.0,0.0,0.0,0.0,0.0,0.0,0.0,0.0,0.0,0.0,0.0,0.0,0.0,0.0,0.0,0.0,0.0,0.0,0.0,0.0,0.0,-4.9931,-4.9931,-4.9931,-5.0089,-5.0184,0.0,0.0,0.0,0.0,0.0,0.0,-5.215,-5.2182,-5.249,-5.3086,-5.2973,-5.3132,-5.3721,-5.4032,-5.4525,-5.516,-5.5666,-5.6183,-5.668,-5.668,-5.6779,-5.6978,-5.6978,-5.7077,-5.7243,-5.7044,-5.6978,-5.6978,-5.7177,-5.7574,-5.8038,-5.7873,-5.8138,-5.8568,0.0,0.0,0.0,0.0,0.0,0.0,0.0,0.0,0.0,0.0,0.0,0.0,0.0,0.0,-3.5737,-3.5764,-3.5764,-3.5764,0.0,0.0,0.0,0.0,0.0,0.0,0.0,0.0,0.0,0.0,0.0,0.0,0.0,0.0,0.0,0.0,0.0,0.0,0.0,0.0,-4.29,-4.29,0.0,0.0,0.0,0.0,0.0,0.0,0.0,0.0,0.0,0.0,0.0,0.0,0.0,0.0,0.0,0.0,0.0,0.0,0.0,0.0,0.0,0.0,0.0,0.0,0.0,0.0,0.0,0.0,0.0,0.0,0.0,0.0,0.0,0.0,0.0,0.0,0.0,0.0,0.0,-4.9931,-5.05,0.0,0.0,0.0,0.0,-5.1954,-5.1954,-5.2118,-5.2637,-5.2637,-5.3198,-5.4276,-5.3628,-5.3753,-5.4939,-5.4939,-5.5205,-5.5544,-5.6316,-5.6647,-5.668,-5.668,-5.7077,-5.774,-5.774,-5.8138,-5.8734,-5.8038,-5.774,-5.7806,-5.8502,-5.88,-5.8767,-5.8038,-5.7806,-5.7939,0.0,0.0,0.0,0.0,0.0,0.0,0.0,0.0,0.0,0.0,0.0,0.0,0.0,-3.571,-3.571,-3.571,-3.571,-3.571,-3.571,0.0,0.0,0.0,0.0,0.0,0.0,0.0,0.0,0.0,0.0,0.0,0.0,0.0,0.0,0.0,0.0,0.0,0.0,0.0,-4.29,-4.29,-4.29,-4.297,0.0,0.0,0.0,0.0,0.0,0.0,0.0,0.0,0.0,0.0,0.0,0.0,0.0,0.0,0.0,0.0,0.0,0.0,0.0,0.0,0.0,0.0,0.0,0.0,0.0,0.0,0.0,0.0,0.0,0.0,0.0,0.0,0.0,0.0,0.0,0.0,0.0,-5.1259,-5.148,0.0,-5.1638,-5.1859,-5.2207,-5.2681,-5.2712,-5.3069,-5.3981,-5.3597,-5.3793,-5.4737,-5.4052,-5.4251,-5.5391,-5.4929,-5.5236,-5.6316,-5.6547,-5.6945,-5.7409,-5.7906,-5.8237,-5.8502,-5.8502,-5.8369,-5.8204,-5.8403,-5.8237,-5.7806,-5.8071,-5.8469,-5.8866,-5.8601,-5.9098,-5.9893,0.0,0.0,0.0,0.0,0.0,0.0,0.0,0.0,0.0,0.0,0.0,-3.571,-3.571,-3.571,-3.571,-3.571,-3.571,-3.571,-3.571,0.0,0.0,0.0,0.0,0.0,0.0,0.0,0.0,0.0,0.0,0.0,0.0,0.0,0.0,0.0,0.0,0.0,0.0,0.0,-4.29,-4.29,-4.29,-4.3067,-4.3423,0.0,0.0,0.0,0.0,0.0,0.0,0.0,0.0,0.0,0.0,0.0,0.0,0.0,0.0,0.0,0.0,0.0,0.0,0.0,0.0,0.0,0.0,0.0,0.0,0.0,0.0,0.0,0.0,0.0,0.0,0.0,0.0,0.0,0.0,0.0,-5.2017,-5.2017,-5.2238,-5.2365,-5.2365,-5.2752,-5.3152,-5.366,-5.3553,-5.3917,-5.4777,-5.4164,-5.4194,-5.516,-5.4744,-5.4952,-5.5984,-5.5752,-5.6117,-5.7044,-5.7309,-5.7707,-5.8171,-5.8668,-5.9032,-5.9264,-5.8999,-5.8767,-5.8568,-5.9065,-5.8833,-5.8204,-5.8436,-5.8833,-5.9264,-5.9264,-6.0056,-6.095,0.0,0.0,0.0,0.0,0.0,0.0,0.0,0.0,0.0,0.0,-3.571,-3.571,-3.571,-3.571,-3.571,-3.571,-3.571,-3.571,-3.571,-3.6252,0.0,0.0,0.0,0.0,0.0,0.0,0.0,0.0,0.0,0.0,0.0,0.0,0.0,0.0,0.0,0.0,0.0,0.0,-4.29,-4.29,-4.29,-4.3451,-4.4425,0.0,0.0,0.0,0.0,0.0,0.0,0.0,0.0,0.0,0.0,0.0,0.0,0.0,0.0,0.0,0.0,0.0,0.0,0.0,0.0,0.0,0.0,0.0,0.0,0.0,0.0,0.0,0.0,0.0,0.0,0.0,0.0,0.0,-5.2144,-5.2049,-5.208,-5.208,-5.2712,-5.3123,-5.3123,-5.4114,-5.4749,-5.4717,-5.4454,-5.4468,-5.5005,-5.4317,-5.4437,-5.562,-5.5653,-5.5984,-5.6713,-5.7442,-5.7806,-5.7839,-5.8568,-5.8933,-5.8933,-5.8933,-5.933,-5.996,-5.9231,-5.9297,-5.996,-5.996,-5.9529,-5.8966,-5.9728,-5.9993,-5.9993,-5.9993,-6.0445,-6.1042,0.0,0.0,0.0,0.0,0.0,0.0,0.0,0.0,0.0,0.0,-3.571,-3.571,-3.571,-3.571,-3.571,-3.571,-3.571,-3.571,-3.571,0.0,0.0,0.0,0.0,0.0,0.0,0.0,0.0,0.0,0.0,0.0,0.0,0.0,0.0,0.0,0.0,0.0,0.0,-4.29,-4.29,-4.29,-4.29,-4.3259,-4.3899,0.0,0.0,0.0,0.0,0.0,0.0,0.0,0.0,0.0,0.0,0.0,0.0,0.0,0.0,0.0,0.0,0.0,0.0,0.0,0.0,0.0,0.0,0.0,0.0,0.0,0.0,0.0,0.0,0.0,0.0,0.0,0.0,-5.3597,-5.2902,-5.3218,-5.3534,-5.3534,-5.3692,-5.3818,-5.3818,-5.365,-5.3712,-5.393,-5.3422,-5.3631,-5.4972,-5.4808,-5.5237,-5.6382,-5.6415,-5.6746,-5.7475,-5.7707,-5.8071,-5.8601,-5.9363,-5.9694,-5.9694,-5.9694,-5.9827,-5.996,-5.9231,-5.9032,-5.9198,-5.9198,-5.9065,-5.8966,-5.9728,-5.9993,-6.0074,-6.0525,-6.1379,-6.2361,0.0,0.0,0.0,0.0,0.0,0.0,0.0,0.0,0.0,0.0,-3.571,-3.571,-3.571,-3.571,-3.571,-3.571,-3.571,-3.5818,-3.6062,0.0,0.0,0.0,0.0,0.0,0.0,0.0,0.0,0.0,0.0,0.0,0.0,0.0,0.0,0.0,0.0,0.0,0.0,-4.2412,-4.2521,-4.2548,-4.2792,-4.3355,-4.3993,-4.4303,-4.4862,-4.5504,-4.5776,-4.5895,-4.5895,-4.5895,0.0,0.0,0.0,0.0,0.0,0.0,0.0,0.0,0.0,0.0,0.0,0.0,0.0,0.0,0.0,0.0,0.0,0.0,0.0,0.0,0.0,0.0,0.0,0.0,-5.4103,-5.3945,-5.3566,-5.385,-5.4103,-5.4103,-5.385,-5.3692,-5.3692,-5.3481,-5.3477,-5.397,-5.3713,-5.4175,-5.5632,-5.5402,-5.5853,-5.7111,-5.7442,-5.7972,-5.8701,-5.8734,-5.8933,-5.9363,-5.9496,-5.9529,-5.9529,-5.9529,-5.9529,-5.9529,-5.9098,-5.8899,-5.8933,-5.9231,-5.9491,-5.9764,0.0,0.0,0.0,0.0,-6.2597,-6.3274,0.0,0.0,0.0,0.0,0.0,0.0,0.0,0.0,0.0,0.0,0.0,-3.571,-3.571,-3.571,-3.571,-3.571,-3.571,-3.6035,0.0,0.0,0.0,0.0,0.0,0.0,0.0,0.0,0.0,0.0,0.0,0.0,0.0,0.0,0.0,0.0,0.0,0.0,-4.1164,-4.1679,-4.1896,-4.1951,-4.2466,-4.3341,-4.4303,-4.4303,-4.4926,-4.5689,-4.5689,-4.5721,-4.5663,-4.5663,0.0,0.0,0.0,0.0,0.0,0.0,0.0,0.0,0.0,0.0,0.0,0.0,0.0,0.0,0.0,0.0,0.0,0.0,0.0,0.0,0.0,0.0,0.0,0.0,-5.404,-5.3976,-5.3976,-5.3913,-5.3882,-5.3976,-5.3471,-5.3123,-5.3123,-5.3477,-5.3856,-5.4341,-5.477,-5.5534,-5.6647,0.0,0.0,0.0,0.0,-5.9297,-5.986,-5.9893,-5.9893,-5.986,-5.9198,-5.8899,-5.8899,-5.88,-5.8767,-5.8767,-5.8847,-5.888,-5.9013,-5.9857,-6.0558,-6.1065,-6.0578,-6.0705,-6.1443,-6.3181,-6.3861,-6.3967,0.0,0.0,0.0,0.0,0.0,0.0,0.0,0.0,0.0,-3.571,-3.571,-3.571,-3.571,-3.571,-3.571,-3.571,-3.571,-3.6388,0.0,0.0,0.0,0.0,0.0,0.0,0.0,0.0,0.0,0.0,0.0,0.0,0.0,0.0,0.0,0.0,0.0,0.0,-4.1137,-4.1245,-4.13,-4.13,-4.1408,-4.2383,-4.3804,-4.3804,-4.4059,-4.4547,-4.4547,-4.4409,-4.4356,-4.4356,-4.4356,-4.4443,-4.4988,0.0,0.0,0.0,0.0,0.0,0.0,0.0,0.0,0.0,0.0,0.0,0.0,0.0,0.0,0.0,0.0,0.0,0.0,0.0,0.0,-5.4103,-5.366,-5.3313,-5.3313,-5.2776,-5.2649,-5.3218,-5.3186,-5.3123,-5.3123,-5.3477,-5.3856,-5.4261,-5.4737,-5.5534,-5.6647,-5.7674,-5.8403,-5.8668,-5.9396,-5.9562,-5.9131,-5.9098,-5.9098,-5.9098,-5.8966,0.0,-5.8866,-5.827,-5.8005,-5.8005,-5.8518,-5.9084,-5.9688,-6.0969,-6.1843,-6.2464,-6.2387,-6.2692,-6.3289,-6.3647,-6.4111,-6.4568,0.0,0.0,0.0,0.0,0.0,0.0,0.0,0.0,0.0,0.0,-3.571,-3.571,-3.571,-3.571,-3.571,-3.571,-3.6551,0.0,0.0,0.0,0.0,0.0,0.0,0.0,0.0,0.0,0.0,0.0,0.0,0.0,0.0,0.0,0.0,0.0,0.0,-4.0214,-4.0241,-4.0513,-4.0648,-4.0675,-4.1001,-4.1556,-4.245,-4.2888,-4.3545,-4.4093,-4.4093,-4.4066,-4.3979,-4.3979,-4.3979,-4.4123,-4.4731,-4.5398,-4.6211,0.0,0.0,0.0,0.0,0.0,0.0,0.0,0.0,0.0,0.0,0.0,0.0,0.0,0.0,-5.4103,0.0,0.0,-5.3597,-5.3597,-5.3028,-5.2554,-5.2554,-5.2238,-5.227,-5.3028,-5.2776,-5.2712,-5.306,-5.3477,-5.4017,-5.4859,-5.5651,-5.6619,-5.774,-5.8502,-5.8899,-5.8899,-5.9264,-5.9264,-5.8899,-5.8535,-5.8336,-5.8336,-5.7972,-5.7806,-5.7773,-5.772,-5.7873,-5.8318,-5.9295,-6.0095,-6.0917,-6.2267,-6.3004,-6.3348,-6.3677,-6.3823,-6.3861,-6.4111,-6.4428,-6.4706,0.0,0.0,0.0,0.0,0.0,0.0,0.0,0.0,0.0,0.0,0.0,-3.571,-3.571,-3.5818,-3.5981,0.0,0.0,0.0,0.0,0.0,0.0,0.0,0.0,0.0,0.0,0.0,0.0,0.0,0.0,0.0,0.0,0.0,0.0,0.0,-3.9292,-3.9292,-3.9319,-3.9807,-4.0024,-4.0051,-4.0567,-4.0757,-4.0941,-4.173,-4.2616,-4.3546,-4.3546,-4.3546,-4.3631,-4.3631,-4.3631,-4.3718,-4.4327,-4.5024,-4.5981,-4.8188,-4.9365,0.0,0.0,0.0,0.0,0.0,0.0,0.0,0.0,0.0,-5.4103,-5.4103,-5.4008,-5.3913,-5.3913,-5.3344,-5.2902,-5.2902,-5.227,-5.1859,-5.1986,-5.1891,-5.2144,-5.2997,-5.2586,-5.246,-5.306,-5.3815,-5.463,-5.5409,-5.6711,-5.7884,-5.8668,-5.8833,-5.8833,-5.8701,-5.8668,-5.8601,-5.8469,-5.7873,-5.7574,-5.7574,-5.6978,-5.6757,-5.6911,-5.7499,-5.8201,-5.8923,-6.0432,-6.1586,-6.2415,-6.3546,-6.3933,-6.4004,-6.4498,-6.4393,-6.4004,-6.4498,-6.4706,-6.4706,0.0,0.0,0.0,0.0,0.0,0.0,0.0,0.0,0.0,0.0,0.0,0.0,0.0,0.0,0.0,0.0,0.0,0.0,0.0,0.0,0.0,0.0,0.0,0.0,0.0,0.0,0.0,0.0,0.0,0.0,0.0,0.0,0.0,-3.9292,-3.9292,-3.9292,-3.9292,-3.9373,-3.94,-3.94,-3.9481,-3.9776,-4.0129,-4.0217,-4.0988,-4.1903,-4.1903,-4.2081,-4.2295,-4.2295,-4.2295,-4.2411,-4.3021,-4.3687,-4.476,-4.7292,0.0,-5.0493,-5.2439,-5.3471,0.0,-5.4071,-5.4103,-5.4103,0.0,0.0,-5.4103,-5.4103,-5.3629,-5.3218,-5.3218,-5.2618,-5.2144,-5.2144,-5.1543,-5.1322,-5.1922,-5.148,-5.1606,-5.2934,-5.3028,-5.3028,-5.3092,-5.496,-5.5942,-5.5474,-5.7493,-5.8455,-5.7939,-5.8535,-5.8601,-5.7939,-5.7906,-5.7608,-5.6945,-5.6846,-5.6812,-5.6812,-5.6713,-5.6987,-5.7547,-5.8261,-5.8863,-5.9617,-6.1599,-6.317,-6.4358,-6.4533,-6.4568,-6.4637,-6.4637,-6.4637,-6.4637,-6.4637,-6.4706,-6.4706,0.0,0.0,0.0,0.0,0.0,0.0,0.0,0.0,0.0,0.0,0.0,0.0,0.0,0.0,0.0,0.0,0.0,0.0,0.0,0.0,0.0,0.0,0.0,0.0,0.0,0.0,0.0,0.0,0.0,0.0,0.0,0.0,-3.9644,-3.9292,-3.9292,-3.9292,-3.9292,-3.9292,-3.9292,-3.9292,-3.9292,-3.938,-3.9557,-3.9557,-4.0074,-4.0733,-4.0994,-4.1369,0.0,0.0,-4.1843,-4.2266,-4.3253,-4.4352,-4.5691,-4.8399,-5.0075,0.0,-5.3215,0.0,0.0,0.0,-5.4103,-5.4103,-5.4103,-5.4103,-5.3976,-5.3597,-5.3313,-5.2965,-5.2554,-5.1891,-5.1417,0.0,-5.1164,-5.1069,-5.1353,-5.1859,-5.2428,-5.3028,-5.3439,-5.3692,-5.3692,-5.4793,-5.5564,-5.5577,-5.7103,-5.7818,-5.7489,-5.7945,-5.7906,-5.7177,-5.7144,-5.7011,-5.668,-5.668,-5.6911,-5.7214,-5.7214,-5.7514,-5.8099,-5.9173,-6.0529,-6.2023,-6.3311,-6.4183,-6.4706,-6.4706,-6.4706,-6.4706,-6.4706,-6.4706,-6.4706,-6.4706,-6.4706,-6.4706,0.0,0.0,0.0,0.0,0.0,0.0,0.0,0.0,0.0,0.0,0.0,0.0,0.0,0.0,0.0,0.0,0.0,0.0,0.0,0.0,0.0,0.0,0.0,0.0,0.0,0.0,0.0,0.0,0.0,0.0,0.0,0.0,-4.0214,-3.9807,-3.9807,-3.9807,-3.9807,-3.9807,-3.9699,-3.9536,-3.9536,-3.9454,-3.9292,-3.9292,-3.9469,-3.9908,-4.0343,-4.0773,0.0,0.0,-4.1762,-4.2473,-4.4091,-4.5341,-4.6804,-4.9661,-5.1518,-5.2809,-5.3859,0.0,0.0,-5.4103,-5.4103,-5.404,-5.3882,-5.3818,-5.3629,-5.2934,-5.2649,-5.2365,-5.1828,-5.1164,-5.0753,-5.0943,-5.0974,-5.1101,-5.1512,-5.246,-5.3186,-5.3344,-5.3787,-5.4103,-5.4103,-5.4688,-5.5165,-5.5453,-5.6464,-5.6988,-5.6872,-5.7192,-5.7165,-5.6713,-5.6834,-5.6834,-5.668,-5.7063,-5.7331,-5.7588,-5.7735,-5.8239,-5.9045,-6.0566,-6.2263,-6.3934,-6.4495,-6.4706,-6.4706,-6.4706,-6.4706,-6.4706,-6.4706,-6.4706,-6.4706,-6.4706,-6.4706,-6.4706,0.0,0.0,0.0,0.0,0.0,0.0,0.0,0.0,0.0,0.0,0.0,0.0,0.0,0.0,0.0,0.0,0.0,0.0,0.0,0.0,0.0,0.0,0.0,0.0,0.0,0.0,0.0,0.0,0.0,0.0,0.0,-4.1381,-4.1082,-4.1055,-4.1055,-4.1055,-4.1055,-4.1055,-4.073,-4.016,-4.016,-3.9807,-3.9292,-3.9292,-3.9292,-3.938,-3.9821,0.0,0.0,0.0,-4.1767,-4.274,-4.5221,-4.6423,0.0,-5.0974,-5.2958,0.0,0.0,0.0,-5.4103,-5.4103,-5.4103,-5.3913,-5.3281,-5.3123,-5.2934,-5.2207,-5.1512,-5.1037,-5.1006,-5.0437,-5.0184,-5.0848,-5.0974,-5.1448,-5.2839,-5.3092,-5.3344,-5.3976,-5.4071,-5.4103,0.0,-5.5102,-5.5485,-5.4845,-5.5841,-5.6433,-5.6151,-5.6119,-5.6323,-5.668,-5.7289,-5.7289,-5.668,-5.7775,-5.8065,-5.7588,-5.8137,-5.908,-6.0393,-6.254,-6.3934,-6.4671,-6.4706,-6.4706,-6.4706,-6.4706,-6.4706,-6.4706,-6.4706,-6.4706,-6.4706,-6.4706,-6.4706,-6.4706,0.0,0.0,0.0,0.0,0.0,0.0,0.0,0.0,0.0,0.0,0.0,0.0,0.0,0.0,0.0,0.0,0.0,0.0,0.0,0.0,0.0,0.0,0.0,0.0,0.0,0.0,0.0,0.0,0.0,0.0,-4.2005,-4.1788,-4.1489,-4.111,-4.111,-4.111,-4.111,-4.111,-4.1001,-4.0757,-4.035,-4.0078,-3.9834,-3.9454,-3.9292,-3.9292,0.0,0.0,0.0,0.0,0.0,0.0,-4.6094,0.0,0.0,-5.2496,0.0,0.0,0.0,0.0,-5.4103,-5.4103,-5.4103,-5.3913,-5.325,-5.3123,-5.2776,-5.1575,-5.1132,-5.0974,-5.0974,-5.0405,-5.0311,-5.148,-5.167,-5.1986,-5.2965,-5.3502,-5.385,-5.4071,-5.4103,0.0,0.0,0.0,0.0,-5.4359,-5.4973,-5.5339,-5.5278,-5.5491,-5.5974,-5.6647,-5.6877,-5.7105,-5.7514,-5.7881,-5.8481,-5.935,-6.0531,-6.1601,-6.254,-6.3269,-6.4004,-6.4706,-6.4706,-6.4706,-6.4706,-6.4706,-6.4706,-6.4706,-6.4706,-6.4706,-6.4706,-6.4706,-6.4706,-6.4706,0.0,0.0,0.0,0.0,0.0,0.0,0.0,0.0,0.0,0.0,0.0,0.0,0.0,0.0,0.0,0.0,0.0,0.0,0.0,0.0,0.0,0.0,0.0,0.0,0.0,0.0,0.0,0.0,0.0,-4.2683,-4.2331,-4.2331,-4.2114,-4.1761,-4.1761,-4.1761,-4.1761,-4.1761,-4.1761,-4.1679,-4.0838,-4.0513,-4.0431,-3.9617,-3.9292,0.0,0.0,0.0,0.0,0.0,0.0,0.0,0.0,0.0,0.0,0.0,0.0,0.0,0.0,-5.4103,-5.4103,-5.4103,-5.3913,-5.3566,-5.287,-5.2523,-5.2017,-5.0848,-5.0595,-5.0595,-5.0595,-5.0216,-5.0374,-5.1796,-5.2017,-5.2365,-5.3313,-5.3818,-5.4103,-5.4103,-5.4103,-5.4103,0.0,0.0,0.0,-5.4103,-5.4665,-5.4915,-5.4781,-5.562,-5.6224,-5.6614,-5.7072,-5.7554,-5.7881,-5.8587,-5.9526,-6.0809,-6.202,-6.2956,-6.3515,-6.3795,-6.4181,-6.4706,-6.4706,-6.4706,-6.4706,-6.4706,-6.4706,-6.4706,-6.4706,-6.4706,-6.4706,-6.4706,-6.4706,-6.4706,0.0,0.0,0.0,0.0,0.0,0.0,0.0,0.0,0.0,0.0,0.0,0.0,0.0,0.0,0.0,0.0,0.0,0.0,0.0,0.0,0.0,0.0,0.0,0.0,0.0,0.0,0.0,0.0,0.0,-4.29,-4.29,-4.29,-4.29,-4.29,-4.29,-4.29,-4.29,-4.29,-4.29,-4.2792,-4.1625,-4.1137,-4.1001,-3.9834,0.0,0.0,0.0,0.0,0.0,0.0,0.0,0.0,0.0,0.0,0.0,0.0,0.0,-5.4103,-5.4103,-5.4103,-5.4103,-5.4103,-5.3597,-5.2934,-5.2175,-5.148,-5.0785,-5.0058,-4.9931,-4.9931,0.0,0.0,-5.0405,-5.1828,-5.2017,-5.2491,-5.3913,-5.4103,-5.4103,0.0,0.0,0.0,0.0,0.0,0.0,-5.4242,0.0,-5.5181,-5.4915,-5.6381,-5.6996,-5.6691,-5.7959,-5.8456,-5.8022,-5.9875,-6.1154,-6.1918,-6.2718,-6.3136,-6.3414,-6.4079,-6.4498,-6.4637,-6.4706,-6.4706,-6.4706,-6.4706,-6.4706,-6.4706,-6.4706,-6.4706,-6.4706,-6.4706,-6.4706,-6.4706,0.0,0.0,0.0,0.0,0.0,0.0,0.0,0.0,0.0,0.0,0.0,0.0,0.0,0.0,0.0,0.0,0.0,0.0,0.0,0.0,0.0,0.0,0.0,0.0,0.0,0.0,0.0,0.0,0.0,-4.29,-4.29,-4.29,-4.29,-4.29,-4.29,-4.29,-4.29,-4.29,-4.29,-4.2819,0.0,-4.1517,-4.1082,0.0,0.0,0.0,0.0,0.0,0.0,0.0,0.0,0.0,0.0,0.0,-5.2833,0.0,0.0,-5.3876,-5.4017,-5.4103,-5.4103,-5.4103,-5.3597,-5.2934,-5.2175,-5.148,-5.0785,-5.0058,-4.9931,-5.0089,0.0,0.0,0.0,-5.2523,-5.2365,0.0,-5.3913,-5.4103,0.0,0.0,0.0,-5.4327,-5.4934,-5.4985,0.0,0.0,-5.5555,-5.5555,-5.6067,-5.6536,-5.6996,-5.752,-5.7814,-5.8553,-5.9595,-6.1327,-6.23,-6.2508,-6.3448,-6.3902,-6.3973,-6.4182,-6.4251,-6.4322,-6.4428,-6.4463,-6.4463,-6.4637,-6.4706,-6.4706,-6.4706,-6.4706,-6.4706,-6.4706,-6.4706,-6.4706,0.0,0.0,0.0,0.0,0.0,0.0,0.0,0.0,0.0,0.0,0.0,0.0,0.0,0.0,0.0,0.0,0.0,0.0,0.0,0.0,0.0,0.0,0.0,0.0,0.0,0.0,0.0,0.0,0.0,0.0,0.0,-4.29,-4.29,-4.29,-4.29,-4.29,-4.29,-4.29,0.0,0.0,0.0,0.0,0.0,0.0,0.0,0.0,0.0,0.0,0.0,0.0,0.0,-4.8469,-4.9035,-5.0368,-5.1919,-5.2371,0.0,-5.3295,-5.3664,-5.3813,-5.375,-5.3553,-5.2954,-5.2293,-5.1733,-5.1006,-5.0405,-4.9995,-4.9931,0.0,0.0,0.0,0.0,0.0,0.0,0.0,-5.3913,-5.4103,-5.4103,0.0,-5.4103,0.0,-5.4685,-5.5067,-5.5636,0.0,-5.6503,-5.6503,-5.6614,-5.7297,-5.7668,-5.7814,-5.8103,-5.911,-6.0668,-6.1984,-6.2744,-6.3055,-6.3684,-6.3965,-6.4072,-6.4072,-6.4143,-6.418,-6.4287,-6.4287,-6.4287,-6.4428,-6.4498,-6.4568,-6.4568,-6.4637,-6.4706,-6.4706,-6.4706,-6.4706,0.0,0.0,0.0,0.0,0.0,0.0,0.0,0.0,0.0,0.0,0.0,0.0,0.0,0.0,0.0,0.0,0.0,0.0,0.0,0.0,0.0,0.0,0.0,0.0,0.0,0.0,0.0,0.0,0.0,0.0,0.0,0.0,0.0,0.0,0.0,0.0,0.0,0.0,0.0,0.0,0.0,0.0,0.0,0.0,0.0,0.0,0.0,0.0,0.0,0.0,-4.6471,-4.7121,-4.7382,-4.8974,-5.0855,-5.1826,-5.2223,-5.2473,-5.3097,-5.3315,-5.3309,-5.2887,-5.2282,-5.156,-5.1177,-5.05,-4.9931,-4.9931,0.0,-4.9931,-4.9931,-4.9931,-5.0342,-5.167,0.0,-5.246,-5.3787,-5.404,-5.4103,-5.4103,-5.4103,-5.4189,-5.4412,-5.5099,-5.5876,-5.6844,-5.7594,-5.7668,-5.6996,-5.8246,-5.8771,-5.8128,-5.8872,-6.0013,-6.1461,-6.2255,-6.2944,-6.36,-6.36,-6.3673,-6.3854,-6.3854,-6.3999,-6.4109,-6.4109,-6.4109,-6.4109,-6.418,-6.4251,-6.4393,-6.4393,-6.4498,-6.4637,-6.4706,-6.4706,-6.4706,0.0,0.0,0.0,0.0,0.0,0.0,0.0,0.0,0.0,0.0,-4.0887,-4.0114,0.0,0.0,0.0,0.0,0.0,0.0,0.0,0.0,0.0,0.0,0.0,0.0,0.0,0.0,0.0,0.0,0.0,0.0,0.0,0.0,0.0,0.0,0.0,0.0,0.0,0.0,0.0,0.0,0.0,0.0,0.0,0.0,0.0,0.0,0.0,0.0,0.0,0.0,-4.498,-4.5747,-4.6401,-4.7714,-4.918,-5.0142,-5.1219,-5.212,-5.2449,-5.2972,-5.3346,-5.3309,-5.2457,-5.1685,-5.156,-5.0686,0.0,0.0,-4.9931,-4.9931,-4.9931,-4.9931,0.0,-5.1006,0.0,0.0,0.0,0.0,-5.4103,0.0,0.0,0.0,0.0,0.0,0.0,0.0,0.0,-5.8702,-5.8562,-5.8875,-5.9254,-5.9734,-6.0494,-6.1358,-6.2255,-6.3013,-6.3462,-6.36,-6.36,-6.36,-6.3673,-6.3673,-6.3673,-6.3747,-6.3892,-6.3999,-6.3965,-6.4109,-6.418,-6.4251,-6.4358,-6.4393,-6.4463,-6.4637,-6.4706,-6.4706,0.0,0.0,0.0,0.0,0.0,0.0,0.0,-4.2951,-4.2629,-4.2629,-4.2275,-4.1699,-4.0802,-4.0745,-4.046,0.0,0.0,0.0,0.0,0.0,0.0,0.0,0.0,0.0,0.0,0.0,0.0,0.0,0.0,0.0,0.0,0.0,0.0,0.0,0.0,0.0,0.0,0.0,0.0,0.0,0.0,0.0,0.0,0.0,0.0,0.0,0.0,0.0,0.0,0.0,-4.4757,-4.4796,-4.4596,-4.5663,-4.7106,-4.8358,-4.9202,-4.9943,-5.1227,-5.1754,-5.2064,-5.2523,-5.2044,-5.1287,-5.1163,0.0,0.0,0.0,-4.9931,-4.9931,-4.9931,-4.9931,0.0,0.0,0.0,0.0,0.0,0.0,0.0,0.0,0.0,0.0,0.0,0.0,0.0,0.0,-5.8771,-5.9012,-5.9012,-5.9012,-5.9392,-6.0185,-6.0909,-6.1668,-6.2496,-6.322,-6.36,-6.36,-6.36,-6.36,-6.36,-6.36,-6.36,-6.36,-6.3673,-6.3747,-6.3747,-6.382,-6.3965,-6.4037,-6.4109,-6.4287,-6.4393,-6.4498,-6.4637,-6.4776,0.0,0.0,0.0,0.0,0.0,0.0,0.0,-4.4004,-4.3615,-4.3615,-4.3615,-4.3299,-4.2629,-4.2222,-4.1728,0.0,0.0,0.0,0.0,0.0,0.0,0.0,0.0,0.0,0.0,0.0,0.0,-4.29,-4.29,0.0,0.0,0.0,0.0,0.0,-4.29,-4.29,0.0,0.0,0.0,0.0,0.0,-4.29,0.0,0.0,0.0,0.0,0.0,0.0,0.0,0.0,-4.4713,-4.4146,-4.3372,-4.4086,-4.5677,-4.7027,-4.7496,-4.7958,-4.9589,-5.0266,-5.0691,-5.1302,-5.111,-5.0754,-5.0528,-5.0034,0.0,0.0,-4.9852,-4.9931,-4.9931,-4.9931,0.0,0.0,0.0,0.0,0.0,0.0,0.0,0.0,0.0,0.0,0.0,0.0,0.0,0.0,-5.8632,-5.9012,-5.9012,-5.9012,-5.9461,-6.0392,-6.1013,-6.1772,-6.2703,-6.3289,-6.36,-6.36,-6.36,-6.36,-6.36,-6.36,-6.36,-6.36,-6.36,-6.36,-6.36,-6.36,-6.3673,-6.382,-6.3927,-6.4109,-6.4358,-6.4393,-6.4673,-6.5057,0.0,0.0,0.0,0.0,0.0,0.0,0.0,-4.4496,-4.4496,-4.4496,-4.4496,-4.4419,-4.4343,-4.2951,-4.1976,0.0,0.0,0.0,0.0,0.0,0.0,0.0,0.0,0.0,0.0,0.0,0.0,-4.29,-4.29,0.0,0.0,0.0,0.0,0.0,0.0,-4.29,-4.29,0.0,0.0,0.0,0.0,0.0,0.0,0.0,0.0,0.0,0.0,0.0,0.0,0.0,0.0,-4.4167,-4.3489,-4.4316,-4.5725,-4.648,0.0,0.0,-4.7835,-4.882,-4.9805,-4.9866,-4.9974,-5.0111,-5.0018,0.0,0.0,-4.9613,-4.9773,-4.9931,-4.9931,-4.9931,-4.9931,0.0,0.0,-5.1614,0.0,0.0,0.0,0.0,0.0,0.0,0.0,0.0,0.0,0.0,-5.8944,-5.9012,-5.9012,-5.9012,-5.9702,-6.1151,-6.1254,-6.2013,-6.3462,-6.3565,-6.36,-6.36,-6.36,-6.36,-6.36,-6.36,-6.36,-6.36,-6.36,-6.36,-6.36,-6.36,-6.36,-6.3673,-6.382,-6.4037,-6.4251,-6.4358,-6.4988,-6.5794,0.0,0.0,0.0,0.0,0.0,0.0,-4.4572,-4.4572,-4.4572,-4.4572,-4.4572,-4.4572,-4.4572,-4.4004,-4.3349,-4.279,0.0,0.0,0.0,0.0,0.0,0.0,0.0,0.0,0.0,0.0,-4.3776,-4.3776,-4.3163,0.0,0.0,0.0,0.0,0.0,0.0,-4.3423,-4.29,0.0,0.0,0.0,0.0,0.0,0.0,0.0,0.0,0.0,0.0,0.0,0.0,0.0,0.0,0.0,-4.4417,-4.4527,0.0,0.0,-4.5588,-4.5957,-4.6788,-4.7404,-4.8112,-4.9374,-4.9119,-4.88,-4.9749,0.0,-4.8792,-4.9439,-4.9693,-4.9773,-4.9852,-4.9931,-4.9931,-4.9931,-5.05,0.0,0.0,0.0,0.0,0.0,0.0,0.0,0.0,0.0,0.0,0.0,-5.9012,-5.9012,-5.9012,-5.9012,-5.9702,-6.1254,-6.1289,-6.2048,-6.3565,-6.36,-6.36,-6.36,-6.36,-6.36,-6.36,-6.36,-6.36,-6.36,-6.36,-6.36,-6.36,-6.36,-6.36,-6.36,-6.3673,-6.3892,-6.425,-6.4739,-6.5337,-6.6005,0.0,0.0,0.0,0.0,0.0,-4.4572,-4.4572,-4.4572,-4.4572,-4.4572,-4.4572,-4.4572,-4.4572,-4.4572,-4.4343,-4.3771,-4.4266,0.0,0.0,0.0,0.0,0.0,0.0,0.0,0.0,0.0,-4.4776,-4.4776,-4.4059,-4.4059,0.0,0.0,-4.4406,-4.3804,0.0,0.0,0.0,0.0,0.0,0.0,0.0,0.0,0.0,0.0,0.0,0.0,0.0,0.0,0.0,0.0,0.0,0.0,0.0,0.0,0.0,0.0,-4.4572,-4.4787,-4.5741,-4.6142,-4.6665,-4.8112,-4.7896,-4.7558,0.0,-4.8449,-4.8177,-4.8965,-4.9376,-4.9661,-4.9773,-4.9852,-4.9931,-4.9931,-5.0342,-5.0992,0.0,0.0,0.0,0.0,0.0,0.0,0.0,0.0,0.0,-5.9012,-5.9012,-5.9012,-5.9012,-5.9254,-5.9944,-6.1254,-6.153,-6.2289,-6.3565,-6.36,-6.36,-6.36,-6.36,-6.36,-6.36,-6.36,-6.36,-6.36,-6.36,-6.36,-6.36,-6.36,-6.36,-6.36,-6.36,-6.3958,-6.4598,-6.512,-6.5825,-6.6742,0.0,0.0,0.0,0.0,0.0,0.0,-4.4572,-4.4572,-4.4572,-4.4572,-4.4572,-4.4572,-4.4572,-4.4572,-4.4572,-4.4572,-4.4572,0.0,0.0,0.0,0.0,0.0,0.0,0.0,0.0,0.0,-4.5779,-4.5779,-4.5779,-4.5779,-4.5779,-4.5779,-4.5779,-4.5779,0.0,0.0,0.0,0.0,0.0,0.0,0.0,0.0,0.0,0.0,0.0,0.0,0.0,0.0,0.0,0.0,0.0,0.0,0.0,0.0,0.0,0.0,-4.4572,-4.4572,-4.4603,-4.5095,-4.5618,-4.5618,-4.6111,-4.6603,0.0,0.0,-4.7973,-4.8004,-4.8823,-4.9613,-4.9613,-4.9773,-4.9931,-4.9931,-4.9931,-5.0469,-5.1997,0.0,0.0,0.0,0.0,0.0,0.0,0.0,0.0,-5.9012,-5.9012,0.0,-5.9012,-5.9771,-6.053,-6.1289,-6.2048,-6.2841,-6.36,-6.36,-6.36,-6.36,-6.36,-6.36,-6.36,-6.36,-6.36,-6.36,-6.36,-6.36,-6.36,-6.36,-6.36,-6.36,-6.36,-6.427,-6.5294,-6.5294,-6.6488,-6.8182,0.0,0.0,0.0,0.0,0.0,0.0,0.0,-4.4572,-4.4572,-4.4572,-4.4572,-4.4572,-4.4572,-4.4572,-4.4572,-4.4572,-4.4572,0.0,0.0,0.0,0.0,0.0,0.0,0.0,0.0,-4.6167,-4.6755,-4.6755,-4.6137,-4.6137,-4.6755,-4.6755,-4.6403,-4.5869,-4.6491,-4.6403,0.0,0.0,0.0,0.0,0.0,0.0,0.0,0.0,0.0,0.0,0.0,0.0,0.0,0.0,0.0,0.0,0.0,0.0,0.0,0.0,0.0,0.0,-4.4572,-4.4726,-4.5003,-4.5464,-4.5403,-4.5464,-4.6388,0.0,0.0,-4.7947,-4.848,-4.892,-4.9678,-4.9852,-4.9931,-4.9931,-4.9931,-5.0232,-5.1248,0.0,0.0,0.0,0.0,0.0,0.0,0.0,-5.9012,-5.9012,-5.9012,-5.9012,-5.9012,-6.0254,-6.1047,-6.1289,-6.2082,-6.2841,-6.36,-6.36,-6.36,-6.36,-6.36,-6.36,-6.36,-6.36,-6.36,-6.36,-6.36,-6.36,-6.36,-6.36,-6.36,-6.3634,-6.4152,-6.4645,-6.5214,-6.6254,-6.7248,-6.8068,0.0,0.0,0.0,0.0,0.0,0.0,0.0,-4.4419,-4.4572,-4.4572,-4.4572,-4.4572,-4.4572,-4.4572,-4.4572,-4.4572,-4.4572,0.0,0.0,0.0,0.0,0.0,0.0,0.0,-4.5862,-4.6876,-4.7462,-4.7734,-4.7103,-4.7189,-4.7734,-4.7734,-4.7448,-4.6842,-4.7448,-4.7362,0.0,0.0,0.0,0.0,0.0,0.0,-4.7734,0.0,0.0,0.0,0.0,0.0,0.0,0.0,0.0,0.0,0.0,0.0,0.0,0.0,0.0,0.0,0.0,-4.4572,-4.4664,-4.5095,-4.488,0.0,0.0,0.0,0.0,-4.7012,-4.7839,-4.8497,-4.9142,-4.9584,-4.9931,-4.9931,-4.9931,-5.0089,-5.05,0.0,0.0,0.0,0.0,0.0,0.0,0.0,-5.9012,-5.9012,-5.9012,-5.9012,-5.9012,-6.0461,-6.1289,-6.1289,-6.2358,-6.3117,-6.36,-6.36,-6.36,-6.36,-6.36,-6.36,-6.36,-6.36,-6.36,-6.36,-6.36,-6.36,0.0,-6.36,-6.3772,-6.4048,-6.4531,-6.5199,-6.6006,-6.6941,-6.78,-6.8413,0.0,0.0,0.0,0.0,0.0,0.0,0.0,-4.4004,-4.4572,-4.4572,-4.4572,-4.4572,-4.4572,-4.4572,-4.4572,-4.4572,0.0,0.0,0.0,0.0,0.0,0.0,0.0,0.0,-4.7496,-4.7588,-4.7927,-4.8604,-4.8604,-4.8604,-4.8604,-4.8604,-4.8604,-4.8604,-4.8604,-4.8604,0.0,0.0,0.0,0.0,0.0,0.0,0.0,0.0,0.0,0.0,0.0,0.0,0.0,0.0,0.0,0.0,0.0,0.0,0.0,0.0,0.0,0.0,0.0,0.0,0.0,0.0,0.0,0.0,0.0,0.0,0.0,0.0,-4.7029,-4.823,-4.8292,-4.9142,-4.9931,-4.9931,-4.9931,-4.9931,-4.9931,0.0,0.0,0.0,0.0,0.0,0.0,-5.8944,-5.9012,-5.9012,-5.9012,-5.9012,-5.9012,-6.0461,-6.1289,-6.1289,-6.2806,-6.36,-6.36,-6.36,-6.36,-6.36,-6.36,-6.36,-6.36,-6.36,-6.36,-6.36,-6.36,-6.36,-6.36,-6.36,-6.4014,-6.4703,-6.4772,-6.5821,-6.7288,-6.7357,-6.8072,-6.9078,0.0,0.0,0.0,0.0,0.0,0.0,0.0,0.0,0.0,0.0,-4.4572,-4.4572,-4.4572,-4.4572,-4.4572,0.0,0.0,0.0,0.0,0.0,0.0,0.0,0.0,0.0,-4.6819,-4.7342,-4.7927,-4.8604,-4.8604,-4.8604,-4.8604,-4.8604,-4.8604,-4.8604,-4.8604,-4.8604,0.0,0.0,0.0,0.0,0.0,0.0,0.0,0.0,0.0,0.0,-4.8604,-4.8604,0.0,0.0,0.0,0.0,0.0,0.0,0.0,0.0,-4.4572,0.0,-4.4572,0.0,-4.4572,-4.4572,-4.4572,-4.4572,0.0,0.0,0.0,0.0,0.0,-4.7747,-4.8404,-4.93,-4.9931,-4.9931,-4.9931,-4.9931,-4.9931,0.0,0.0,0.0,0.0,0.0,0.0,-5.8632,-5.9012,-5.9012,-5.9012,-5.9012,-5.9012,-6.0461,-6.1289,-6.1289,-6.2806,-6.36,-6.36,-6.36,-6.36,-6.36,-6.36,-6.36,-6.36,-6.36,-6.36,-6.36,-6.36,-6.36,-6.36,-6.36,-6.4014,-6.4772,-6.5359,-6.6229,-6.7126,-6.7713,-6.818,-6.8551,0.0,0.0,0.0,0.0,0.0,0.0,0.0,0.0,0.0,0.0,0.0,0.0,0.0,0.0,0.0,0.0,0.0,0.0,0.0,0.0,0.0,0.0,0.0,-4.5895,-4.6573,-4.725,-4.7927,-4.8604,-4.8604,-4.8604,-4.8604,-4.8604,-4.8604,-4.8604,-4.8604,-4.8604,-4.8604,-4.8604,0.0,0.0,-4.8604,0.0,0.0,0.0,0.0,0.0,-4.8604,-4.8604,0.0,-4.8604,-4.8173,-4.7496,0.0,0.0,0.0,0.0,-4.4572,-4.4572,-4.4572,-4.4572,-4.4572,-4.4572,-4.4572,-4.4572,0.0,0.0,0.0,0.0,0.0,0.0,-4.7809,-4.8922,-4.9773,-4.9773,-4.9773,-4.9993,0.0,0.0,0.0,0.0,0.0,0.0,0.0,-5.8702,-5.9012,-5.9012,-5.9012,-5.9012,-5.9012,-6.0461,-6.1289,-6.1289,-6.2806,-6.36,-6.36,-6.36,-6.36,-6.36,-6.36,-6.36,-6.36,-6.36,-6.36,-6.36,-6.36,-6.36,-6.3634,-6.3979,-6.4565,-6.5324,-6.6083,-6.6842,-6.7532,-6.7945,-6.8241,-6.8397,0.0,0.0,0.0,0.0,0.0,0.0,0.0,0.0,0.0,0.0,0.0,0.0,0.0,0.0,0.0,0.0,0.0,0.0,0.0,0.0,0.0,0.0,-4.5341,-4.5957,-4.6726,-4.7311,-4.7927,-4.8604,-4.8604,-4.8604,-4.8604,-4.8604,-4.8604,-4.8604,-4.8604,-4.8604,-4.8604,-4.8604,-4.8604,-4.8604,-4.8604,0.0,0.0,0.0,0.0,0.0,0.0,0.0,0.0,-4.8604,-4.8235,-4.7619,-4.685,0.0,0.0,0.0,0.0,0.0,-4.4572,-4.4572,-4.4572,-4.4572,-4.4572,-4.4572,-4.4572,0.0,0.0,0.0,0.0,0.0,0.0,0.0,0.0,-4.9613,-4.9676,-5.029,0.0,0.0,0.0,0.0,0.0,0.0,-5.8702,-5.8944,-5.9012,-5.9012,-5.9012,-5.9012,-5.9012,-6.0461,-6.1289,-6.1289,-6.2806,-6.36,-6.36,-6.36,-6.36,-6.36,-6.36,-6.36,-6.36,-6.36,-6.36,-6.36,-6.3703,-6.3772,-6.3807,-6.4565,-6.5359,-6.6117,-6.6738,-6.7428,-6.8083,-6.8083,-6.8241,-6.8397,0.0,0.0,0.0,0.0,0.0,0.0,0.0,0.0,0.0,0.0,0.0,0.0,0.0,0.0,0.0,0.0,0.0,0.0,0.0,0.0,0.0,-4.6296,-4.5834,-4.6172,-4.7434,-4.7558,-4.7927,-4.8604,-4.8604,-4.8604,-4.8604,-4.8604,-4.8604,-4.8604,-4.8604,-4.8604,-4.8604,-4.8604,-4.8604,-4.8604,-4.8604,0.0,0.0,0.0,0.0,0.0,0.0,0.0,0.0,-4.8604,-4.8543,-4.8235,-4.7004,0.0,0.0,0.0,0.0,0.0,-4.4572,-4.4572,-4.4572,-4.4572,-4.4572,-4.4572,-4.4572,0.0,0.0,0.0,0.0,0.0,0.0,0.0,0.0,0.0,0.0,-5.1101,0.0,0.0,0.0,0.0,0.0,-5.7072,-5.7887,-5.8562,-5.9012,-5.9012,-5.9012,-5.9012,-5.9012,-6.0461,-6.1289,-6.1289,-6.2806,-6.36,-6.36,-6.36,-6.36,-6.36,-6.36,-6.36,-6.36,-6.36,-6.36,-6.3634,-6.4255,-6.4531,-6.46,-6.5393,-6.6152,-6.6842,-6.6945,-6.7428,-6.8083,-6.8083,-6.8083,-6.8162,0.0,0.0,0.0,0.0,0.0,0.0,0.0,0.0,0.0,0.0,0.0,0.0,0.0,0.0,0.0,0.0,0.0,0.0,0.0,0.0,-4.6757,-4.7127,-4.685,-4.6973,-4.7588,-4.7958,-4.8296,-4.8604,-4.8604,-4.8604,-4.8604,-4.8604,-4.8604,-4.8604,-4.8604,-4.8604,-4.8604,-4.8604,-4.8604,-4.8604,0.0,0.0,0.0,0.0,0.0,0.0,0.0,0.0,0.0,0.0,-4.8604,-4.8389,-4.7034,0.0,0.0,0.0,0.0,0.0,-4.4572,-4.4572,-4.4572,-4.4572,-4.4849,-4.5126,-4.5126,0.0,0.0,0.0,0.0,0.0,0.0,0.0,0.0,0.0,0.0,0.0,0.0,0.0,0.0,0.0,0.0,-5.7072,-5.8351,-5.8771,-5.9012,-5.9012,-5.9012,-5.9185,-5.9633,-6.0703,-6.1496,-6.191,-6.3013,-6.36,-6.36,-6.36,-6.36,-6.36,-6.36,-6.36,-6.36,-6.36,-6.3807,-6.422,-6.4565,-6.4945,-6.5393,-6.6152,-6.6669,-6.7014,-6.7428,-6.7807,-6.8083,-6.8083,-6.8083,-6.8162,0.0,0.0,0.0,0.0,0.0,0.0,0.0,0.0,0.0,0.0,0.0,0.0,0.0,0.0,0.0,0.0,0.0,0.0,0.0,-4.7065,-4.7311,-4.7804,-4.7835,-4.7835,-4.7835,-4.8358,-4.8604,-4.8604,-4.8604,-4.8604,-4.8604,-4.8604,-4.8604,-4.8604,-4.8604,-4.8604,-4.8604,-4.8604,-4.8604,-4.8604,0.0,0.0,0.0,0.0,0.0,0.0,0.0,0.0,0.0,0.0,0.0,0.0,0.0,0.0,0.0,-4.4972,-4.4572,-4.4572,-4.4572,-4.4572,-4.4572,-4.4572,-4.4972,-4.5403,-4.5557,-4.5988,0.0,0.0,0.0,0.0,0.0,0.0,0.0,0.0,0.0,0.0,0.0,0.0,0.0,-5.6393,-5.6768,-5.7446,-5.8875,-5.9012,-5.9012,-5.9012,-5.9012,-5.9357,-6.0151,-6.0909,-6.1668,-6.2461,-6.322,-6.36,-6.36,-6.36,-6.36,-6.36,-6.36,-6.36,-6.36,-6.3772,-6.4152,-6.4703,-6.5083,-6.56,-6.6186,-6.6945,-6.7256,-6.729,-6.7876,-6.8083,-6.8083,-6.8083,-6.8083,-6.8162,0.0,0.0,0.0,0.0,0.0,0.0,0.0,0.0,0.0,0.0,0.0,0.0,0.0,0.0,0.0,0.0,0.0,0.0,0.0,-4.8481,-4.8481,-4.8543,-4.8543,-4.8543,-4.8543,-4.8604,-4.8604,-4.8604,-4.8604,-4.8604,-4.8604,-4.8604,-4.8604,-4.8604,-4.8604,-4.8604,-4.8604,-4.8604,-4.8604,-4.8604,-4.8604,0.0,0.0,0.0,0.0,0.0,0.0,0.0,0.0,0.0,0.0,0.0,0.0,0.0,-4.6326,-4.4972,-4.4572,-4.4572,-4.4572,-4.4572,-4.4572,-4.4572,-4.4603,-4.4818,-4.5434,-4.5618,0.0,-4.648,0.0,0.0,0.0,0.0,0.0,0.0,0.0,0.0,0.0,0.0,-5.549,-5.6459,-5.7297,-5.8031,-5.8944,-5.9012,-5.9012,-5.9012,-5.9012,-5.9357,-6.0151,-6.0909,-6.1668,-6.2461,-6.322,-6.36,-6.36,-6.36,-6.36,-6.36,-6.36,-6.36,-6.36,-6.4324,-6.4634,-6.4772,-6.6221,-6.6876,-6.698,-6.7704,-6.8014,-6.8014,-6.8083,-6.8083,-6.8083,-6.8083,-6.8083,-6.8083,0.0,0.0,0.0,0.0,0.0,0.0,0.0,0.0,0.0,0.0,0.0,0.0,0.0,0.0,0.0,0.0,0.0,0.0,0.0,-4.8604,-4.8604,-4.8604,-4.8604,-4.8604,-4.8604,-4.8604,-4.8604,-4.8604,-4.8604,-4.8604,-4.8604,-4.8604,-4.8604,-4.8604,-4.8604,-4.8604,-4.8604,-4.8604,-4.8604,-4.8604,-4.8604,-4.8604,0.0,0.0,0.0,0.0,0.0,0.0,0.0,0.0,-4.8604,0.0,0.0,0.0,0.0,-4.4972,-4.4572,-4.4572,-4.4572,-4.488,-4.5095,-4.4664,-4.5218,0.0,0.0,-4.6542,-4.7034,-4.7711,-4.8244,0.0,0.0,0.0,0.0,0.0,0.0,0.0,0.0,-5.4351,-5.5636,-5.6536,-5.7297,-5.8103,-5.8944,-5.9012,-5.9012,-5.9012,-5.9012,-5.9564,-6.0806,-6.1151,-6.1875,-6.3117,-6.3427,-6.36,-6.36,-6.36,-6.36,-6.36,-6.36,-6.3841,-6.4289,-6.4565,-6.5221,-6.6152,-6.6738,-6.7256,-6.7704,-6.798,-6.8083,-6.8083,-6.8083,-6.8083,-6.8083,-6.8083,-6.8083,-6.8083,0.0,0.0,0.0,0.0,0.0,0.0,0.0,0.0,0.0,0.0,0.0,0.0,0.0,0.0,0.0,0.0,0.0,0.0,-4.8604,-4.8604,-4.8604,-4.8604,-4.8604,-4.8604,-4.8604,-4.8604,-4.8604,-4.8604,-4.8604,-4.8604,-4.8604,-4.8604,-4.8604,-4.8604,-4.8604,-4.8604,-4.8604,-4.8604,-4.8604,-4.8604,-4.8604,-4.8604,0.0,0.0,0.0,0.0,0.0,0.0,0.0,0.0,0.0,0.0,0.0,0.0,0.0,0.0,-4.4802,-4.4956,-4.488,-4.5403,-4.5803,-4.5341,-4.5926,0.0,-4.688,-4.7281,-4.7804,-4.8481,-4.8883,0.0,0.0,0.0,0.0,0.0,0.0,0.0,-5.37,-5.4891,-5.6034,-5.692,-5.7668,-5.8422,-5.8944,-5.9012,-5.9012,-5.9012,-5.9254,-5.9944,-6.122,-6.153,-6.2255,-6.3565,-6.36,-6.36,-6.36,-6.36,-6.36,-6.36,-6.3841,-6.422,-6.4703,-6.5186,-6.5979,-6.7014,-6.7256,-6.7635,-6.8083,-6.8083,-6.8083,-6.8083,-6.8083,-6.8083,-6.8083,-6.8083,-6.8083,-6.8083,0.0,0.0,0.0,0.0,0.0,0.0,0.0,0.0,0.0,0.0,0.0,0.0,0.0,0.0,0.0,0.0,0.0,0.0,-4.8604,-4.8604,-4.8604,-4.8604,-4.8604,-4.8604,-4.8604,-4.8604,-4.8604,-4.8604,-4.8604,-4.8604,-4.8604,-4.8604,-4.8604,-4.8604,-4.8604,-4.8604,-4.8604,-4.8604,-4.8604,-4.8604,-4.8604,-4.8604,-4.8604,0.0,0.0,0.0,0.0,0.0,0.0,0.0,0.0,0.0,0.0,0.0,0.0,-4.5048,-4.5187,-4.5897,-4.5665,-4.608,-4.6603,-4.6603,0.0,0.0,-4.7465,-4.7619,-4.7804,-4.8481,0.0,-4.9372,-4.9613,0.0,0.0,0.0,-5.2618,-5.3649,-5.5134,-5.6034,-5.692,-5.7741,-5.8492,-5.9012,-5.9012,-5.9012,-5.9012,-5.9012,-5.9737,-6.053,-6.1254,-6.2048,-6.2841,-6.3565,-6.36,-6.36,-6.36,-6.36,-6.36,-6.36,-6.4358,-6.4703,-6.4772,-6.629,-6.698,-6.7049,-6.7773,-6.8083,-6.8083,-6.8083,-6.8083,-6.8083,-6.8083,-6.8083,-6.8083,-6.8083,-6.8083,-6.8083,0.0,0.0,0.0,0.0,0.0,0.0,0.0,0.0,0.0,0.0,0.0,0.0,0.0,0.0,0.0,0.0,0.0,0.0,-4.8604,-4.8604,-4.8604,-4.8604,-4.8604,-4.8604,-4.8604,-4.8604,-4.8604,-4.8604,-4.8604,-4.8604,-4.8604,-4.8604,-4.8604,-4.8604,-4.8604,-4.8604,-4.8604,-4.8604,-4.8604,-4.8604,-4.8604,-4.8604,-4.8604,0.0,0.0,0.0,0.0,0.0,0.0,0.0,0.0,0.0,0.0,0.0,0.0,-4.5122,-4.4998,-4.5277,-4.5696,0.0,0.0,0.0,0.0,0.0,0.0,-4.7893,0.0,0.0,0.0,-4.9497,-5.0272,0.0,0.0,-5.3311,-5.3777,-5.4487,-5.6014,-5.6887,-5.752,-5.7741,-5.8492,-5.9012,-5.9012,-5.9012,-5.9012,-5.9012,-5.9737,-6.053,-6.1254,-6.253,-6.3358,-6.36,-6.4083,-6.4117,-6.36,-6.36,-6.3841,-6.4393,-6.5152,-6.5531,-6.5566,-6.6531,-6.7256,-6.7773,-6.8014,-6.8083,-6.8083,-6.8083,-6.8083,-6.8083,-6.8083,-6.8083,-6.8083,-6.8083,-6.8083,-6.8083,0.0,0.0,0.0,0.0,0.0,0.0,0.0,0.0,0.0,0.0,-4.4684,-4.5298,0.0,0.0,0.0,0.0,0.0,0.0,-4.8604,-4.8604,-4.8604,-4.8604,-4.8604,-4.8604,-4.8604,-4.8604,-4.8604,-4.8604,-4.8604,-4.8604,-4.8604,-4.8604,-4.8604,-4.8604,-4.8604,-4.8604,-4.8604,-4.8604,-4.8604,-4.8604,-4.8604,-4.8604,-4.8604,0.0,0.0,0.0,0.0,0.0,0.0,0.0,0.0,0.0,0.0,0.0,0.0,-4.5477,-4.5539,-4.5911,0.0,0.0,0.0,0.0,0.0,0.0,0.0,0.0,0.0,0.0,0.0,0.0,-5.0668,-5.1316,0.0,-5.3987,-5.4503,-5.5227,-5.6854,-5.752,-5.7887,-5.828,-5.8702,-5.9012,-5.9012,-5.9012,-5.915,-5.9461,-6.0185,-6.0978,-6.1737,-6.322,-6.4048,-6.4048,-6.4462,-6.4496,-6.4048,-6.3738,-6.3979,-6.4703,-6.5497,-6.6048,-6.6359,-6.7083,-6.7669,-6.8083,-6.8083,-6.8083,-6.8083,-6.8083,-6.8083,-6.8083,-6.8083,-6.8083,-6.8083,-6.8083,-6.8083,-6.8152,0.0,0.0,0.0,0.0,0.0,0.0,0.0,0.0,0.0,0.0,-4.4219,-4.4932,0.0,0.0,0.0,-4.8521,-4.8604,-4.8604,-4.8604,-4.8604,-4.8604,-4.8604,-4.8604,-4.8604,-4.8604,-4.8604,-4.8604,-4.8604,-4.8604,-4.8604,-4.8604,-4.8604,-4.8604,-4.8604,-4.8604,-4.8604,-4.8604,-4.8604,-4.8604,-4.8604,-4.8604,-4.8604,-4.8604,-4.8604,0.0,0.0,0.0,0.0,0.0,0.0,0.0,0.0,0.0,0.0,-4.6429,-4.6112,-4.6578,-4.7279,0.0,0.0,0.0,0.0,0.0,0.0,0.0,0.0,0.0,0.0,0.0,0.0,0.0,-5.2238,-5.3426,-5.4373,-5.5052,-5.6001,-5.7668,-5.7887,-5.8174,-5.8944,-5.9012,-5.9012,-5.9012,-5.9012,-5.9323,-6.0151,-6.0875,-6.1668,-6.253,-6.3979,-6.4807,-6.4807,-6.4876,-6.4841,-6.4703,-6.4117,-6.4152,-6.4807,-6.56,-6.6393,-6.7118,-6.7773,-6.8083,-6.8083,-6.8083,-6.8083,-6.8083,-6.8083,-6.8083,-6.8083,-6.8083,-6.8083,-6.8083,-6.8083,-6.8152,-6.829,0.0,0.0,0.0,0.0,0.0,0.0,0.0,0.0,0.0,0.0,0.0,0.0,0.0,-4.6579,0.0,-4.8438,-4.8604,-4.8604,-4.8604,-4.8604,-4.8604,-4.8604,-4.8604,-4.8604,-4.8604,-4.8604,-4.8604,-4.8604,-4.8604,-4.8604,-4.8604,-4.8604,-4.8604,-4.8604,-4.8604,-4.8604,-4.8604,-4.8604,-4.8604,-4.8604,-4.8604,-4.8604,-4.8604,-4.8604,-4.8718,0.0,0.0,0.0,0.0,0.0,0.0,0.0,-4.7495,-4.7114,-4.6823,-4.7119,-4.7215,0.0,0.0,0.0,0.0,0.0,0.0,0.0,0.0,0.0,0.0,0.0,0.0,0.0,0.0,-5.2902,-5.3751,-5.5739,-5.6204,-5.6887,-5.8492,-5.8702,-5.8806,-5.9012,-5.9012,-5.9012,-5.9012,-5.9012,-5.9323,-6.0151,-6.0875,-6.191,-6.3289,-6.4807,-6.5635,-6.5635,-6.6186,-6.5911,-6.4703,-6.5152,-6.5462,-6.5635,-6.6393,-6.7152,-6.7876,-6.8014,-6.8083,-6.8083,-6.8083,-6.8083,-6.8083,-6.8083,-6.8083,-6.8083,-6.8083,-6.8083,-6.8083,-6.8083,-6.8497,-6.9049,0.0,0.0,0.0,0.0,0.0,0.0,0.0,0.0,0.0,0.0,0.0,0.0,0.0,-4.6048,0.0,0.0,-4.8604,-4.8604,-4.8604,-4.8604,-4.8604,-4.8604,-4.8604,-4.8604,-4.8604,-4.8604,-4.8604,-4.8604,-4.8604,-4.8604,-4.8604,-4.8604,-4.8604,-4.8604,-4.8604,-4.8604,-4.8604,-4.8604,-4.8604,-4.8604,-4.8604,-4.8718,-4.88,-4.88,-4.8965,-4.9128,-4.9128,0.0,0.0,0.0,0.0,0.0,0.0,0.0,-4.7391,-4.7963,-4.7997,0.0,0.0,0.0,0.0,0.0,0.0,0.0,0.0,0.0,0.0,0.0,0.0,0.0,0.0,-5.3681,-5.468,-5.6315,-5.692,-5.7729,-5.9391,-5.9254,-5.915,-5.953,-5.9254,-5.9012,-5.9012,-5.9357,-5.9909,-6.0668,-6.1427,-6.253,-6.4048,-6.5255,-6.6048,-6.6393,-6.6773,-6.66,-6.5807,-6.5842,-6.6048,-6.6428,-6.6807,-6.7394,-6.8083,-6.8083,-6.8083,-6.8083,-6.8083,-6.8083,-6.8083,-6.8083,-6.8083,-6.8083,-6.8083,-6.8083,-6.8083,-6.8083,-6.8601,-6.9325,0.0,0.0,0.0,0.0,0.0,0.0,0.0,0.0,0.0,0.0,0.0,0.0,0.0,-4.5508,-4.6314,0.0,0.0,0.0,-4.8604,-4.8604,-4.8604,-4.8604,-4.8604,-4.8604,-4.8604,-4.8604,-4.8604,-4.8604,-4.8604,-4.8604,-4.8604,-4.8604,-4.8604,-4.8604,-4.8604,-4.8604,-4.8604,-4.8604,-4.8604,-4.8604,-4.8604,-4.8718,-4.8914,-4.8914,-4.9047,-4.9291,-4.9291,-4.9108,-4.8859,-4.9347,0.0,0.0,0.0,0.0,-4.8193,-4.8655,-4.8797,-4.8812,0.0,0.0,0.0,0.0,0.0,0.0,0.0,0.0,0.0,0.0,0.0,0.0,-5.325,-5.4384,-5.5636,-5.6459,-5.7297,-5.8375,-6.0012,-5.9633,-5.9461,-6.0116,-5.9599,-5.915,-5.9012,-5.9737,-6.0496,-6.1254,-6.2048,-6.3186,-6.4807,-6.5531,-6.629,-6.7152,-6.7187,-6.7118,-6.698,-6.6497,-6.6497,-6.698,-6.7118,-6.7497,-6.8083,-6.8083,-6.8083,-6.8083,-6.8083,-6.8083,-6.8083,-6.8083,-6.8083,-6.8083,-6.8083,-6.8083,-6.8118,-6.8256,-6.8808,-6.9566,0.0,0.0,0.0,0.0,0.0,0.0,0.0,0.0,0.0,0.0,-4.29,-4.3328,0.0,-4.4499,-4.5298,-4.7189,-4.7392,-4.7734,-4.8521,0.0,0.0,-4.8604,-4.8604,-4.8604,-4.8604,-4.8604,-4.8604,-4.8604,-4.8604,-4.8604,-4.8604,-4.8604,-4.8604,-4.8604,-4.8604,-4.8604,-4.8604,-4.8604,-4.8604,-4.8604,-4.8604,-4.8604,-4.8635,-4.8635,-4.8934,-4.9291,-4.9291,-4.947,-4.9631,-4.9126,-4.8889,0.0,0.0,0.0,-4.8889,-4.9505,-4.9615,0.0,0.0,0.0,0.0,0.0,0.0,0.0,0.0,0.0,0.0,0.0,0.0,0.0,-5.385,-5.4704,-5.5636,-5.6459,-5.7297,-5.8375,-6.0012,-6.0116,-6.0082,-6.0185,-6.0116,-5.9771,-5.9081,-5.9737,-6.0496,-6.1254,-6.2048,-6.3427,-6.56,-6.5807,-6.6531,-6.7911,-6.7945,-6.7635,-6.7014,-6.7532,-6.7532,-6.7014,-6.7635,-6.8014,-6.8083,-6.8083,-6.8083,-6.8083,-6.8083,-6.8083,-6.8083,-6.8083,-6.8083,-6.8083,-6.8083,-6.8083,-6.8187,-6.8877,-6.9601,-7.036,0.0,0.0,0.0,0.0,0.0,0.0,0.0,0.0,0.0,0.0,0.0,-4.3232,0.0,-4.4312,-4.5115,-4.7016,-4.7189,-4.7649,-4.8521,-4.8604,-4.8604,-4.8604,-4.8604,-4.8604,-4.8604,-4.8604,-4.8604,-4.8604,-4.8604,-4.8604,-4.8604,-4.8604,-4.8604,-4.8604,-4.8604,-4.8604,-4.8604,-4.8604,-4.8604,-4.8604,-4.8604,-4.8718,-4.88,-4.8965,-4.9178,-4.9533,-4.9613,-4.9521,-4.9363,-4.9426,-4.9205,-4.8952,-4.9331,0.0,0.0,0.0,-5.0214,0.0,0.0,0.0,0.0,0.0,0.0,0.0,0.0,0.0,0.0,0.0,0.0,-5.4988,-5.4819,-5.5474,-5.627,-5.7147,-5.8332,-5.9558,-6.0632,-6.0806,-6.0806,-6.0806,-6.0461,-5.9875,-5.9081,-6.0116,-6.0944,-6.1289,-6.2806,-6.4358,-6.5807,-6.629,-6.698,-6.8049,-6.8083,-6.7945,-6.7601,-6.7945,-6.7945,-6.7601,-6.7945,-6.8083,-6.8083,-6.8083,-6.8083,-6.8083,-6.8083,-6.8083,-6.8083,-6.8083,-6.8083,-6.8083,-6.8083,-6.8083,-6.8187,-6.898,-6.9739,-7.0498,0.0,0.0,0.0,0.0,0.0,0.0,0.0,0.0,0.0,0.0,0.0,0.0,0.0,0.0,0.0,0.0,-4.6667,-4.7362,-4.8521,-4.8604,-4.8604,-4.8604,-4.8604,-4.8604,-4.8604,-4.8604,-4.8604,-4.8604,-4.8604,-4.8604,-4.8604,-4.8604,-4.8604,-4.8604,-4.8604,-4.8604,-4.8604,-4.8604,-4.8604,-4.8604,-4.8604,-4.8718,-4.8883,-4.9047,-4.9259,-4.9533,-4.9693,-4.9505,-4.9236,-4.9742,-4.9584,-4.9236,-4.9742,-4.9931,0.0,0.0,0.0,-5.0647,0.0,0.0,0.0,0.0,0.0,0.0,0.0,0.0,0.0,0.0,0.0,-5.6459,-5.6001,-5.6503,-5.7147,-5.7741,-5.9142,-6.0461,-6.1185,-6.1496,-6.1599,-6.1599,-6.0944,-6.0254,-5.9633,-6.0634,-6.1392,-6.1599,-6.3531,-6.5048,-6.5842,-6.66,-6.7325,-6.8083,-6.8083,-6.8083,-6.8083,-6.8083,-6.8083,-6.8083,-6.8083,-6.8083,-6.8083,-6.8083,-6.8083,-6.8083,-6.8083,-6.8083,-6.8083,-6.8083,-6.8083,-6.8083,-6.8083,-6.8083,-6.8221,-6.9187,-6.9911,-7.0532,0.0,0.0,0.0,0.0,0.0,0.0,0.0,0.0,0.0,0.0,0.0,-4.29,-4.297,-4.297,-4.3328,-4.4406,-4.5326,-4.6667,-4.8438,-4.8604,-4.8604,-4.8604,-4.8604,0.0,-4.8604,-4.8604,-4.8604,-4.8604,-4.8604,-4.8604,-4.8604,-4.8604,-4.8604,-4.8604,-4.8604,-4.8604,-4.8604,-4.8604,-4.8604,-4.8604,-4.8604,-4.8604,-4.8604,-4.8604,-4.8934,-4.9372,-4.9372,-4.9582,-4.9868,-4.99,-4.99,-4.9868,-4.99,-4.9931,-5.0058,0.0,0.0,0.0,0.0,0.0,0.0,0.0,0.0,0.0,0.0,0.0,0.0,0.0,0.0,-5.6844,-5.752,-5.7741,-5.7741,-5.7814,-5.9142,-6.0461,-6.1185,-6.1944,-6.2427,-6.2427,-6.1737,-6.122,-6.1185,-6.1254,-6.1634,-6.2358,-6.3841,-6.5048,-6.5842,-6.66,-6.7325,-6.8083,-6.8083,-6.8083,-6.8083,-6.8083,-6.8083,-6.8083,-6.8083,-6.8083,-6.8083,-6.8083,-6.8083,-6.8083,-6.8083,-6.8083,-6.8083,-6.8083,-6.8083,-6.8083,-6.8083,-6.8083,-6.829,-6.9773,-7.036,-7.0601,0.0,0.0,0.0,0.0,0.0,0.0,0.0,0.0,0.0,0.0,0.0,0.0,0.0,-4.29,-4.3519,-4.5144,-4.6667,-4.7904,-4.8521,-4.8604,-4.8604,-4.8604,-4.8604,-4.8604,-4.8604,-4.8604,-4.8604,-4.8604,-4.8604,-4.8604,-4.8604,-4.8604,-4.8604,-4.8604,-4.8604,-4.8604,-4.8604,-4.8604,-4.8604,-4.8604,-4.8604,-4.8604,-4.8604,-4.88,-4.8965,-4.9128,-4.9372,-4.9613,-4.9773,-4.9852,-4.9931,-4.9931,-4.9931,-4.9931,-5.0058,-5.0876,-5.2356,-5.3715,-5.3715,0.0,0.0,0.0,0.0,0.0,0.0,0.0,0.0,0.0,0.0,-5.828,-5.8492,-5.8103,-5.7959,-5.8492,-5.9837,-6.1013,-6.1254,-6.2393,-6.3013,-6.253,-6.2255,-6.1875,-6.1358,-6.1772,-6.2186,-6.2461,-6.4324,-6.56,-6.5876,-6.7049,-6.7807,-6.8083,-6.8083,-6.8083,-6.8083,-6.8083,-6.8083,-6.8083,-6.8083,-6.8083,-6.8083,-6.8083,-6.8083,-6.8083,-6.8083,-6.8083,-6.8083,-6.8083,-6.8083,-6.8083,-6.8083,-6.8083,-6.829,-6.9808,-7.0394,-7.0601,0.0,0.0,0.0,-4.29,0.0,-4.29,-4.29,-4.29,-4.29,-4.29,0.0,0.0,0.0,0.0,-4.3709,-4.5598,-4.7189,-4.8271,-4.8604,-4.8604,-4.8604,-4.8604,-4.8604,-4.8604,-4.8604,-4.8604,-4.8604,-4.8604,-4.8604,-4.8604,-4.8604,-4.8604,-4.8604,-4.8604,-4.8604,-4.8604,-4.8604,-4.8604,-4.8604,-4.8604,-4.8604,-4.8604,-4.8604,-4.88,-4.8914,-4.9078,-4.9372,-4.9533,-4.9613,-4.9852,-4.9931,-4.9931,-4.9931,-5.0452,-5.1262,-5.2319,-5.3874,-5.5281,-5.5281,-5.6232,0.0,0.0,0.0,0.0,0.0,0.0,0.0,0.0,0.0,-5.9012,-5.9012,-5.8562,-5.849,-5.9288,-6.0461,-6.1392,-6.1668,-6.2806,-6.3427,-6.291,-6.2634,-6.2393,-6.2117,-6.2324,-6.2599,-6.2841,-6.4738,-6.5876,-6.5876,-6.729,-6.8083,-6.8083,-6.8083,-6.8083,-6.8083,-6.8083,-6.8083,-6.8083,-6.8083,-6.8083,-6.8083,-6.8083,-6.8083,-6.8083,-6.8083,-6.8083,-6.8083,-6.8083,-6.8083,-6.8083,-6.8083,-6.8083,-6.829,-6.9808,-7.0394,-7.0601,-4.29,-4.29,-4.29,-4.29,-4.29,-4.29,-4.29,-4.29,-4.29,-4.29,0.0,0.0,0.0,0.0,0.0,-4.5598,-4.6667,-4.7649,-4.8521,-4.8604,-4.8604,-4.8604,-4.8604,-4.8604,-4.8604,-4.8604,-4.8604,-4.8604,-4.8604,-4.8604,-4.8604,-4.8604,-4.8604,-4.8604,-4.8604,-4.8604,-4.8604,-4.8604,-4.8604,-4.8604,-4.8604,-4.8604,-4.8604,-4.8604,-4.8718,-4.8996,-4.921,-4.9452,-4.9613,-4.9852,-4.9963,-4.9963,-4.9995,-5.1544,-5.3645,-5.5134,-5.6099,-5.6774,0.0,0.0,0.0,0.0,0.0,0.0,0.0,0.0,0.0,0.0,-5.9012,-5.9012,-5.9012,-5.9012,-5.9288,-6.0082,-6.084,-6.1565,-6.2393,-6.3117,-6.36,-6.36,-6.2944,-6.2806,-6.3531,-6.2944,-6.2806,-6.3531,-6.5014,-6.5876,-6.5876,-6.729,-6.8083,-6.8083,-6.8083,-6.8083,-6.8083,-6.8083,-6.8083,-6.8083,-6.8083,-6.8083,-6.8083,-6.8083,-6.8083,-6.8083,-6.8083,-6.8083,-6.8083,-6.8083,-6.8083,-6.8083,-6.8083,-6.8083,-6.829,-6.9808,-7.0394,-7.0601,-4.3067,-4.29,-4.29,-4.29,-4.29,-4.29,-4.29,-4.29,-4.29,0.0,0.0,0.0,-4.29,-4.4153,-4.5235,-4.5779,-4.6667,-4.7649,-4.8521,-4.7988,-4.7904,-4.8604,-4.8604,-4.8604,-4.8604,-4.8604,-4.8604,-4.8604,-4.8604,-4.8604,-4.8604,-4.8604,-4.8604,-4.8604,-4.8604,-4.8604,-4.8604,-4.8604,-4.8604,-4.8604,-4.8604,-4.8604,-4.8604,-4.8604,-4.8635,-4.8718,-4.8965,-4.921,-4.9515,-5.021,-5.0529,-5.0753,-5.129,-5.1868,-5.2588,-5.353,-5.4792,-5.6001,-5.6568,0.0,0.0,0.0,0.0,0.0,0.0,0.0,0.0,0.0,-5.9012,-5.9012,-5.9012,-5.9012,-5.9461,-6.0771,-6.1185,-6.1565,-6.2393,-6.3117,-6.36,-6.36,-6.3427,-6.3358,-6.3565,-6.3427,-6.3358,-6.3565,-6.5014,-6.5876,-6.5876,-6.729,-6.8083,-6.8083,-6.8083,-6.8083,-6.8083,-6.8083,-6.8083,-6.8083,-6.8083,-6.8083,-6.8083,-6.8083,-6.8083,-6.8083,-6.8083,-6.8083,-6.8083,-6.8083,-6.8083,-6.8083,-6.8083,-6.8083,-6.829,-6.9808,-7.0394,-7.0601,-4.4014,-4.3877,-4.396,-4.4208,-4.3901,-4.383,-4.4166,-4.4263,-4.4096,0.0,0.0,0.0,-4.4573,-4.5652,-4.6403,-4.6403,-4.7276,-4.7988,-4.8521,-4.8072,-4.7988,-4.8604,-4.8604,-4.8604,-4.8604,-4.8604,-4.8604,-4.8604,-4.8604,-4.8758,-4.9066,-4.9066,-4.922,-4.9497,-4.9497,-4.9497,-4.9497,-4.9497,-4.9158,-4.8604,-4.8604,-4.8604,-4.8635,-4.8943,-4.9149,-4.9233,-4.9792,-5.005,-5.0278,-5.0963,-5.1335,-5.1593,-5.2617,-5.2972,-5.3279,-5.4689,-5.5771,-5.6627,-5.7457,-5.8324,-5.9012,-5.9012,0.0,0.0,-5.9012,-5.9012,-5.9012,0.0,-5.9012,-5.9012,-5.9012,-5.9012,-5.9495,-6.1047,-6.1289,-6.1703,-6.2806,-6.3324,-6.36,-6.36,-6.36,-6.36,-6.36,-6.36,-6.3738,-6.4048,-6.5186,-6.6152,-6.6773,-6.7635,-6.8083,-6.8083,-6.8083,-6.8083,-6.8083,-6.8083,-6.8083,-6.8083,-6.8083,-6.8083,-6.8083,-6.8083,-6.8083,-6.8083,-6.8083,-6.8083,-6.8083,-6.8083,-6.8083,-6.8083,-6.8083,-6.8083,-6.829,-6.9808,-7.0394,-7.0601,0.0,-4.5514,-4.5684,-4.6248,-4.5607,-4.5338,-4.6264,-4.6333,-4.607,0.0,-4.665,-4.7556,-4.7003,-4.7229,-4.7429,-4.7429,-4.8231,-4.8736,-4.885,-4.8767,-4.8736,-4.885,-4.885,-4.885,-4.885,-4.885,-4.885,-4.885,-4.885,-4.9158,-4.9805,-4.9805,-5.0112,-5.0697,-5.0697,-5.0697,-5.0697,-5.0697,-4.9989,-4.885,-4.885,-4.885,-4.8912,-4.9558,-4.9943,-5.0173,-5.0932,-5.1234,-5.1403,-5.1946,-5.2175,-5.2499,-5.3809,-5.4245,-5.4695,-5.6763,-5.752,-5.7814,-5.8562,-5.8875,-5.9012,-5.9012,-5.9012,0.0,-5.9012,-5.9012,-5.9012,-5.9012,-5.9012,-5.9012,-5.9012,-5.9012,-5.9495,-6.1047,-6.1289,-6.1841,-6.3393,-6.36,-6.36,-6.36,-6.36,-6.36,-6.36,-6.36,-6.3876,-6.4531,-6.5393,-6.6531,-6.8014,-6.8083,-6.8083,-6.8083,-6.8083,-6.8083,-6.8083,-6.8083,-6.8083,-6.8083,-6.8083,-6.8083,-6.8083,-6.8083,-6.8083,-6.8083,-6.8083,-6.8083,-6.8083,-6.8083,-6.8083,-6.8083,-6.8083,-6.8083,-6.829,-6.9808,-7.0394,-7.0601,-4.7462,-4.7304,-4.7333,-4.7449,-4.7318,-4.7318,-4.7478,-4.7478,-4.7413,-4.7223,-4.7601,-4.773,-4.7614,-4.8295,-4.8775,-4.8775,-4.8953,-4.9425,-5.0297,-4.9513,-4.9425,-5.0297,-5.0297,-5.0297,-5.0297,-5.0297,-5.0297,-5.0297,-5.0297,-5.0359,-5.0482,-5.0482,-5.0574,-5.0697,-5.0697,-5.0697,-5.0697,-5.0697,-5.0543,-5.0297,-5.0297,-5.0297,-5.0297,-5.0451,-5.0482,-5.0599,-5.0722,-5.101,-5.1496,-5.2513,-5.325,-5.3724,-5.3989,-5.4137,-5.4221,-5.4685,-5.5749,-5.6844,-5.7072,-5.8031,-5.9012,-5.9012,-5.9012,0.0,-5.9012,-5.9012,-5.9012,0.0,-5.9012,-5.9012,-5.9012,-5.9012,-5.9495,-6.1047,-6.1289,-6.1841,-6.3393,-6.36,-6.36,-6.36,-6.36,-6.36,-6.36,-6.36,-6.3669,-6.3807,-6.5083,-6.6531,-6.8014,-6.8083,-6.8083,-6.8083,-6.8083,-6.8083,-6.8083,-6.8083,-6.8083,-6.8083,-6.8083,-6.8083,-6.8083,-6.8083,-6.8083,-6.8083,-6.8083,-6.8083,-6.8083,-6.8083,-6.8083,-6.8083,-6.8083,-6.8083,-6.829,-6.9808,-7.0394,-7.0601,-4.9127,-4.9001,-4.909,-4.9415,-4.9004,-4.8909,-4.938,-4.9474,-4.9287,-4.8719,-4.8805,-4.9186,-4.9673,-4.9853,-4.9938,-4.9938,-4.9938,-5.0114,-5.0697,-5.0201,-5.0201,-5.0697,-5.0697,-5.0697,-5.0697,-5.0697,-5.0697,-5.0697,-5.0697,-5.0882,-5.119,-5.119,-5.1374,-5.1713,-5.1713,-5.1713,-5.1713,-5.1713,-5.1713,-5.1652,-5.0974,-5.0697,-5.0728,-5.1067,-5.1277,-5.1395,-5.1734,-5.212,-5.241,-5.3044,-5.3561,-5.3931,-5.4103,-5.4103,-5.4189,-5.4549,-5.5588,-5.6691,-5.7072,-5.8103,-5.9012,-5.9012,-5.9012,0.0,0.0,-5.9012,-5.9012,-5.9012,-5.9012,-5.9012,-5.9012,-5.9012,-5.9495,-6.1047,-6.1289,-6.1841,-6.3393,-6.36,-6.36,-6.36,-6.36,-6.36,-6.36,-6.36,-6.391,-6.4669,-6.5773,-6.6911,-6.8049,-6.8083,-6.8083,-6.8083,-6.8083,-6.8083,-6.8083,-6.8083,-6.8083,-6.8083,-6.8083,-6.8083,-6.8083,-6.8083,-6.8083,-6.8083,-6.8083,-6.8083,-6.8083,-6.8083,-6.8083,-6.8083,-6.8083,-6.8083,-6.8221,-6.9394,-7.0049,-7.0532,-5.0698,-5.0607,-5.0787,-5.1329,-5.0733,-5.0449,-5.1296,-5.1419,-5.1109,-5.0353,-5.0475,-5.091,-5.1809,-5.1405,-5.1097,-5.1097,-5.1097,-5.1097,-5.1097,-5.1097,-5.1097,-5.1097,-5.1097,-5.1097,-5.1097,-5.1097,-5.1097,-5.1097,-5.1097,-5.1374,-5.1898,-5.1898,-5.2206,-5.2698,-5.2698,-5.2698,-5.2698,-5.2698,-5.2698,-5.2606,-5.1528,-5.1097,-5.1128,-5.1682,-5.1955,-5.2193,-5.2869,-5.3233,-5.3377,-5.3377,-5.3584,-5.3876,-5.4017,-5.4103,-5.4242,-5.4851,-5.5636,-5.6503,-5.7114,-5.7959,-5.8562,-5.8702,-5.8806,-5.8806,0.0,0.0,0.0,-5.9012,0.0,0.0,0.0,0.0,0.0,-6.0703,0.0,0.0,-6.3013,-6.3393,-6.36,-6.36,-6.36,-6.36,-6.36,-6.36,-6.422,-6.5773,-6.6428,-6.7152,-6.8049,-6.8083,-6.8004,-6.8004,-6.8004,-6.8004,-6.8004,-6.8004,-6.8083,-6.8083,-6.8083,-6.8083,-6.8083,-6.8083,-6.8083,-6.8083,-6.8083,-6.8083,-6.8083,-6.8083,-6.8083,-6.8083,-6.8083,-6.8083,-6.8187,-6.898,-6.9739,-7.0498,-5.2395,-5.2395,-5.2426,-5.2487,-5.2427,-5.2427,-5.2518,-5.2518,-5.2518,-5.2306,-5.2366,-5.2485,-5.2606,-5.2513,-5.2483,-5.2483,-5.2483,-5.2483,-5.2483,-5.2483,-5.2483,-5.2483,-5.2483,-5.2483,-5.2483,-5.2483,-5.2483,-5.2483,-5.2483,-5.2513,-5.2606,-5.2606,-5.2637,-5.2698,-5.2698,-5.2698,-5.2698,-5.2698,-5.2698,-5.2698,-5.2544,-5.2483,-5.2483,-5.2575,-5.2606,-5.2695,-5.2966,-5.3233,-5.3377,-5.3377,-5.3726,-5.4017,-5.3876,-5.3962,-5.4103,-5.4157,-5.4768,-5.5474,-5.5523,-5.6192,-5.7072,-5.7741,-5.7959,-5.8103,-5.8875,0.0,-5.9012,-5.9012,0.0,0.0,0.0,0.0,0.0,-5.9357,-6.1013,-6.2186,-6.1634,-6.2737,-6.36,-6.36,-6.36,-6.36,-6.36,-6.3452,-6.403,-6.5773,-6.5826,-6.648,-6.8014,-6.7959,-6.7879,-6.7879,-6.7638,-6.7638,-6.7799,-6.7879,-6.7959,-6.8083,-6.8083,-6.8083,-6.8083,-6.8083,-6.8083,-6.8083,-6.8083,-6.8083,-6.8083,-6.8083,-6.8083,-6.8083,-6.8083,-6.8083,-6.8187,-6.898,-6.9739,-7.0498,-5.2698,-5.2698,-5.2698,-5.2698,-5.2698,-5.2698,-5.2698,-5.2698,-5.2698,-5.2698,-5.2698,-5.2698,-5.2698,-5.2124,-5.2002,-5.2608,-5.2124,-5.2033,-5.2608,-5.2698,-5.2698,-5.2698,-5.2698,-5.2698,-5.2698,-5.2698,-5.2698,-5.2698,-5.2698,-5.2698,-5.2698,-5.2698,-5.2698,-5.2698,-5.2698,0.0,-5.2698,0.0,-5.2698,-5.2698,-5.2698,-5.2698,-5.2698,-5.2698,-5.2698,-5.2698,-5.2819,-5.2877,-5.3055,-5.3144,-5.3658,-5.4267,-5.4354,-5.4813,-5.5304,-5.5304,-5.5933,-5.6543,-5.6543,-5.7522,-5.8571,-5.8341,-5.9099,-5.9792,-5.9648,-5.9935,-6.0323,-6.0323,0.0,0.0,0.0,0.0,0.0,0.0,-6.1841,-6.253,-6.2634,-6.3186,-6.36,-6.36,-6.36,-6.36,-6.36,-6.3526,-6.4146,-6.5773,-6.5799,-6.6454,-6.8014,-6.8004,-6.7959,-6.7799,-6.7719,-6.7719,-6.7799,-6.7799,-6.7879,-6.8083,-6.8083,-6.8083,-6.8083,-6.8083,-6.8083,-6.8083,-6.8083,-6.8083,-6.8083,-6.8083,-6.8083,-6.8083,-6.8083,-6.8083,-6.8152,-6.8463,-6.936,-7.0429,-5.2788,-5.2729,-5.2698,-5.2698,-5.2698,-5.2698,-5.2698,-5.2698,-5.2698,-5.2698,-5.2698,-5.2698,-5.2698,-5.1727,-5.1512,-5.2608,-5.1697,-5.1512,-5.2608,-5.2698,-5.2698,-5.2698,-5.2698,-5.2698,-5.2698,-5.2788,-5.2788,-5.2698,-5.2788,-5.2788,-5.2788,-5.2698,-5.2698,-5.2819,-5.2698,-5.2698,-5.2698,0.0,-5.2698,-5.2698,-5.2698,-5.2698,-5.2698,-5.2698,-5.2698,-5.2729,-5.2914,-5.2975,-5.3096,-5.3492,-5.4013,-5.4688,-5.4867,-5.5422,-5.6099,-5.6099,-5.6567,-5.7056,-5.7056,-5.8002,-5.8927,-5.88,-5.9665,-6.0603,-6.0421,-6.0823,-6.1289,-6.1289,-6.1289,0.0,0.0,0.0,-6.1668,-6.1841,0.0,-6.2841,-6.2944,-6.3324,-6.36,-6.36,-6.36,-6.36,-6.36,-6.3526,-6.4077,-6.5462,-6.5696,-6.6385,-6.7738,-6.7901,-6.7959,-6.7719,-6.7638,-6.7638,-6.7719,-6.7719,-6.7879,-6.8083,-6.8083,-6.8083,-6.8083,-6.8083,-6.8083,-6.8083,-6.8083,-6.8083,-6.8083,-6.8083,-6.8083,-6.8083,-6.8083,-6.8083,-6.8083,-6.8083,-6.8946,-7.0118,-5.3175,-5.2908,-5.2698,-5.2698,-5.2698,-5.2698,-5.2698,-5.2698,-5.2698,-5.2698,-5.2698,-5.2698,-5.2698,-5.1727,-5.1512,-5.2608,-5.1697,-5.1512,-5.2608,-5.2698,-5.2698,-5.2698,-5.2698,-5.2698,-5.2698,-5.2966,-5.2997,-5.2698,-5.2997,-5.3086,-5.3086,-5.2819,-5.2819,-5.3086,-5.2819,-5.2698,-5.2698,-5.2698,-5.2698,-5.2698,-5.2698,-5.2698,-5.2698,-5.2698,-5.2698,-5.279,-5.3468,-5.3866,-5.4171,-5.4545,-5.4946,-5.5314,-5.5162,-5.5436,-5.5799,-5.5799,-5.5978,-5.6278,-5.6278,-5.6278,-5.6742,-5.8363,-5.8847,-5.9321,-6.0895,-6.1289,-6.1289,-6.1289,-6.1289,-6.1289,-6.1289,-6.1944,-6.1979,-6.0496,-6.2117,0.0,0.0,-6.2668,-6.36,-6.36,-6.36,-6.36,-6.36,-6.3452,-6.3686,-6.4669,-6.531,-6.5989,-6.698,-6.7546,-6.7719,-6.751,-6.7346,-6.7346,-6.7475,-6.7475,-6.7719,-6.8083,-6.8083,-6.8083,-6.8083,-6.8083,-6.8083,-6.8083,-6.8083,-6.8083,-6.8083,-6.8083,-6.8083,-6.8083,-6.8083,-6.8083,-6.8083,-6.8083,-6.8601,-6.9428,-5.4691,-5.4601,-5.414,-5.2973,-5.2819,-5.2877,-5.2729,-5.2698,-5.2698,0.0,-5.2698,0.0,0.0,-5.1139,-5.0544,-5.1512,-5.0733,-5.0544,-5.1604,-5.2306,-5.2698,-5.2698,-5.2698,-5.2698,-5.2698,-5.2997,-5.2997,-5.2698,-5.2997,-5.2997,-5.2788,-5.2698,-5.2729,-5.2819,-5.2698,-5.2698,0.0,0.0,0.0,0.0,-5.3191,-5.3375,-5.3375,-5.3375,-5.3375,-5.3468,-5.4145,-5.4391,-5.4515,-5.4637,-5.5194,-5.5938,-5.603,-5.6527,-5.718,-5.7365,-5.7548,-5.7579,-5.7579,-5.7968,-5.847,-5.8502,-5.981,-6.111,-6.1077,-6.1995,-6.2806,-6.2806,-6.2806,-6.2806,-6.2806,-6.3048,-6.3048,-6.253,-6.3082,-6.3427,0.0,-6.3255,-6.36,-6.36,-6.36,-6.36,-6.36,-6.3526,-6.3836,-6.4634,-6.5352,-6.6144,-6.6945,-6.7625,-6.7879,-6.7719,-6.7475,-6.7428,-6.751,-6.751,-6.7638,-6.7879,-6.8039,-6.8083,-6.8083,-6.8083,-6.8083,-6.8083,-6.8083,-6.8083,-6.8083,-6.8083,-6.8083,-6.8083,-6.8083,-6.8083,-6.8083,-6.8083,-6.8601,-6.9463,-5.5649,-5.5649,-5.5277,-5.3954,-5.3799,-5.3889,-5.3619,-5.3528,-5.3528,0.0,-5.3437,0.0,-5.3437,0.0,-5.0899,-5.1967,-5.0882,-5.0537,-5.1344,-5.2246,-5.261,-5.2459,-5.2641,-5.2698,-5.2698,-5.2997,-5.2997,-5.2698,-5.2997,-5.2997,-5.2788,-5.2698,-5.2729,-5.2819,-5.2698,-5.2698,-5.2698,0.0,-5.2698,0.0,-5.3437,-5.3868,-5.4114,-5.433,-5.4268,-5.4176,-5.4822,-5.5068,-5.513,-5.5376,-5.584,-5.637,-5.6559,-5.7058,-5.7684,-5.7965,-5.8058,-5.8182,-5.8274,-5.8701,-5.912,-5.885,-6.0279,-6.1689,-6.1003,-6.2088,-6.3193,-6.3193,-6.3193,-6.3268,-6.3526,-6.36,-6.36,-6.36,-6.36,-6.36,0.0,-6.36,-6.36,-6.36,-6.36,-6.36,-6.36,-6.36,-6.3807,-6.4255,-6.5014,-6.5807,-6.6566,-6.729,-6.7763,-6.7799,-6.7557,-6.751,-6.751,-6.7428,-6.7475,-6.7719,-6.7799,-6.7959,-6.8039,-6.7959,-6.7959,-6.8039,-6.7959,-6.7959,-6.8004,-6.8004,-6.8039,-6.8083,-6.8083,-6.8083,-6.8083,-6.8083,-6.8601,-6.9463,-5.6015,-5.6104,-5.6194,-5.5684,-5.553,-5.5407,-5.5101,0.0,-5.5008,0.0,-5.473,-5.473,-5.473,-5.3274,-5.2597,-5.3592,-5.2181,-5.1468,-5.2001,-5.2551,-5.2582,-5.2067,-5.249,-5.276,-5.2698,-5.2997,-5.2997,-5.2729,-5.2997,-5.3086,-5.3086,-5.2788,-5.2908,-5.3086,-5.2788,-5.2698,-5.2698,-5.276,-5.279,-5.2883,-5.356,-5.4206,-5.4853,-5.5499,-5.5376,-5.4914,-5.553,-5.5745,-5.5838,-5.6546,-5.6761,-5.6761,-5.6858,-5.6923,-5.718,-5.7401,-5.7684,-5.7965,-5.8182,-5.8274,-5.8518,-5.9355,-6.0194,-6.0837,-6.0837,-6.1609,-6.2279,-6.2279,-6.2279,-6.2513,-6.3343,-6.36,-6.36,-6.3526,-6.36,-6.36,-6.36,-6.36,-6.36,-6.36,-6.36,-6.36,-6.36,-6.36,-6.36,-6.36,-6.4289,-6.5048,-6.5842,-6.66,-6.7246,-6.7765,-6.7638,-6.7475,-6.751,-6.7346,-6.7346,-6.751,-6.751,-6.7557,-6.7799,-6.7557,-6.7557,-6.7799,-6.7557,-6.7638,-6.7799,-6.7799,-6.7959,-6.8083,-6.8083,-6.8083,-6.8083,-6.8083,-6.8601,-6.9394,-5.7645,-5.7737,-5.7737,-5.7554,-5.643,-5.5407,-5.5101,0.0,0.0,0.0,-5.473,-5.473,-5.473,-5.3667,-5.3068,-5.329,-5.2918,-5.2695,-5.2845,-5.3708,-5.3868,-5.3315,-5.3346,-5.3221,-5.2729,-5.3144,-5.3233,-5.2997,-5.3233,-5.329,-5.3321,-5.3055,-5.3086,-5.3086,-5.2997,-5.2908,-5.276,-5.3252,-5.3745,-5.4268,-5.4914,-5.5284,-5.553,-5.6207,-5.6392,-5.6269,-5.6423,-5.6484,-5.6515,-5.67,-5.6761,-5.6858,-5.7019,-5.7115,-5.718,-5.7401,-5.7684,-5.7871,-5.7965,-5.8182,-5.8367,-5.861,-5.9266,-5.9935,-5.9935,-6.0586,-6.1413,-6.2201,-6.2279,-6.2358,-6.2591,-6.3193,-6.3417,-6.2779,-6.3193,-6.36,-6.36,-6.36,-6.36,-6.36,-6.36,-6.36,-6.36,-6.36,-6.36,-6.36,-6.4289,-6.5048,-6.5842,-6.66,-6.7325,-6.8004,-6.7799,-6.7638,-6.751,-6.7428,-6.7346,-6.7263,-6.7428,-6.751,-6.7557,-6.7475,-6.7475,-6.7557,-6.7475,-6.7475,-6.7557,-6.7719,-6.7799,-6.7879,-6.8004,-6.8083,-6.8083,-6.8083,-6.8601,-6.9394,-5.8274,-5.8274,-5.8274,-5.8274,-5.7336,-5.6465,-5.6186,-5.6279,0.0,-5.5781,-5.5781,0.0,-5.5781,-5.4905,-5.4339,-5.4339,-5.4001,-5.3748,-5.3631,-5.4287,-5.4481,-5.3918,-5.402,-5.3991,-5.3591,-5.3864,-5.3799,-5.352,-5.3668,-5.3601,-5.3377,-5.3144,-5.3086,-5.3086,-5.2997,-5.2973,-5.3191,-5.3868,-5.4545,-5.5191,-5.553,-5.5869,0.0,-5.6607,-5.6761,-5.6761,-5.6761,-5.6761,-5.6761,-5.6761,-5.6761,-5.6858,-5.6923,-5.6923,-5.7019,-5.7401,-5.759,-5.7778,-5.7965,-5.8182,-5.8274,-5.8274,-5.894,-5.9531,-5.912,-5.9674,-6.0501,-6.1003,-6.1086,-6.1332,-6.2167,-6.2358,-6.2436,-6.2358,-6.3007,-6.36,-6.36,-6.36,-6.36,-6.36,-6.36,-6.36,-6.36,-6.36,-6.36,-6.36,-6.3979,-6.4565,-6.5324,-6.6083,-6.6842,-6.7601,-6.7708,-6.7719,-6.7638,-6.7557,-6.7428,-6.7346,-6.7428,-6.7591,-6.7638,-6.7557,-6.7557,-6.7638,-6.7557,-6.7557,-6.7638,-6.7719,-6.7879,-6.7959,-6.8039,-6.8083,-6.8083,-6.8083,-6.8394,-6.8877,-5.8274,-5.8274,-5.8274,-5.8274,-5.8089,-5.7778,0.0,-5.7684,0.0,-5.7115,0.0,-5.7115,-5.7115,-5.6367,-5.5838,-5.5838,-5.5315,-5.4844,-5.4518,-5.4809,-5.4813,-5.4269,-5.4657,-5.4822,-5.473,-5.473,-5.4638,-5.4324,-5.4324,-5.4103,-5.3746,-5.3601,-5.3423,-5.3423,-5.3245,0.0,0.0,-5.4607,-5.5253,-5.5838,-5.5838,-5.6207,-5.6761,-5.6761,-5.6761,-5.6761,-5.6761,-5.6761,-5.6761,-5.6761,-5.6761,-5.6761,-5.6761,-5.6761,-5.6858,-5.7306,-5.7495,-5.759,-5.8089,-5.8274,-5.8274,-5.8274,-5.885,-5.9266,-5.8427,-5.885,-5.9443,-5.9619,-5.9674,-6.0279,-6.185,-6.1528,-6.1332,-6.2201,-6.3007,-6.36,-6.36,-6.36,-6.36,-6.36,-6.36,0.0,-6.36,-6.36,-6.36,-6.36,-6.36,-6.391,-6.4669,-6.5462,-6.6221,-6.698,-6.7581,-6.7799,-6.7799,-6.7638,-6.751,-6.751,-6.751,-6.7557,-6.7719,-6.7557,-6.7557,-6.7719,-6.7557,-6.7557,-6.7799,-6.7799,-6.7959,-6.8083,-6.8083,-6.8083,-6.8083,-6.8083,-6.8083,-6.8221,-5.8274,-5.8274,-5.8274,-5.8274,-5.8089,-5.7778,-5.759,-5.737,-5.7115,-5.6858,-5.6858,-5.6858,-5.6858,-5.6735,-5.6577,-5.6577,-5.6484,-5.6357,-5.6352,-5.6357,-5.6081,-5.5429,-5.5497,-5.5284,-5.473,-5.4916,-5.5131,-5.5221,-5.5221,-5.543,-5.5721,-5.5453,-5.5364,-5.5364,-5.5274,0.0,-5.5658,-5.5751,-5.612,-5.6577,-5.6577,-5.6638,-5.6761,-5.6761,-5.6761,-5.6761,-5.6761,-5.6761,-5.6761,-5.6761,-5.6761,-5.6761,-5.6761,-5.6761,-5.6858,-5.7115,-5.7306,-5.759,-5.7871,-5.8182,-5.8274,-5.8274,-5.8427,-5.8518,-5.8367,-5.8459,-5.876,-5.9443,-6.0194,-6.0754,-6.1086,-6.1689,-6.2088,-6.2279,-6.3007,-6.36,-6.36,-6.36,-6.36,-6.36,-6.36,-6.36,-6.36,-6.36,-6.36,-6.36,-6.36,-6.391,-6.4669,-6.5462,-6.6221,-6.698,-6.7704,-6.7959,-6.7799,-6.7799,-6.7638,-6.751,-6.751,-6.7475,-6.7557,-6.751,-6.7475,-6.7557,-6.751,-6.7475,-6.7557,-6.7719,-6.7959,-6.8083,-6.8083,-6.8083,-6.8083,-6.8083,-6.8083,-6.8221,0.0,0.0,0.0,0.0,0.0,0.0,0.0,-5.7115,-5.6923,-5.6923,-5.6923,-5.6923,-5.6923,-5.6858,-5.6761,-5.6761,-5.6761,-5.6761,-5.6761,-5.6761,-5.6607,-5.6269,-5.6238,-5.6115,-5.5807,-5.5871,-5.5999,-5.6029,-5.6029,-5.6116,-5.6189,-5.5889,-5.5799,-5.583,0.0,-5.6061,0.0,-5.637,-5.655,-5.6761,-5.6761,-5.6761,-5.6761,-5.6761,-5.6761,-5.6761,-5.6761,-5.6761,-5.6761,-5.6761,-5.6761,-5.6761,-5.6761,-5.7008,-5.7382,-5.7545,-5.8083,-5.8683,-5.8844,-5.9129,-5.9317,-5.9317,-5.9317,-5.9222,-5.8875,-5.8812,-5.8871,-5.8946,-5.9266,-5.9674,-6.0161,-6.092,-6.177,-6.2167,-6.2668,-6.3083,-6.3526,-6.36,-6.36,-6.36,-6.36,-6.36,-6.36,-6.36,-6.36,-6.36,-6.36,-6.3738,-6.4117,-6.5255,-6.6048,-6.6393,-6.7497,-6.8004,-6.7959,-6.7959,-6.7879,-6.7799,-6.7799,-6.7799,-6.7799,-6.7799,-6.7799,-6.7799,-6.7799,-6.7799,-6.7799,-6.7959,-6.8004,-6.8083,-6.8083,-6.8083,-6.8083,-6.8083,-6.8083,-6.8152,0.0,-5.7684,0.0,0.0,-5.7401,-5.7084,-5.7084,-5.6923,-5.6858,-5.7019,-5.7019,-5.7019,-5.7019,-5.6923,-5.6761,-5.6761,-5.6761,-5.6761,-5.6761,-5.6761,-5.6761,-5.6761,-5.6761,-5.6761,-5.6761,-5.6761,-5.6772,-5.6622,-5.6715,-5.6526,-5.632,-5.6356,-5.6329,-5.627,-5.6435,-5.6403,-5.634,-5.6707,-5.6858,-5.6761,-5.6761,-5.6761,-5.6761,-5.6761,-5.6761,-5.6792,-5.6915,-5.6977,-5.7008,-5.7131,-5.71,-5.7008,-5.7131,-5.7562,-5.806,-5.8257,-5.8923,-5.9586,-5.9847,-6.0009,-6.0201,-6.0297,-6.0297,-6.017,-5.9633,-5.9507,-5.9349,-5.8812,-5.8744,-5.8951,-5.9476,-6.0501,-6.1332,-6.1689,-6.2167,-6.2779,-6.3268,-6.3491,-6.36,-6.36,-6.36,-6.36,-6.36,-6.36,-6.36,-6.36,-6.36,-6.36,-6.36,-6.5048,-6.5876,-6.5876,-6.7325,-6.8083,-6.8083,-6.8083,-6.8083,-6.8083,-6.8083,-6.8083,-6.8083,-6.8083,-6.8083,-6.8083,-6.8083,-6.8083,-6.8083,-6.8083,-6.8083,-6.8083,-6.8083,-6.8083,-6.8083,-6.8083,-6.8083,-6.8083,0.0,0.0,0.0,0.0,0.0,-5.7084,-5.7084,-5.6923,-5.6761,-5.6858,-5.6858,-5.6858,-5.6858,-5.6858,-5.6761,-5.6761,-5.6761,-5.6761,-5.6761,-5.6761,-5.6761,-5.6761,-5.6761,-5.6761,-5.6761,-5.6761,-5.6923,-5.6991,-5.7307,-5.7121,-5.6741,-5.7677,-5.7993,-5.7683,-5.7746,-5.7496,-5.6991,-5.7053,-5.6923,-5.6761,-5.6761,-5.6761,-5.6761,-5.6761,-5.6761,-5.6854,-5.7469,-5.7685,-5.7777,-5.8393,-5.8177,-5.7777,-5.8393,-5.8639,-5.88,-5.8999,-5.9129,-5.9389,-5.975,-5.9944,-6.004,-6.0201,-6.0297,-6.0265,-6.0202,-6.0202,-6.017,-6.0107,-6.0224,-6.0186,-5.9716,-6.1003,-6.1689,-6.0108,-6.1929,-6.3268,-6.2513,-6.3083,-6.36,-6.36,-6.36,-6.36,-6.36,-6.36,-6.36,-6.36,-6.36,-6.36,-6.36,-6.5048,-6.5876,-6.5876,-6.7325,-6.8083,-6.8083,-6.8083,-6.8083,-6.8083,-6.8083,-6.8083,-6.8083,-6.8083,-6.8083,-6.8083,-6.8083,-6.8083,-6.8083,-6.8083,-6.8083,-6.8083,-6.8083,-6.8083,-6.8083,-6.8083,-6.8083,-6.8083,0.0,0.0,0.0,0.0,0.0,0.0,0.0,-5.7197,-5.7377,-5.7377,-5.7377,-5.7377,-5.7377,-5.7746,-5.7962,-5.7962,-5.7962,-5.7962,-5.7962,-5.7962,-5.7808,-5.7377,-5.7377,-5.7192,-5.6761,-5.6761,-5.6954,-5.7084,-5.7401,-5.7434,-5.7463,-5.7839,-5.7871,-5.7684,-5.7495,-5.7275,-5.7084,-5.7019,-5.6858,-5.6761,-5.6761,-5.6761,-5.6792,-5.7223,-5.7377,-5.7469,-5.8146,-5.8362,-5.8485,-5.9162,-5.8947,-5.8423,-5.8701,-5.907,-5.9378,-5.9479,-5.9989,-6.04,-6.0602,-6.0902,-6.1168,-6.1267,-6.1463,-6.1466,-6.1055,-6.0961,-6.0834,-6.0392,-6.0328,-6.0508,-6.0857,-6.0704,-6.0848,-6.1667,-6.1877,-6.2245,-6.3007,-6.3343,-6.36,-6.36,-6.36,-6.36,-6.36,-6.36,-6.36,-6.36,-6.36,-6.36,-6.36,-6.5048,-6.5876,-6.5876,-6.7325,-6.8083,-6.8083,-6.8083,-6.8083,-6.8083,-6.8083,-6.8083,-6.8083,-6.8083,-6.8083,-6.8083,-6.8083,-6.8083,-6.8083,-6.8083,-6.8083,-6.8083,-6.8083,-6.8083,-6.8083,-6.8083,-6.8083,-6.8083,-5.7019,0.0,-5.7135,0.0,-5.729,-5.7346,-5.7346,-5.7746,-5.8054,-5.8054,-5.8239,-5.83,-5.8085,-5.8485,-5.8793,-5.8793,-5.8793,-5.8793,-5.8793,-5.8793,-5.8577,-5.8085,-5.8054,-5.7746,-5.7069,-5.7069,-5.7043,-5.7019,-5.7306,-5.7402,-5.7402,-5.7496,-5.7496,-5.7401,-5.718,-5.7084,-5.7019,-5.6858,-5.6761,-5.6792,-5.6977,-5.7069,-5.7131,-5.7808,-5.8054,-5.8146,-5.8824,-5.907,-5.9193,-5.987,-5.9778,-5.9378,-5.9378,-5.9686,-6.0086,-6.0086,-6.0527,-6.1103,-6.1206,-6.1512,-6.1815,-6.2016,-6.2116,-6.2189,-6.1814,-6.1687,-6.1498,-6.0771,-6.0613,-6.0741,-6.1238,-6.0636,-6.0559,-6.2141,-6.1966,-6.1991,-6.3008,-6.3405,-6.36,-6.36,-6.36,-6.36,-6.36,-6.36,-6.36,-6.36,-6.3807,-6.391,-6.391,-6.5152,-6.5979,-6.6186,-6.7428,-6.8083,-6.8083,-6.8083,-6.8083,-6.8083,-6.8083,-6.8083,-6.8083,-6.8083,-6.8083,-6.8083,-6.8083,-6.8083,-6.8083,-6.8083,-6.8083,-6.8083,-6.8083,-6.8083,-6.8083,-6.8083,-6.8083,-6.8083,-5.6761,-5.7315,-5.7746,-5.7746,-5.83,-5.8762,-5.8762,-5.8762,-5.8762,-5.8762,-5.9347,-5.9501,-5.8854,-5.8793,-5.8793,-5.8793,-5.8793,-5.8793,-5.8793,-5.8793,-5.8793,-5.8762,-5.8762,-5.8454,-5.7777,-5.7746,-5.7438,-5.6761,-5.7019,-5.6774,-5.6154,-5.6435,-5.6778,-5.7084,-5.7084,-5.7019,-5.6761,-5.6761,-5.6761,-5.6823,-5.75,-5.7746,-5.7839,-5.8516,-5.8762,-5.8854,-5.9532,-5.9778,-5.987,-6.0547,-6.0794,-6.0763,-6.0763,-6.0794,-6.0794,-6.0794,-6.0794,-6.0897,-6.1103,-6.1206,-6.1308,-6.1916,-6.2016,-6.2116,-6.2315,-6.2414,-6.2225,-6.1529,-6.1371,-6.115,-6.0423,-6.1113,-6.1359,-6.0456,-6.1961,-6.3006,-6.2098,-6.291,-6.36,-6.36,-6.36,-6.36,-6.36,-6.36,-6.36,-6.36,-6.4255,-6.4703,-6.4703,-6.5462,-6.6221,-6.6945,-6.7704,-6.8083,-6.8083,-6.8083,-6.8083,-6.8083,-6.8083,-6.8083,-6.8083,-6.8083,-6.8083,-6.8083,-6.8083,-6.8083,-6.8083,-6.8083,-6.8083,-6.8083,-6.8083,-6.8083,-6.8083,-6.8083,-6.8083,-6.8083,-5.8146,-5.83,-5.8454,-5.8454,-5.8639,-5.8793,-5.8793,-5.9162,-5.947,-5.947,-6.0055,-6.0393,-6.0178,-6.0147,-6.0147,-6.0147,-6.0147,-6.0147,-6.0147,-6.0147,-5.9963,-5.9501,-5.947,-5.9162,-5.8485,-5.8454,-5.8116,-5.7438,-5.77,-5.7552,-5.7089,-5.7183,-5.7183,-5.7084,-5.6923,-5.6858,-5.6792,-5.7254,-5.7438,-5.75,-5.8177,-5.8454,-5.8516,-5.9224,-5.947,-5.9562,-6.024,-6.0486,-6.0517,-6.0732,-6.0794,-6.0794,-6.0794,-6.0794,-6.0794,-6.0794,-6.0794,-6.0897,-6.1103,-6.1308,-6.1481,-6.1683,-6.2016,-6.2216,-6.2116,-6.2216,-6.2383,-6.2161,-6.2098,-6.2035,-6.1782,-6.163,-6.1567,-6.1912,-6.2126,-6.2484,-6.35,-6.3903,-6.4357,-6.5076,-6.5152,-6.5152,-6.5152,-6.5152,-6.5152,-6.5152,-6.5393,-6.5255,-6.4738,-6.5945,-6.6738,-6.698,-6.7704,-6.8083,-6.8083,-6.8083,-6.8083,-6.8083,-6.8083,-6.8083,-6.8083,-6.8083,-6.8083,-6.8083,-6.8083,-6.8083,-6.8083,-6.8083,-6.8083,-6.8083,-6.8083,-6.8083,-6.8083,-6.8083,-6.8083,-6.8083,-5.8793,-5.8978,-5.9162,-5.9162,-5.9378,-5.9532,-5.9532,-5.9901,-6.0178,-6.0178,-6.0547,-6.0794,-6.0794,-6.0794,-6.0794,-6.0794,-6.0794,-6.0794,-6.0794,-6.0794,-6.0609,-6.0178,-6.0178,-5.9839,-5.9162,-5.9162,-5.8824,-5.8146,-5.8313,-5.8195,-5.7987,-5.7987,-5.789,-5.7695,-5.7598,-5.7531,-5.7562,-5.806,-5.8245,-5.8208,-5.9185,-5.9363,-5.9224,-6.0003,-6.028,-6.0209,-6.064,-6.0794,-6.0794,-6.0794,-6.0794,-6.0794,-6.0794,-6.0794,-6.0794,-6.0794,-6.0794,-6.0794,-6.1,-6.1206,-6.141,-6.1582,-6.1815,-6.2116,-6.2116,-6.2315,-6.2446,-6.2446,-6.2446,-6.2446,-6.2446,-6.2067,-6.1946,-6.2492,-6.2353,-6.2476,-6.359,-6.412,-6.464,-6.5265,-6.5688,-6.5876,-6.5876,-6.5876,-6.5876,-6.5876,-6.6152,-6.6083,-6.56,-6.6462,-6.7118,-6.7394,-6.7842,-6.8083,-6.8083,-6.8083,-6.8083,-6.8083,-6.8083,-6.8083,-6.8083,-6.8083,-6.8083,-6.8083,-6.8083,-6.8083,-6.8083,-6.8083,-6.8083,-6.8083,-6.8083,-6.8083,-6.8083,-6.8083,-6.8083,-6.8083,-5.8916,-5.9439,-5.987,-5.987,-6.0393,-6.0794,-6.0794,-6.0794,-6.0794,-6.0794,-6.0794,-6.0794,-6.0794,-6.0794,-6.0794,-6.0794,-6.0794,-6.0794,-6.0794,-6.0794,-6.0794,-6.0794,-6.0794,-6.0517,-5.987,-5.987,-5.9532,-5.8854,-5.8793,-5.8793,-5.8793,-5.8793,-5.8793,-5.8793,-5.8793,-5.8793,-5.8793,-5.9154,-5.9054,-5.9016,-6.0166,-6.0346,-6.0034,-6.0887,-6.1103,-6.0794,-6.0794,-6.0794,-6.0794,-6.0794,-6.0794,-6.0794,-6.0794,-6.0794,-6.0794,-6.0794,-6.0794,-6.0794,-6.0794,-6.0794,-6.0897,-6.1481,-6.1582,-6.1714,-6.2216,-6.2446,-6.2446,-6.2446,-6.2446,-6.2446,-6.2446,-6.2446,-6.2446,-6.2446,-6.2588,-6.2672,-6.2765,-6.3756,-6.4532,-6.4532,-6.5402,-6.6048,-6.6048,-6.6048,-6.6048,-6.6048,-6.6669,-6.7083,-6.7083,-6.7083,-6.7394,-6.8083,-6.8083,-6.8083,-6.8083,-6.8083,-6.8083,-6.8083,-6.8083,-6.8083,-6.8083,-6.8083,-6.8083,-6.8083,-6.8083,-6.8083,-6.8083,-6.8083,-6.8083,-6.8083,-6.8083,-6.8083,-6.8083,-6.8083,-6.8083,-6.8083,-6.0332,-6.0455,-6.0547,-6.0547,-6.0701,-6.0794,-6.0794,-6.0794,-6.0794,-6.0794,-6.0794,-6.0794,-6.0794,-6.0794,-6.0794,-6.0794,-6.0794,-6.0794,-6.0794,-6.0794,-6.0794,-6.0794,-6.0794,-6.0732,-6.0578,-6.0547,-6.024,-5.9562,-5.924,-5.9092,-5.9092,-5.9092,-5.9092,-5.9092,-5.8893,-5.8793,-5.8824,-5.9417,-5.9664,-5.9624,-6.0679,-6.0958,-6.0887,-6.1348,-6.1308,-6.1103,-6.1103,-6.1,-6.0794,-6.0794,-6.0794,-6.0794,-6.0794,-6.0794,-6.0794,-6.0794,-6.0794,-6.0794,-6.1,-6.1103,-6.1103,-6.1308,-6.141,-6.1683,-6.2016,-6.2216,-6.2446,-6.2446,-6.2446,-6.2446,-6.2446,-6.2446,-6.2446,-6.2446,-6.2453,-6.2715,-6.3541,-6.4449,-6.5373,-6.6086,-6.7056,-6.7566,-6.7566,-6.7566,-6.7566,-6.7566,-6.7738,-6.7842,-6.7842,-6.7842,-6.7911,-6.8083,-6.8083,-6.8083,-6.8083,-6.8083,-6.8083,-6.8083,-6.8083,-6.8083,-6.8083,-6.8083,-6.8083,-6.8083,-6.8083,-6.8083,-6.8083,-6.8083,-6.8083,-6.8083,-6.8083,-6.8083,-6.8083,-6.8083,-6.8083,-6.8083,-6.0794,-6.0794,-6.0794,-6.0794,-6.0794,-6.0794,-6.0794,-6.0794,-6.0794,-6.0794,-6.0794,-6.0794,-6.0794,-6.0794,-6.0794,-6.0794,-6.0794,-6.0794,-6.0794,-6.0794,-6.0794,-6.0794,-6.0794,-6.0794,-6.0794,-6.0794,-6.0609,-6.024,-6.0105,-5.9919,-5.9919,-5.9919,-5.9919,-5.9919,-5.9818,-5.9686,-5.9716,-6.0188,-6.0373,-6.027,-6.1051,-6.1206,-6.1,-6.1308,-6.1206,-6.1,-6.1103,-6.1,-6.0794,-6.0897,-6.0897,-6.0794,-6.0794,-6.0794,-6.0794,-6.0794,-6.0794,-6.0794,-6.1,-6.1,-6.1,-6.1206,-6.1512,-6.1784,-6.2016,-6.2216,-6.2446,-6.2446,-6.2446,-6.2446,-6.2446,-6.2446,-6.2446,-6.2446,-6.2446,-6.2612,-6.3164,-6.4049,-6.5024,-6.5908,-6.6878,-6.765,-6.8083,-6.8083,-6.8083,-6.8083,-6.8083,-6.8083,-6.8083,-6.8083,-6.8083,-6.8083,-6.8083,-6.8083,-6.8083,-6.8083,-6.8083,-6.8083,-6.8083,-6.8083,-6.8083,-6.8083,-6.8083,-6.8083,-6.8083,-6.8083,-6.8083,-6.8083,-6.8083,-6.8083,-6.8083,-6.8083,-6.8083,-6.8083,-6.8083,-6.8083,-6.0794,-6.0794,-6.0794,-6.0794,-6.0794,-6.0794,-6.0794,-6.0794,-6.0794,-6.0794,-6.0794,-6.0794,-6.0794,-6.0794,-6.0794,-6.0794,-6.0794,-6.0794,-6.0794,-6.0794,-6.0794,-6.0794,-6.0794,-6.0794,-6.0794,-6.0794,-6.0794,-6.0794,-6.0794,-6.0794,-6.0794,-6.0794,-6.0794,-6.0794,-6.0794,-6.0794,-6.0794,-6.1,-6.1,-6.0794,-6.1308,-6.1308,-6.0897,-6.1103,-6.1103,-6.0897,-6.1103,-6.1,-6.0794,-6.1103,-6.1,-6.0897,-6.0794,-6.0794,-6.0897,-6.0794,-6.0794,-6.0794,-6.0794,-6.0794,-6.0897,-6.1206,-6.1613,-6.2016,-6.2016,-6.2216,-6.2446,-6.2446,-6.2446,-6.2446,-6.2446,-6.2446,-6.2446,-6.2446,-6.2446,-6.2446,-6.2446,-6.3452,-6.442,-6.5204,-6.6253,-6.7209,-6.8004,-6.8083,-6.8083,-6.8083,-6.8083,-6.8083,-6.8083,-6.8083,-6.8083,-6.8083,-6.8083,-6.8083,-6.8083,-6.8083,-6.8083,-6.8083,-6.8083,-6.8083,-6.8083,-6.8083,-6.8083,-6.8083,-6.8083,-6.8083,-6.8083,-6.8083,-6.8083,-6.8083,-6.8083,-6.8083,-6.8083,-6.8083,-6.8083,-6.8083,-6.0794,-6.0794,-6.0794,-6.0794,-6.0794,-6.0794,-6.0794,-6.0794,-6.0794,-6.0794,-6.0794,-6.0794,-6.0794,-6.0794,-6.0794,-6.0794,-6.0794,-6.0794,-6.0794,-6.0794,-6.0794,-6.0794,-6.0794,-6.0794,-6.0794,-6.0794,-6.0794,-6.0794,-6.0794,-6.0794,-6.0794,-6.0794,-6.0794,-6.0794,-6.0794,-6.0794,-6.0794,-6.0794,-6.0794,-6.0794,-6.1103,-6.1206,-6.1206,-6.141,-6.141,-6.1103,-6.1237,-6.1,-6.0794,-6.0794,-6.1,-6.1103,-6.0897,-6.0897,-6.1103,-6.0897,-6.0794,-6.0794,-6.0794,-6.1,-6.1206,-6.1512,-6.1815,-6.2016,-6.2016,-6.2216,-6.2446,-6.2446,-6.2446,-6.2446,-6.2446,-6.2446,-6.2446,-6.2446,-6.2446,-6.2446,-6.2446,-6.3955,-6.5114,-6.5293,-6.6878,-6.7925,-6.8083,-6.8083,-6.8083,-6.8083,-6.8083,-6.8083,-6.8083,-6.8083,-6.8083,-6.8083,-6.8083,-6.8083,-6.8083,-6.8083,-6.8083,-6.8083,-6.8083,-6.8083,-6.8083,-6.8083,-6.8083,-6.8083,-6.8083,-6.8083,-6.8083,-6.8083,-6.8083,-6.8083,-6.8083,-6.8083,-6.8083,-6.8083,-6.8083,-6.8083,-6.0794,-6.0794,-6.0794,-6.0794,-6.0794,-6.0794,-6.0794,-6.0794,-6.0794,-6.0794,-6.0794,-6.0794,-6.0794,-6.0794,-6.0794,-6.0794,-6.0794,-6.0794,-6.0794,-6.0794,-6.0794,-6.0794,-6.0794,-6.0794,-6.0794,-6.0794,-6.0794,-6.0794,-6.0794,-6.0794,-6.0794,-6.0794,-6.0794,-6.0794,-6.0794,-6.0794,-6.0794,-6.0794,-6.0794,-6.0794,-6.0897,-6.1,-6.1,-6.1103,-6.1103,-6.1,-6.1103,-6.1,-6.0794,-6.1,-6.1,-6.1,-6.0794,-6.0897,-6.1,-6.0794,-6.0794,-6.0794,-6.1,-6.1103,-6.1308,-6.1481,-6.1815,-6.2016,-6.2016,-6.2216,-6.2446,-6.2446,-6.2446,-6.2446,-6.2446,-6.2446,-6.2446,-6.2446,-6.2873,-6.3164,-6.3164,-6.442,-6.547,-6.5995,-6.6795,-6.7569,-6.8004,-6.8083,-6.8083,-6.8083,-6.8083,-6.8083,-6.8083,-6.8083,-6.8083,-6.8083,-6.8083,-6.8083,-6.8083,-6.8083,-6.8083,-6.8083,-6.8083,-6.8083,-6.8083,-6.8083,-6.8083,-6.8083,-6.8083,-6.8083,-6.8083,-6.8083,-6.8083,-6.8083,-6.8083,-6.8083,-6.8083,-6.8083,-6.8083,-6.8083,-6.0794,-6.0794,-6.0794,-6.0794,-6.0794,-6.0794,-6.0794,-6.0794,-6.0794,-6.0794,-6.0794,-6.0794,-6.0794,-6.0794,-6.0794,-6.0794,-6.0794,-6.0794,-6.0794,-6.0794,-6.0794,-6.0794,-6.0794,-6.0794,-6.0794,-6.0794,-6.0794,-6.0794,-6.0794,-6.0794,-6.0794,-6.0794,-6.0794,-6.0794,-6.0794,-6.0794,-6.0794,-6.0794,-6.0794,-6.0794,-6.0794,-6.0794,-6.0794,-6.0794,-6.0794,-6.0794,-6.1,-6.1,-6.0794,-6.1,-6.1,-6.0897,-6.0794,-6.0794,-6.0897,-6.0794,-6.0794,-6.0897,-6.1308,-6.141,-6.141,-6.1714,-6.1916,-6.2116,-6.2116,-6.2216,-6.2446,-6.2446,-6.2446,-6.2446,-6.2446,-6.2446,-6.2446,-6.2446,-6.326,-6.3894,-6.3894,-6.4877,-6.5908,-6.6593,-6.6878,-6.7325,-6.8004,-6.8083,-6.8083,-6.8083,-6.8083,-6.8083,-6.8083,-6.8083,-6.8083,-6.8083,-6.8083,-6.8083,-6.8083,-6.8083,-6.8083,-6.8083,-6.8083,-6.8083,-6.8083,-6.8083,-6.8083,-6.8083,-6.8083,-6.8083,-6.8083,-6.8083,-6.8083,-6.8083,-6.8083,-6.8083,-6.8083,-6.8083,-6.8083,-6.8083,-6.0794,-6.0794,-6.0794,-6.0794,-6.0794,-6.0794,-6.0794,-6.0794,-6.0794,-6.0794,-6.0794,-6.0794,-6.0794,-6.0794,-6.0794,-6.0794,-6.0794,-6.0794,-6.0794,-6.0794,-6.0794,-6.0794,-6.0794,-6.0794,-6.0794,-6.0794,-6.0794,-6.0794,-6.0794,-6.0794,-6.0794,-6.0794,-6.0794,-6.0794,-6.0794,-6.0794,-6.0794,-6.0794,-6.0794,-6.0794,-6.0794,-6.0794,-6.0794,-6.0794,-6.0794,-6.0794,-6.0794,-6.0794,-6.0794,-6.0794,-6.1,-6.1103,-6.0897,-6.1,-6.1103,-6.0897,-6.0794,-6.1,-6.1714,-6.1916,-6.2016,-6.2216,-6.2347,-6.2315,-6.2315,-6.2446,-6.2446,-6.2446,-6.2446,-6.2446,-6.2446,-6.2446,-6.2446,-6.2446,-6.326,-6.3894,-6.3894,-6.547,-6.6593,-6.6677,-6.7488,-6.8004,-6.8083,-6.8083,-6.8083,-6.8083,-6.8083,-6.8083,-6.8083,-6.8083,-6.8083,-6.8083,-6.8083,-6.8083,-6.8083,-6.8083,-6.8083,-6.8083,-6.8083,-6.8083,-6.8083,-6.8083,-6.8083,-6.8083,-6.8083,-6.8083,-6.8083,-6.8083,-6.8083,-6.8083,-6.8083,-6.8083,-6.8083,-6.8083,-6.8083,-6.8083,-6.0794,-6.0794,-6.0794,-6.0794,-6.0794,-6.0794,-6.0794,-6.0794,-6.0794,-6.0794,-6.0794,-6.0794,-6.0794,-6.0794,-6.0794,-6.0794,-6.0794,-6.0794,-6.0794,-6.0794,-6.0794,-6.0794,-6.0794,-6.0794,-6.0794,-6.0794,-6.0794,-6.0794,-6.0794,-6.0794,-6.0794,-6.0794,-6.0794,-6.0794,-6.0794,-6.0794,-6.0794,-6.0794,-6.0794,-6.0794,-6.0794,-6.0794,-6.0794,-6.0794,-6.0794,-6.0794,-6.0794,-6.0794,-6.0794,-6.0794,-6.0897,-6.0897,-6.0794,-6.0897,-6.1,-6.1,-6.1,-6.1103,-6.1613,-6.1613,-6.1613,-6.2016,-6.2116,-6.2216,-6.2315,-6.2446,-6.2612,-6.3164,-6.3357,-6.3516,-6.4142,-6.4235,-6.4235,-6.4235,-6.5024,-6.5646,-6.5646,-6.6795,-6.7569,-6.7569,-6.7925,-6.8083,-6.8083,-6.8083,-6.8083,-6.8083,-6.8083,-6.8083,-6.8083,-6.8083,-6.8083,-6.8083,-6.8083,-6.8083,-6.8083,-6.8083,-6.8083,-6.8083,-6.8083,-6.8083,-6.8083,-6.8083,-6.8083,-6.8083,-6.8083,-6.8083,-6.8083,-6.8083,-6.8083,-6.8083,-6.8083,-6.8083,-6.8083,-6.8083,-6.8083,-6.8083,-6.0794,-6.0794,-6.0794,-6.0794,-6.0794,-6.0794,-6.0794,-6.0794,-6.0794,-6.0794,-6.0794,-6.0794,-6.0794,-6.0794,-6.0794,-6.0794,-6.0794,-6.0794,-6.0794,-6.0794,-6.0794,-6.0794,-6.0794,-6.0794,-6.0794,-6.0794,-6.0794,-6.0794,-6.0794,-6.0794,-6.0794,-6.0794,-6.0794,-6.0794,-6.0794,-6.0794,-6.0794,-6.0794,-6.0794,-6.0794,-6.0794,-6.0794,-6.0794,-6.0794,-6.0794,-6.0794,-6.0794,-6.0794,-6.0794,-6.0794,-6.0794,-6.0794,-6.0794,-6.1,-6.1277,-6.1481,-6.1753,-6.2053,-6.2221,-6.2153,-6.2053,-6.2284,-6.2383,-6.2481,-6.2971,-6.3164,-6.342,-6.4081,-6.4268,-6.4512,-6.5204,-6.5293,-6.5293,-6.5293,-6.6081,-6.6711,-6.6711,-6.7488,-6.8083,-6.8083,-6.8083,-6.8083,-6.8083,-6.8083,-6.8083,-6.8083,-6.8083,-6.8083,-6.8083,-6.8083,-6.8083,-6.8083,-6.8083,-6.8083,-6.8083,-6.8083,-6.8083,-6.8083,-6.8083,-6.8083,-6.8083,-6.8083,-6.8083,-6.8083,-6.8083,-6.8083,-6.8083,-6.8083,-6.8083,-6.8083,-6.8083,-6.8083,-6.8083,-6.8083,-6.8083,-6.8083,-6.0794,-6.0794,-6.0794,-6.0794,-6.0794,-6.0794,-6.0794,-6.0794,-6.0794,-6.0794,-6.0794,-6.0794,-6.0794,-6.0794,-6.0794,-6.0794,-6.0794,-6.0794,-6.0794,-6.0794,-6.0794,-6.0794,-6.0794,-6.0794,-6.0794,-6.0794,-6.0794,-6.0794,-6.0794,-6.0794,-6.0794,-6.0794,-6.0794,-6.0794,-6.0794,-6.0794,-6.0794,-6.0794,-6.0794,-6.0794,-6.0794,-6.0794,-6.0794,-6.0794,-6.0794,-6.0794,-6.0794,-6.0794,-6.0794,-6.0794,-6.0794,-6.0794,-6.0794,-6.145,-6.2319,-6.2319,-6.3068,-6.3797,-6.3797,-6.3797,-6.3703,-6.3196,-6.31,-6.3388,-6.4328,-6.4819,-6.5,-6.5,-6.5147,-6.5293,-6.5293,-6.5293,-6.5293,-6.5293,-6.6081,-6.6711,-6.6711,-6.7488,-6.8083,-6.8083,-6.8083,-6.8083,-6.8083,-6.8083,-6.8083,-6.8083,-6.8083,-6.8083,-6.8083,-6.8083,-6.8083,-6.8083,-6.8083,-6.8083,-6.8083,-6.8083,-6.8083,-6.8083,-6.8083,-6.8083,-6.8083,-6.8083,-6.8083,-6.8083,-6.8083,-6.8083,-6.8083,-6.8083,-6.8083,-6.8083,-6.8083,-6.8083,-6.8083,-6.8083,-6.8083,-6.8083,-6.0794,-6.0794,-6.0794,-6.0794,-6.0794,-6.0794,-6.0794,-6.0794,-6.0794,-6.0794,-6.0794,-6.0794,-6.0794,-6.0794,-6.0794,-6.0794,-6.0794,-6.0794,-6.0794,-6.0794,-6.0794,-6.0794,-6.0794,-6.0794,-6.0794,-6.0794,-6.0794,-6.0794,-6.0794,-6.0794,-6.0794,-6.0794,-6.0794,-6.0794,-6.0794,-6.0794,-6.0794,-6.0794,-6.0794,-6.0794,-6.0794,-6.0794,-6.0794,-6.0794,-6.1277,-6.1853,-6.1853,-6.1853,-6.1853,-6.1853,-6.1348,-6.0897,-6.1652,-6.2583,-6.3324,-6.3324,-6.3609,-6.3797,-6.3797,-6.3797,-6.3797,-6.3829,-6.3829,-6.4017,-6.4512,-6.4636,-6.491,-6.5625,-6.5801,-6.6148,-6.6912,-6.7078,-6.7078,-6.7209,-6.7488,-6.765,-6.765,-6.7925,-6.8083,-6.8083,-6.8083,-6.8083,-6.8083,-6.8083,-6.8083,-6.8083,-6.8083,-6.8083,-6.8083,-6.8083,-6.8083,-6.8083,-6.8083,-6.8083,-6.8083,-6.8083,-6.8083,-6.8083,-6.8083,-6.8083,-6.8083,-6.8083,-6.8083,-6.8083,-6.8083,-6.8083,-6.8083,-6.8083,-6.8083,-6.8083,-6.8083,-6.8083,-6.8083,-6.8083,-6.8083,-6.8083,-6.0794,-6.0794,-6.0794,-6.0794,-6.0794,-6.0794,-6.0794,-6.0794,-6.0794,-6.0794,-6.0794,-6.0794,-6.0794,-6.0794,-6.0794,-6.0794,-6.0794,-6.0794,-6.0794,-6.0794,-6.0794,-6.0794,-6.0794,-6.0794,-6.0794,-6.0794,-6.0794,-6.0794,-6.0794,-6.0794,-6.0794,-6.0794,-6.0794,-6.0794,-6.0794,-6.0794,-6.0794,-6.0794,-6.0794,-6.0794,-6.0794,-6.0794,-6.0794,-6.1277,-6.1753,-6.2319,-6.2778,-6.2875,-6.2875,-6.2875,-6.2485,-6.2121,-6.268,-6.3609,-6.4355,-6.4355,-6.4629,-6.5024,-6.5024,-6.5024,-6.5024,-6.5237,-6.4934,-6.4753,-6.5326,-6.5537,-6.5801,-6.6354,-6.661,-6.6862,-6.7557,-6.7638,-6.7719,-6.7879,-6.7959,-6.7925,-6.7879,-6.7959,-6.7959,-6.7879,-6.7959,-6.7959,-6.7959,-6.8004,-6.8083,-6.8083,-6.8083,-6.8083,-6.8083,-6.8083,-6.8083,-6.8083,-6.8083,-6.8083,-6.8083,-6.8083,-6.8083,-6.8083,-6.8083,-6.8083,-6.8083,-6.8083,-6.8083,-6.8083,-6.8083,-6.8083,-6.8083,-6.8083,-6.8083,-6.8083,-6.8083,-6.8083,-6.8083,-6.8083,-6.8083,-6.8083,-6.0794,-6.0794,-6.0794,-6.0794,-6.0794,-6.0794,-6.0794,-6.0794,-6.0794,-6.0794,-6.0794,-6.0794,-6.0794,-6.0794,-6.0794,-6.0794,-6.0794,-6.0794,-6.0794,-6.0794,-6.0794,-6.0794,-6.0794,-6.0794,-6.0794,-6.0794,-6.0794,-6.0794,-6.0794,-6.0794,-6.0794,-6.0794,-6.0794,-6.0794,-6.0794,-6.0794,-6.0794,-6.0794,-6.0794,-6.0794,-6.0794,-6.0794,-6.0897,-6.1853,-6.2319,-6.2583,-6.3514,-6.3891,-6.3891,-6.3797,-6.3891,-6.3984,-6.3984,-6.4629,-6.5382,-6.5382,-6.6062,-6.6812,-6.6812,-6.6812,-6.6812,-6.6812,-6.6148,-6.568,-6.661,-6.7014,-6.718,-6.718,-6.7346,-6.7394,-6.751,-6.7475,-6.751,-6.751,-6.7638,-6.7719,-6.751,-6.7638,-6.7719,-6.7475,-6.7638,-6.7799,-6.7799,-6.7959,-6.8083,-6.8083,-6.8083,-6.8083,-6.8083,-6.8083,-6.8083,-6.8083,-6.8083,-6.8083,-6.8083,-6.8083,-6.8083,-6.8083,-6.8083,-6.8083,-6.8083,-6.8083,-6.8083,-6.8083,-6.8083,-6.8083,-6.8083,-6.8083,-6.8083,-6.8083,-6.8083,-6.8083,-6.8083,-6.8083,-6.8083,-6.8083,-6.0481,-6.069,-6.0794,-6.0794,-6.0794,-6.0794,-6.0794,-6.0794,-6.0794,-6.0794,-6.0794,-6.0794,-6.0794,-6.0794,-6.0794,-6.0794,-6.0794,-6.0794,-6.0794,-6.0794,-6.0794,-6.0794,-6.0794,-6.0794,-6.0794,-6.0794,-6.0794,-6.0794,-6.0794,-6.0794,-6.0794,-6.0794,-6.0794,-6.0794,-6.0794,-6.0794,-6.0794,-6.0794,-6.0794,-6.0794,-6.0794,-6.0794,-6.0794,-6.1072,-6.2121,-6.3514,-6.3703,-6.4355,-6.4811,-6.4077,-6.4355,-6.5024,-6.5024,-6.568,-6.644,-6.644,-6.6643,-6.6812,-6.6812,-6.6812,-6.6812,-6.6812,-6.6643,-6.6525,-6.6728,-6.6812,-6.6896,-6.6896,-6.6896,-6.698,-6.7263,-6.7263,-6.7346,-6.7475,-6.7591,-6.7557,-6.751,-6.7557,-6.7557,-6.751,-6.7557,-6.7557,-6.7557,-6.7719,-6.7959,-6.8083,-6.8083,-6.8083,-6.8083,-6.8083,-6.8083,-6.8083,-6.8083,-6.8083,-6.8083,-6.8083,-6.8083,-6.8083,-6.8083,-6.8083,-6.8083,-6.8083,-6.8083,-6.8083,-6.8083,-6.8083,-6.8083,-6.8083,-6.8083,-6.8083,-6.8083,-6.8083,-6.8083,-6.8083,-6.8083,-6.8083,-6.0377,-6.0481,-6.069,-6.0794,-6.0794,-6.0794,-6.0794,-6.0794,-6.0794,-6.0794,-6.0794,-6.0794,-6.0794,-6.0794,-6.0794,-6.0794,-6.0794,-6.0794,-6.0794,-6.0794,-6.0794,-6.0794,-6.0794,-6.0794,-6.0794,-6.0794,-6.0794,-6.0794,-6.0794,-6.0794,-6.0794,-6.0794,-6.0794,-6.0794,-6.0794,-6.0794,-6.0794,-6.0794,-6.0794,-6.0794,-6.0794,-6.0794,-6.0897,-6.1379,-6.2221,-6.3228,-6.417,-6.5204,-6.5975,-6.5382,-6.5592,-6.6062,-6.6062,-6.6354,-6.6812,-6.6812,-6.6812,-6.6812,-6.6812,-6.6812,-6.6812,-6.6812,-6.6812,-6.6812,-6.6812,-6.6812,-6.6812,-6.6812,-6.6812,-6.6812,-6.7014,-6.7014,-6.7014,-6.7146,-6.7229,-6.7346,-6.7146,-6.7263,-6.7346,-6.7146,-6.7263,-6.7428,-6.7638,-6.7719,-6.7879,-6.8083,-6.8083,-6.8083,-6.8083,-6.8083,-6.8083,-6.8083,-6.8083,-6.8083,-6.8083,-6.8083,-6.8083,-6.8083,-6.8083,-6.8083,-6.8083,-6.8083,-6.8083,-6.8083,-6.8083,-6.8083,-6.8083,-6.8083,-6.8083,-6.8083,-6.8083,-6.8083,-6.8083,-6.8083,-6.8083,-6.8083,-6.0197,-6.0272,-6.0377,-6.069,-6.069,-6.069,-6.0794,-6.0794,-6.0794,-6.0794,-6.0794,-6.0794,-6.0794,-6.0794,-6.0794,-6.0794,-6.0794,-6.0794,-6.0794,-6.0794,-6.0794,-6.0794,-6.0794,-6.0794,-6.0794,-6.0794,-6.0794,-6.0794,-6.0794,-6.0794,-6.0794,-6.0794,-6.0794,-6.0794,-6.0794,-6.0794,-6.0794,-6.0794,-6.0794,-6.0794,-6.0794,-6.0794,-6.0897,-6.1753,-6.2121,-6.2516,-6.417,-6.5592,-6.6525,-6.6728,-6.6812,-6.6812,-6.6812,-6.6812,-6.6812,-6.6812,-6.6812,-6.6812,-6.6812,-6.6812,-6.6812,-6.6812,-6.6812,-6.6812,-6.6812,-6.6812,-6.6812,-6.6812,-6.6812,-6.6812,-6.6812,-6.6812,-6.6812,-6.6812,-6.7014,-6.7097,-6.6812,-6.7014,-6.7014,-6.6812,-6.7014,-6.7263,-6.7638,-6.7719,-6.7799,-6.7959,-6.8039,-6.8004,-6.8039,-6.8004,-6.8083,-6.8083,-6.8083,-6.8083,-6.8083,-6.8083,-6.8083,-6.8083,-6.8083,-6.8083,-6.8083,-6.8083,-6.8083,-6.8083,-6.8083,-6.8083,-6.8083,-6.8083,-6.8083,-6.8083,-6.8083,-6.8083,-6.8083,-6.8083,-6.8083,-6.8083,-5.9757,-5.988,-6.0092,-6.0377,-6.0481,-6.0481,-6.0794,-6.0794,-6.0794,-6.0794,-6.0794,-6.0794,-6.0794,-6.0794,-6.0794,-6.0794,-6.0794,-6.0794,-6.0794,-6.0794,-6.0794,-6.0794,-6.0794,-6.0794,-6.0794,-6.0794,-6.0794,-6.0794,-6.0794,-6.0794,-6.0794,-6.0794,-6.0794,-6.0794,-6.0794,-6.0794,-6.0794,-6.0794,-6.0794,-6.0794,-6.0794,-6.0794,-6.0794,-6.1,-6.1551,-6.2319,-6.2583,-6.3891,-6.568,-6.6525,-6.6812,-6.6812,-6.6812,-6.6812,-6.6812,-6.6812,-6.6812,-6.6812,-6.6812,-6.6812,-6.6812,-6.6812,-6.6812,-6.6812,-6.6812,-6.6812,-6.6812,-6.6812,-6.6812,-6.6812,-6.6812,-6.6812,-6.6812,-6.6812,-6.6812,-6.6812,-6.6812,-6.6812,-6.6812,-6.6812,-6.6812,-6.7014,-6.7263,-6.7263,-6.7346,-6.7557,-6.7557,-6.7638,-6.7799,-6.7879,-6.7959,-6.8083,-6.8083,-6.8083,-6.8083,-6.8083,-6.8083,-6.8083,-6.8083,-6.8083,-6.8083,-6.8083,-6.8083,-6.8083,-6.8083,-6.8083,-6.8083,-6.8083,-6.8083,-6.8083,-6.8083,-6.8083,-6.8083,-6.8083,-6.8083,-6.8083,-6.0132,-5.9908,-5.988,-6.0092,-6.0272,-6.0481,-6.0586,-6.069,-6.0794,-6.0794,-6.0794,-6.0794,-6.0794,-6.0794,-6.0794,-6.0794,-6.0794,-6.0794,-6.0794,-6.0794,-6.0794,-6.0794,-6.0794,-6.0794,-6.0794,-6.0794,-6.0794,-6.0794,-6.0794,-6.0794,-6.0794,-6.0794,-6.0794,-6.0794,-6.0794,-6.0794,-6.0794,-6.0794,-6.0794,-6.0794,-6.0794,-6.0794,-6.0794,-6.0794,-6.1103,-6.1551,-6.2121,-6.3609,-6.5382,-6.5767,-6.6354,-6.6812,-6.6812,-6.6812,-6.6812,-6.6812,-6.6812,-6.6812,-6.6812,-6.6812,-6.6812,-6.6812,-6.6812,-6.6812,-6.6812,-6.6812,-6.6812,-6.6812,-6.6812,-6.6812,-6.6812,-6.6812,-6.6812,-6.6812,-6.6812,-6.6812,-6.6812,-6.6812,-6.6812,-6.6812,-6.6812,-6.6896,-6.718,-6.718,-6.7263,-6.7475,-6.751,-6.7557,-6.7638,-6.7638,-6.7638,-6.7799,-6.7799,-6.7799,-6.7959,-6.7959,-6.8039,-6.8083,-6.8083,-6.8083,-6.8083,-6.8083,-6.8083,-6.8083,-6.8083,-6.8083,-6.8083,-6.8083,-6.8083,-6.8083,-6.8083,-6.8083,-6.8083,-6.8083,-6.8083,-6.8083]}]]